<?xml version="1.0" encoding="UTF-8" standalone="no" ?>
<gpx xmlns="http://www.topografix.com/GPX/1/1" xmlns:xsi="http://www.w3.org/2001/XMLSchema-instance" xsi:schemaLocation="http://www.topografix.com/GPX/1/1 http://www.topografix.com/GPX/1/1/gpx.xsd" version="1.1" creator="VisuGPX - https://www.visugpx.com">
  <metadata>
    <name>ESCAPADE-Pilat</name>
  </metadata>
  <trk>
    <name><![CDATA[13132979-Montaron Bonnefond cavaliers (version Chaussitre)]]></name>
    <extensions>
      <line xmlns="http://www.topografix.com/GPX/gpx_style/0/2">
        <color>0000FF</color>
        <width>4</width>
      </line>
    </extensions>
    <trkseg>
      <trkpt lat="45.29919" lon="4.42848">
        <ele>1102</ele>
        <time>2021-05-27T12:09:22Z</time>
      </trkpt>
      <trkpt lat="45.29872" lon="4.4285">
        <ele>1103</ele>
        <time>2021-05-27T12:10:00Z</time>
      </trkpt>
      <trkpt lat="45.29815" lon="4.42946">
        <ele>1108</ele>
        <time>2021-05-27T12:11:10Z</time>
      </trkpt>
      <trkpt lat="45.29709" lon="4.43082">
        <ele>1113</ele>
        <time>2021-05-27T12:13:05Z</time>
      </trkpt>
      <trkpt lat="45.29616" lon="4.43622">
        <ele>1123</ele>
        <time>2021-05-27T12:18:18Z</time>
      </trkpt>
      <trkpt lat="45.29629" lon="4.43691">
        <ele>1123</ele>
        <time>2021-05-27T12:18:58Z</time>
      </trkpt>
      <trkpt lat="45.29728" lon="4.43837">
        <ele>1132</ele>
        <time>2021-05-27T12:20:52Z</time>
      </trkpt>
      <trkpt lat="45.29792" lon="4.43878">
        <ele>1144</ele>
        <time>2021-05-27T12:21:49Z</time>
      </trkpt>
      <trkpt lat="45.29776" lon="4.44049">
        <ele>1147</ele>
        <time>2021-05-27T12:23:26Z</time>
      </trkpt>
      <trkpt lat="45.29826" lon="4.44185">
        <ele>1157</ele>
        <time>2021-05-27T12:24:52Z</time>
      </trkpt>
      <trkpt lat="45.29889" lon="4.44133">
        <ele>1171</ele>
        <time>2021-05-27T12:25:50Z</time>
      </trkpt>
      <trkpt lat="45.29924" lon="4.44101">
        <ele>1175</ele>
        <time>2021-05-27T12:26:24Z</time>
      </trkpt>
      <trkpt lat="45.29987" lon="4.44092">
        <ele>1181</ele>
        <time>2021-05-27T12:27:14Z</time>
      </trkpt>
      <trkpt lat="45.30031" lon="4.44139">
        <ele>1192</ele>
        <time>2021-05-27T12:27:59Z</time>
      </trkpt>
      <trkpt lat="45.30118" lon="4.44073">
        <ele>1195</ele>
        <time>2021-05-27T12:29:17Z</time>
      </trkpt>
      <trkpt lat="45.30207" lon="4.44182">
        <ele>1206</ele>
        <time>2021-05-27T12:30:52Z</time>
      </trkpt>
      <trkpt lat="45.30351" lon="4.4436">
        <ele>1218</ele>
        <time>2021-05-27T12:33:24Z</time>
      </trkpt>
      <trkpt lat="45.30444" lon="4.44425">
        <ele>1227</ele>
        <time>2021-05-27T12:34:47Z</time>
      </trkpt>
      <trkpt lat="45.30544" lon="4.44414">
        <ele>1230</ele>
        <time>2021-05-27T12:36:08Z</time>
      </trkpt>
      <trkpt lat="45.30638" lon="4.44472">
        <ele>1237</ele>
        <time>2021-05-27T12:37:30Z</time>
      </trkpt>
      <trkpt lat="45.30733" lon="4.44459">
        <ele>1238</ele>
        <time>2021-05-27T12:38:46Z</time>
      </trkpt>
      <trkpt lat="45.30773" lon="4.4438">
        <ele>1236</ele>
        <time>2021-05-27T12:39:41Z</time>
      </trkpt>
      <trkpt lat="45.30805" lon="4.44187">
        <ele>1225</ele>
        <time>2021-05-27T12:41:33Z</time>
      </trkpt>
      <trkpt lat="45.30808" lon="4.44041">
        <ele>1218</ele>
        <time>2021-05-27T12:42:55Z</time>
      </trkpt>
      <trkpt lat="45.30862" lon="4.44041">
        <ele>1214</ele>
        <time>2021-05-27T12:43:38Z</time>
      </trkpt>
      <trkpt lat="45.30903" lon="4.43987">
        <ele>1205</ele>
        <time>2021-05-27T12:44:23Z</time>
      </trkpt>
      <trkpt lat="45.30983" lon="4.43929">
        <ele>1186</ele>
        <time>2021-05-27T12:45:35Z</time>
      </trkpt>
      <trkpt lat="45.31044" lon="4.43893">
        <ele>1173</ele>
        <time>2021-05-27T12:46:28Z</time>
      </trkpt>
      <trkpt lat="45.31172" lon="4.43861">
        <ele>1151</ele>
        <time>2021-05-27T12:48:12Z</time>
      </trkpt>
      <trkpt lat="45.31223" lon="4.43837">
        <ele>1140</ele>
        <time>2021-05-27T12:48:55Z</time>
      </trkpt>
      <trkpt lat="45.31312" lon="4.43811">
        <ele>1125</ele>
        <time>2021-05-27T12:50:07Z</time>
      </trkpt>
      <trkpt lat="45.314" lon="4.43781">
        <ele>1113</ele>
        <time>2021-05-27T12:51:20Z</time>
      </trkpt>
      <trkpt lat="45.31472" lon="4.43779">
        <ele>1103</ele>
        <time>2021-05-27T12:52:17Z</time>
      </trkpt>
      <trkpt lat="45.31498" lon="4.43738">
        <ele>1098</ele>
        <time>2021-05-27T12:52:49Z</time>
      </trkpt>
      <trkpt lat="45.31566" lon="4.43758">
        <ele>1093</ele>
        <time>2021-05-27T12:53:44Z</time>
      </trkpt>
      <trkpt lat="45.31638" lon="4.43697">
        <ele>1082</ele>
        <time>2021-05-27T12:54:51Z</time>
      </trkpt>
      <trkpt lat="45.31698" lon="4.43605">
        <ele>1079</ele>
        <time>2021-05-27T12:56:02Z</time>
      </trkpt>
      <trkpt lat="45.31717" lon="4.43521">
        <ele>1076</ele>
        <time>2021-05-27T12:56:52Z</time>
      </trkpt>
      <trkpt lat="45.31698" lon="4.43399">
        <ele>1068</ele>
        <time>2021-05-27T12:58:02Z</time>
      </trkpt>
      <trkpt lat="45.31711" lon="4.43232">
        <ele>1057</ele>
        <time>2021-05-27T12:59:37Z</time>
      </trkpt>
      <trkpt lat="45.31698" lon="4.43097">
        <ele>1045</ele>
        <time>2021-05-27T13:00:53Z</time>
      </trkpt>
      <trkpt lat="45.31692" lon="4.42957">
        <ele>1038</ele>
        <time>2021-05-27T13:02:12Z</time>
      </trkpt>
      <trkpt lat="45.31555" lon="4.42749">
        <ele>1027</ele>
        <time>2021-05-27T13:04:53Z</time>
      </trkpt>
      <trkpt lat="45.31516" lon="4.4271">
        <ele>1022</ele>
        <time>2021-05-27T13:05:31Z</time>
      </trkpt>
      <trkpt lat="45.31472" lon="4.42691">
        <ele>1017</ele>
        <time>2021-05-27T13:06:08Z</time>
      </trkpt>
      <trkpt lat="45.31397" lon="4.42687">
        <ele>1011</ele>
        <time>2021-05-27T13:07:08Z</time>
      </trkpt>
      <trkpt lat="45.313" lon="4.4267">
        <ele>1002</ele>
        <time>2021-05-27T13:08:26Z</time>
      </trkpt>
      <trkpt lat="45.3121" lon="4.4262">
        <ele>994</ele>
        <time>2021-05-27T13:09:43Z</time>
      </trkpt>
      <trkpt lat="45.31151" lon="4.42537">
        <ele>990</ele>
        <time>2021-05-27T13:10:50Z</time>
      </trkpt>
      <trkpt lat="45.31122" lon="4.42444">
        <ele>987</ele>
        <time>2021-05-27T13:11:47Z</time>
      </trkpt>
      <trkpt lat="45.31122" lon="4.42369">
        <ele>987</ele>
        <time>2021-05-27T13:12:29Z</time>
      </trkpt>
      <trkpt lat="45.30994" lon="4.42187">
        <ele>986</ele>
        <time>2021-05-27T13:14:54Z</time>
      </trkpt>
      <trkpt lat="45.30974" lon="4.4211">
        <ele>988</ele>
        <time>2021-05-27T13:15:41Z</time>
      </trkpt>
      <trkpt lat="45.30988" lon="4.4205">
        <ele>992</ele>
        <time>2021-05-27T13:16:16Z</time>
      </trkpt>
      <trkpt lat="45.31062" lon="4.41987">
        <ele>997</ele>
        <time>2021-05-27T13:17:25Z</time>
      </trkpt>
      <trkpt lat="45.31134" lon="4.41916">
        <ele>1002</ele>
        <time>2021-05-27T13:18:35Z</time>
      </trkpt>
      <trkpt lat="45.3117" lon="4.41844">
        <ele>1004</ele>
        <time>2021-05-27T13:19:25Z</time>
      </trkpt>
      <trkpt lat="45.31223" lon="4.41764">
        <ele>1005</ele>
        <time>2021-05-27T13:20:27Z</time>
      </trkpt>
      <trkpt lat="45.31287" lon="4.41676">
        <ele>1006</ele>
        <time>2021-05-27T13:21:38Z</time>
      </trkpt>
      <trkpt lat="45.31315" lon="4.41635">
        <ele>1007</ele>
        <time>2021-05-27T13:22:10Z</time>
      </trkpt>
      <trkpt lat="45.31324" lon="4.4153">
        <ele>1009</ele>
        <time>2021-05-27T13:23:10Z</time>
      </trkpt>
      <trkpt lat="45.31327" lon="4.41329">
        <ele>1015</ele>
        <time>2021-05-27T13:25:03Z</time>
      </trkpt>
      <trkpt lat="45.31405" lon="4.41359">
        <ele>1017</ele>
        <time>2021-05-27T13:26:08Z</time>
      </trkpt>
      <trkpt lat="45.31605" lon="4.41459">
        <ele>1013</ele>
        <time>2021-05-27T13:28:58Z</time>
      </trkpt>
      <trkpt lat="45.31774" lon="4.41456">
        <ele>1013</ele>
        <time>2021-05-27T13:31:13Z</time>
      </trkpt>
      <trkpt lat="45.31878" lon="4.41431">
        <ele>1006</ele>
        <time>2021-05-27T13:32:37Z</time>
      </trkpt>
      <trkpt lat="45.31977" lon="4.4145">
        <ele>999</ele>
        <time>2021-05-27T13:33:57Z</time>
      </trkpt>
      <trkpt lat="45.32056" lon="4.4141">
        <ele>1010</ele>
        <time>2021-05-27T13:35:05Z</time>
      </trkpt>
      <trkpt lat="45.32152" lon="4.41298">
        <ele>1016</ele>
        <time>2021-05-27T13:36:44Z</time>
      </trkpt>
      <trkpt lat="45.32248" lon="4.41137">
        <ele>1012</ele>
        <time>2021-05-27T13:38:43Z</time>
      </trkpt>
      <trkpt lat="45.32331" lon="4.41222">
        <ele>1020</ele>
        <time>2021-05-27T13:40:05Z</time>
      </trkpt>
      <trkpt lat="45.32442" lon="4.4135">
        <ele>1003</ele>
        <time>2021-05-27T13:41:59Z</time>
      </trkpt>
      <trkpt lat="45.32463" lon="4.41456">
        <ele>992</ele>
        <time>2021-05-27T13:43:01Z</time>
      </trkpt>
      <trkpt lat="45.32553" lon="4.41656">
        <ele>970</ele>
        <time>2021-05-27T13:45:15Z</time>
      </trkpt>
      <trkpt lat="45.32621" lon="4.41777">
        <ele>956</ele>
        <time>2021-05-27T13:46:42Z</time>
      </trkpt>
      <trkpt lat="45.32664" lon="4.41838">
        <ele>941</ele>
        <time>2021-05-27T13:47:31Z</time>
      </trkpt>
      <trkpt lat="45.32666" lon="4.41747">
        <ele>951</ele>
        <time>2021-05-27T13:48:22Z</time>
      </trkpt>
      <trkpt lat="45.32687" lon="4.41665">
        <ele>948</ele>
        <time>2021-05-27T13:49:11Z</time>
      </trkpt>
      <trkpt lat="45.32755" lon="4.41501">
        <ele>951</ele>
        <time>2021-05-27T13:50:58Z</time>
      </trkpt>
      <trkpt lat="45.32817" lon="4.41331">
        <ele>943</ele>
        <time>2021-05-27T13:52:46Z</time>
      </trkpt>
      <trkpt lat="45.32871" lon="4.41243">
        <ele>947</ele>
        <time>2021-05-27T13:53:52Z</time>
      </trkpt>
      <trkpt lat="45.32982" lon="4.41131">
        <ele>939</ele>
        <time>2021-05-27T13:55:41Z</time>
      </trkpt>
      <trkpt lat="45.32964" lon="4.41046">
        <ele>951</ele>
        <time>2021-05-27T13:56:31Z</time>
      </trkpt>
      <trkpt lat="45.33039" lon="4.40976">
        <ele>941</ele>
        <time>2021-05-27T13:57:42Z</time>
      </trkpt>
      <trkpt lat="45.33052" lon="4.40849">
        <ele>948</ele>
        <time>2021-05-27T13:58:55Z</time>
      </trkpt>
      <trkpt lat="45.3306" lon="4.40694">
        <ele>951</ele>
        <time>2021-05-27T14:00:22Z</time>
      </trkpt>
      <trkpt lat="45.33114" lon="4.40597">
        <ele>935</ele>
        <time>2021-05-27T14:01:32Z</time>
      </trkpt>
      <trkpt lat="45.33107" lon="4.40445">
        <ele>926</ele>
        <time>2021-05-27T14:02:58Z</time>
      </trkpt>
      <trkpt lat="45.3313" lon="4.40415">
        <ele>927</ele>
        <time>2021-05-27T14:03:23Z</time>
      </trkpt>
      <trkpt lat="45.33053" lon="4.40276">
        <ele>921</ele>
        <time>2021-05-27T14:05:02Z</time>
      </trkpt>
      <trkpt lat="45.33048" lon="4.4024">
        <ele>920</ele>
        <time>2021-05-27T14:05:23Z</time>
      </trkpt>
      <trkpt lat="45.33052" lon="4.4018">
        <ele>921</ele>
        <time>2021-05-27T14:05:57Z</time>
      </trkpt>
      <trkpt lat="45.33038" lon="4.40079">
        <ele>922</ele>
        <time>2021-05-27T14:06:55Z</time>
      </trkpt>
      <trkpt lat="45.33056" lon="4.39949">
        <ele>927</ele>
        <time>2021-05-27T14:08:09Z</time>
      </trkpt>
      <trkpt lat="45.33232" lon="4.39794">
        <ele>922</ele>
        <time>2021-05-27T14:10:55Z</time>
      </trkpt>
      <trkpt lat="45.33296" lon="4.39785">
        <ele>923</ele>
        <time>2021-05-27T14:11:47Z</time>
      </trkpt>
      <trkpt lat="45.33341" lon="4.398">
        <ele>926</ele>
        <time>2021-05-27T14:12:24Z</time>
      </trkpt>
      <trkpt lat="45.33443" lon="4.39695">
        <ele>924</ele>
        <time>2021-05-27T14:14:04Z</time>
      </trkpt>
      <trkpt lat="45.33482" lon="4.40034">
        <ele>964</ele>
        <time>2021-05-27T14:17:18Z</time>
      </trkpt>
      <trkpt lat="45.33561" lon="4.40092">
        <ele>969</ele>
        <time>2021-05-27T14:18:29Z</time>
      </trkpt>
      <trkpt lat="45.33586" lon="4.40119">
        <ele>968</ele>
        <time>2021-05-27T14:18:54Z</time>
      </trkpt>
      <trkpt lat="45.3369" lon="4.40045">
        <ele>972</ele>
        <time>2021-05-27T14:20:27Z</time>
      </trkpt>
      <trkpt lat="45.33793" lon="4.4002">
        <ele>973</ele>
        <time>2021-05-27T14:21:51Z</time>
      </trkpt>
      <trkpt lat="45.3387" lon="4.40061">
        <ele>980</ele>
        <time>2021-05-27T14:22:57Z</time>
      </trkpt>
      <trkpt lat="45.33938" lon="4.40164">
        <ele>994</ele>
        <time>2021-05-27T14:24:16Z</time>
      </trkpt>
      <trkpt lat="45.33977" lon="4.40164">
        <ele>996</ele>
        <time>2021-05-27T14:24:47Z</time>
      </trkpt>
      <trkpt lat="45.34053" lon="4.40139">
        <ele>999</ele>
        <time>2021-05-27T14:25:50Z</time>
      </trkpt>
      <trkpt lat="45.34248" lon="4.40287">
        <ele>1008</ele>
        <time>2021-05-27T14:28:47Z</time>
      </trkpt>
      <trkpt lat="45.34327" lon="4.40332">
        <ele>1017</ele>
        <time>2021-05-27T14:29:55Z</time>
      </trkpt>
      <trkpt lat="45.34441" lon="4.404">
        <ele>1018</ele>
        <time>2021-05-27T14:31:34Z</time>
      </trkpt>
      <trkpt lat="45.34462" lon="4.40242">
        <ele>1023</ele>
        <time>2021-05-27T14:33:04Z</time>
      </trkpt>
      <trkpt lat="45.3448" lon="4.40175">
        <ele>1024</ele>
        <time>2021-05-27T14:33:45Z</time>
      </trkpt>
      <trkpt lat="45.34505" lon="4.40081">
        <ele>1023</ele>
        <time>2021-05-27T14:34:41Z</time>
      </trkpt>
      <trkpt lat="45.34552" lon="4.39989">
        <ele>1018</ele>
        <time>2021-05-27T14:35:45Z</time>
      </trkpt>
      <trkpt lat="45.3464" lon="4.39851">
        <ele>1008</ele>
        <time>2021-05-27T14:37:30Z</time>
      </trkpt>
      <trkpt lat="45.3471" lon="4.39708">
        <ele>1003</ele>
        <time>2021-05-27T14:39:08Z</time>
      </trkpt>
      <trkpt lat="45.34776" lon="4.39614">
        <ele>996</ele>
        <time>2021-05-27T14:40:23Z</time>
      </trkpt>
      <trkpt lat="45.3483" lon="4.39504">
        <ele>990</ele>
        <time>2021-05-27T14:41:38Z</time>
      </trkpt>
      <trkpt lat="45.34884" lon="4.39392">
        <ele>983</ele>
        <time>2021-05-27T14:42:55Z</time>
      </trkpt>
      <trkpt lat="45.34959" lon="4.39313">
        <ele>978</ele>
        <time>2021-05-27T14:44:10Z</time>
      </trkpt>
      <trkpt lat="45.34995" lon="4.39349">
        <ele>976</ele>
        <time>2021-05-27T14:44:45Z</time>
      </trkpt>
      <trkpt lat="45.3499" lon="4.39423">
        <ele>973</ele>
        <time>2021-05-27T14:45:27Z</time>
      </trkpt>
      <trkpt lat="45.34976" lon="4.39549">
        <ele>975</ele>
        <time>2021-05-27T14:46:38Z</time>
      </trkpt>
      <trkpt lat="45.35012" lon="4.39549">
        <ele>972</ele>
        <time>2021-05-27T14:47:07Z</time>
      </trkpt>
      <trkpt lat="45.35062" lon="4.39516">
        <ele>968</ele>
        <time>2021-05-27T14:47:51Z</time>
      </trkpt>
      <trkpt lat="45.35173" lon="4.39451">
        <ele>961</ele>
        <time>2021-05-27T14:49:28Z</time>
      </trkpt>
      <trkpt lat="45.35234" lon="4.39374">
        <ele>959</ele>
        <time>2021-05-27T14:50:33Z</time>
      </trkpt>
      <trkpt lat="45.3535" lon="4.39372">
        <ele>969</ele>
        <time>2021-05-27T14:52:06Z</time>
      </trkpt>
      <trkpt lat="45.35407" lon="4.39374">
        <ele>967</ele>
        <time>2021-05-27T14:52:51Z</time>
      </trkpt>
      <trkpt lat="45.35496" lon="4.39294">
        <ele>966</ele>
        <time>2021-05-27T14:54:16Z</time>
      </trkpt>
      <trkpt lat="45.35613" lon="4.39152">
        <ele>968</ele>
        <time>2021-05-27T14:56:19Z</time>
      </trkpt>
      <trkpt lat="45.35671" lon="4.39154">
        <ele>964</ele>
        <time>2021-05-27T14:57:05Z</time>
      </trkpt>
      <trkpt lat="45.35794" lon="4.39146">
        <ele>963</ele>
        <time>2021-05-27T14:58:44Z</time>
      </trkpt>
      <trkpt lat="45.35906" lon="4.39197">
        <ele>961</ele>
        <time>2021-05-27T15:00:18Z</time>
      </trkpt>
      <trkpt lat="45.36013" lon="4.3922">
        <ele>952</ele>
        <time>2021-05-27T15:01:45Z</time>
      </trkpt>
      <trkpt lat="45.36073" lon="4.39211">
        <ele>946</ele>
        <time>2021-05-27T15:02:33Z</time>
      </trkpt>
      <trkpt lat="45.36159" lon="4.39161">
        <ele>938</ele>
        <time>2021-05-27T15:03:47Z</time>
      </trkpt>
      <trkpt lat="45.36205" lon="4.39237">
        <ele>944</ele>
        <time>2021-05-27T15:04:44Z</time>
      </trkpt>
      <trkpt lat="45.36252" lon="4.39332">
        <ele>942</ele>
        <time>2021-05-27T15:05:49Z</time>
      </trkpt>
      <trkpt lat="45.363" lon="4.39459">
        <ele>929</ele>
        <time>2021-05-27T15:07:10Z</time>
      </trkpt>
      <trkpt lat="45.36296" lon="4.39538">
        <ele>923</ele>
        <time>2021-05-27T15:07:55Z</time>
      </trkpt>
      <trkpt lat="45.36316" lon="4.39648">
        <ele>908</ele>
        <time>2021-05-27T15:08:59Z</time>
      </trkpt>
      <trkpt lat="45.3613" lon="4.39682">
        <ele>912</ele>
        <time>2021-05-27T15:11:29Z</time>
      </trkpt>
      <trkpt lat="45.36036" lon="4.39664">
        <ele>912</ele>
        <time>2021-05-27T15:12:45Z</time>
      </trkpt>
      <trkpt lat="45.3602" lon="4.39677">
        <ele>909</ele>
        <time>2021-05-27T15:13:00Z</time>
      </trkpt>
      <trkpt lat="45.36051" lon="4.39693">
        <ele>908</ele>
        <time>2021-05-27T15:13:26Z</time>
      </trkpt>
      <trkpt lat="45.36108" lon="4.39718">
        <ele>905</ele>
        <time>2021-05-27T15:14:14Z</time>
      </trkpt>
      <trkpt lat="45.36141" lon="4.39751">
        <ele>900</ele>
        <time>2021-05-27T15:14:46Z</time>
      </trkpt>
      <trkpt lat="45.36196" lon="4.39796">
        <ele>894</ele>
        <time>2021-05-27T15:15:37Z</time>
      </trkpt>
      <trkpt lat="45.36257" lon="4.39848">
        <ele>887</ele>
        <time>2021-05-27T15:16:34Z</time>
      </trkpt>
      <trkpt lat="45.36313" lon="4.39924">
        <ele>883</ele>
        <time>2021-05-27T15:17:36Z</time>
      </trkpt>
      <trkpt lat="45.36386" lon="4.40002">
        <ele>873</ele>
        <time>2021-05-27T15:18:49Z</time>
      </trkpt>
      <trkpt lat="45.36441" lon="4.39993">
        <ele>871</ele>
        <time>2021-05-27T15:19:33Z</time>
      </trkpt>
      <trkpt lat="45.36494" lon="4.39917">
        <ele>874</ele>
        <time>2021-05-27T15:20:33Z</time>
      </trkpt>
      <trkpt lat="45.36532" lon="4.3985">
        <ele>879</ele>
        <time>2021-05-27T15:21:22Z</time>
      </trkpt>
      <trkpt lat="45.3657" lon="4.39895">
        <ele>864</ele>
        <time>2021-05-27T15:22:01Z</time>
      </trkpt>
      <trkpt lat="45.36616" lon="4.39958">
        <ele>849</ele>
        <time>2021-05-27T15:22:52Z</time>
      </trkpt>
      <trkpt lat="45.3669" lon="4.39975">
        <ele>838</ele>
        <time>2021-05-27T15:23:52Z</time>
      </trkpt>
      <trkpt lat="45.3674" lon="4.39939">
        <ele>837</ele>
        <time>2021-05-27T15:24:37Z</time>
      </trkpt>
      <trkpt lat="45.3677" lon="4.3983">
        <ele>845</ele>
        <time>2021-05-27T15:25:43Z</time>
      </trkpt>
      <trkpt lat="45.36798" lon="4.39673">
        <ele>859</ele>
        <time>2021-05-27T15:27:14Z</time>
      </trkpt>
      <trkpt lat="45.36774" lon="4.39515">
        <ele>877</ele>
        <time>2021-05-27T15:28:45Z</time>
      </trkpt>
      <trkpt lat="45.36746" lon="4.3941">
        <ele>880</ele>
        <time>2021-05-27T15:29:48Z</time>
      </trkpt>
      <trkpt lat="45.36761" lon="4.39273">
        <ele>868</ele>
        <time>2021-05-27T15:31:06Z</time>
      </trkpt>
      <trkpt lat="45.36744" lon="4.39215">
        <ele>866</ele>
        <time>2021-05-27T15:31:42Z</time>
      </trkpt>
      <trkpt lat="45.36711" lon="4.39152">
        <ele>873</ele>
        <time>2021-05-27T15:32:26Z</time>
      </trkpt>
      <trkpt lat="45.36777" lon="4.39009">
        <ele>877</ele>
        <time>2021-05-27T15:34:02Z</time>
      </trkpt>
      <trkpt lat="45.36831" lon="4.38901">
        <ele>881</ele>
        <time>2021-05-27T15:35:17Z</time>
      </trkpt>
      <trkpt lat="45.36841" lon="4.38854">
        <ele>885</ele>
        <time>2021-05-27T15:35:44Z</time>
      </trkpt>
      <trkpt lat="45.36831" lon="4.38789">
        <ele>889</ele>
        <time>2021-05-27T15:36:22Z</time>
      </trkpt>
      <trkpt lat="45.36818" lon="4.38768">
        <ele>891</ele>
        <time>2021-05-27T15:36:38Z</time>
      </trkpt>
      <trkpt lat="45.36789" lon="4.38688">
        <ele>895</ele>
        <time>2021-05-27T15:37:28Z</time>
      </trkpt>
      <trkpt lat="45.36732" lon="4.38641">
        <ele>898</ele>
        <time>2021-05-27T15:38:21Z</time>
      </trkpt>
      <trkpt lat="45.36657" lon="4.38549">
        <ele>894</ele>
        <time>2021-05-27T15:39:40Z</time>
      </trkpt>
      <trkpt lat="45.36609" lon="4.3849">
        <ele>887</ele>
        <time>2021-05-27T15:40:31Z</time>
      </trkpt>
      <trkpt lat="45.36567" lon="4.38501">
        <ele>888</ele>
        <time>2021-05-27T15:41:05Z</time>
      </trkpt>
      <trkpt lat="45.36503" lon="4.38466">
        <ele>883</ele>
        <time>2021-05-27T15:42:00Z</time>
      </trkpt>
      <trkpt lat="45.36442" lon="4.38396">
        <ele>879</ele>
        <time>2021-05-27T15:43:03Z</time>
      </trkpt>
      <trkpt lat="45.36409" lon="4.38286">
        <ele>876</ele>
        <time>2021-05-27T15:44:10Z</time>
      </trkpt>
      <trkpt lat="45.36378" lon="4.38235">
        <ele>875</ele>
        <time>2021-05-27T15:44:48Z</time>
      </trkpt>
      <trkpt lat="45.36345" lon="4.38089">
        <ele>886</ele>
        <time>2021-05-27T15:46:14Z</time>
      </trkpt>
      <trkpt lat="45.3639" lon="4.38022">
        <ele>882</ele>
        <time>2021-05-27T15:47:06Z</time>
      </trkpt>
      <trkpt lat="45.36453" lon="4.37992">
        <ele>878</ele>
        <time>2021-05-27T15:48:00Z</time>
      </trkpt>
      <trkpt lat="45.36512" lon="4.37961">
        <ele>876</ele>
        <time>2021-05-27T15:48:50Z</time>
      </trkpt>
      <trkpt lat="45.36581" lon="4.37932">
        <ele>873</ele>
        <time>2021-05-27T15:49:48Z</time>
      </trkpt>
      <trkpt lat="45.36666" lon="4.37905">
        <ele>870</ele>
        <time>2021-05-27T15:50:57Z</time>
      </trkpt>
      <trkpt lat="45.36754" lon="4.37885">
        <ele>865</ele>
        <time>2021-05-27T15:52:09Z</time>
      </trkpt>
      <trkpt lat="45.36787" lon="4.37817">
        <ele>866</ele>
        <time>2021-05-27T15:52:55Z</time>
      </trkpt>
      <trkpt lat="45.36789" lon="4.37732">
        <ele>871</ele>
        <time>2021-05-27T15:53:43Z</time>
      </trkpt>
      <trkpt lat="45.36851" lon="4.37678">
        <ele>871</ele>
        <time>2021-05-27T15:54:41Z</time>
      </trkpt>
      <trkpt lat="45.36964" lon="4.3766">
        <ele>874</ele>
        <time>2021-05-27T15:56:12Z</time>
      </trkpt>
      <trkpt lat="45.37088" lon="4.37607">
        <ele>880</ele>
        <time>2021-05-27T15:57:56Z</time>
      </trkpt>
      <trkpt lat="45.37166" lon="4.37559">
        <ele>883</ele>
        <time>2021-05-27T15:59:04Z</time>
      </trkpt>
      <trkpt lat="45.37239" lon="4.37461">
        <ele>879</ele>
        <time>2021-05-27T16:00:24Z</time>
      </trkpt>
      <trkpt lat="45.37291" lon="4.37384">
        <ele>872</ele>
        <time>2021-05-27T16:01:24Z</time>
      </trkpt>
      <trkpt lat="45.37338" lon="4.37358">
        <ele>869</ele>
        <time>2021-05-27T16:02:05Z</time>
      </trkpt>
      <trkpt lat="45.37366" lon="4.37322">
        <ele>869</ele>
        <time>2021-05-27T16:02:35Z</time>
      </trkpt>
      <trkpt lat="45.37403" lon="4.37243">
        <ele>872</ele>
        <time>2021-05-27T16:03:28Z</time>
      </trkpt>
      <trkpt lat="45.37452" lon="4.37286">
        <ele>870</ele>
        <time>2021-05-27T16:04:14Z</time>
      </trkpt>
      <trkpt lat="45.37537" lon="4.37313">
        <ele>864</ele>
        <time>2021-05-27T16:05:24Z</time>
      </trkpt>
      <trkpt lat="45.37663" lon="4.37306">
        <ele>854</ele>
        <time>2021-05-27T16:07:05Z</time>
      </trkpt>
      <trkpt lat="45.37768" lon="4.3723">
        <ele>857</ele>
        <time>2021-05-27T16:08:40Z</time>
      </trkpt>
      <trkpt lat="45.37849" lon="4.37171">
        <ele>863</ele>
        <time>2021-05-27T16:09:52Z</time>
      </trkpt>
      <trkpt lat="45.37935" lon="4.3708">
        <ele>865</ele>
        <time>2021-05-27T16:11:18Z</time>
      </trkpt>
      <trkpt lat="45.38016" lon="4.36864">
        <ele>852</ele>
        <time>2021-05-27T16:13:36Z</time>
      </trkpt>
      <trkpt lat="45.38066" lon="4.3688">
        <ele>852</ele>
        <time>2021-05-27T16:14:17Z</time>
      </trkpt>
      <trkpt lat="45.3812" lon="4.36826">
        <ele>848</ele>
        <time>2021-05-27T16:15:10Z</time>
      </trkpt>
      <trkpt lat="45.38172" lon="4.36795">
        <ele>843</ele>
        <time>2021-05-27T16:15:55Z</time>
      </trkpt>
    </trkseg>
  </trk>
  <trk>
    <name><![CDATA[2 bonnefond barbanche equestre 16.7]]></name>
    <extensions>
      <line xmlns="http://www.topografix.com/GPX/gpx_style/0/2">
        <color>0000FF</color>
        <width>4</width>
      </line>
    </extensions>
    <trkseg>
      <trkpt lat="45.38077" lon="4.36739">
        <ele>842.37109375</ele>
      </trkpt>
      <trkpt lat="45.3806" lon="4.36738">
        <ele>843.328125</ele>
      </trkpt>
      <trkpt lat="45.38028" lon="4.36763">
        <ele>848.359375</ele>
      </trkpt>
      <trkpt lat="45.3802" lon="4.36767">
        <ele>849.23828125</ele>
      </trkpt>
      <trkpt lat="45.38013" lon="4.36767">
        <ele>849.7265625</ele>
      </trkpt>
      <trkpt lat="45.37996" lon="4.36758">
        <ele>851.140625</ele>
      </trkpt>
      <trkpt lat="45.37989" lon="4.36756">
        <ele>851.88671875</ele>
      </trkpt>
      <trkpt lat="45.37982" lon="4.3676">
        <ele>852.75390625</ele>
      </trkpt>
      <trkpt lat="45.37968" lon="4.36771">
        <ele>854.54296875</ele>
      </trkpt>
      <trkpt lat="45.37954" lon="4.36781">
        <ele>856.10546875</ele>
      </trkpt>
      <trkpt lat="45.37948" lon="4.36782">
        <ele>856.70703125</ele>
      </trkpt>
      <trkpt lat="45.37955" lon="4.36789">
        <ele>856.1640625</ele>
      </trkpt>
      <trkpt lat="45.37969" lon="4.36809">
        <ele>855.33203125</ele>
      </trkpt>
      <trkpt lat="45.37979" lon="4.3682">
        <ele>854.81640625</ele>
      </trkpt>
      <trkpt lat="45.37997" lon="4.36841">
        <ele>853.98828125</ele>
      </trkpt>
      <trkpt lat="45.38005" lon="4.36847">
        <ele>853.65234375</ele>
      </trkpt>
      <trkpt lat="45.38019" lon="4.36858">
        <ele>853.2265625</ele>
      </trkpt>
      <trkpt lat="45.38005" lon="4.36889">
        <ele>855.05078125</ele>
      </trkpt>
      <trkpt lat="45.37978" lon="4.36962">
        <ele>856.8828125</ele>
      </trkpt>
      <trkpt lat="45.37961" lon="4.37008">
        <ele>857.8125</ele>
      </trkpt>
      <trkpt lat="45.37939" lon="4.37067">
        <ele>858.6171875</ele>
      </trkpt>
      <trkpt lat="45.37932" lon="4.37082">
        <ele>858.62890625</ele>
      </trkpt>
      <trkpt lat="45.37861" lon="4.3716">
        <ele>858.2109375</ele>
      </trkpt>
      <trkpt lat="45.37846" lon="4.37175">
        <ele>857.30859375</ele>
      </trkpt>
      <trkpt lat="45.37827" lon="4.3719">
        <ele>856.69921875</ele>
      </trkpt>
      <trkpt lat="45.37777" lon="4.37225">
        <ele>854.84375</ele>
      </trkpt>
      <trkpt lat="45.37731" lon="4.37257">
        <ele>854.05859375</ele>
      </trkpt>
      <trkpt lat="45.37702" lon="4.37276">
        <ele>854.62109375</ele>
      </trkpt>
      <trkpt lat="45.37679" lon="4.37296">
        <ele>854.68359375</ele>
      </trkpt>
      <trkpt lat="45.37663" lon="4.37306">
        <ele>853.4296875</ele>
      </trkpt>
      <trkpt lat="45.37655" lon="4.37307">
        <ele>853.69140625</ele>
      </trkpt>
      <trkpt lat="45.37625" lon="4.3731">
        <ele>855.17578125</ele>
      </trkpt>
      <trkpt lat="45.37572" lon="4.37312">
        <ele>859.96875</ele>
      </trkpt>
      <trkpt lat="45.37538" lon="4.37311">
        <ele>862.17578125</ele>
      </trkpt>
      <trkpt lat="45.37505" lon="4.37306">
        <ele>864.35546875</ele>
      </trkpt>
      <trkpt lat="45.37486" lon="4.373">
        <ele>865.55078125</ele>
      </trkpt>
      <trkpt lat="45.37468" lon="4.37292">
        <ele>866.6171875</ele>
      </trkpt>
      <trkpt lat="45.37451" lon="4.37283">
        <ele>867.3203125</ele>
      </trkpt>
      <trkpt lat="45.37443" lon="4.37276">
        <ele>867.53125</ele>
      </trkpt>
      <trkpt lat="45.37404" lon="4.3724">
        <ele>867.87109375</ele>
      </trkpt>
      <trkpt lat="45.37403" lon="4.37248">
        <ele>867.50390625</ele>
      </trkpt>
      <trkpt lat="45.37402" lon="4.37257">
        <ele>867.15625</ele>
      </trkpt>
      <trkpt lat="45.374" lon="4.37264">
        <ele>866.87890625</ele>
      </trkpt>
      <trkpt lat="45.37391" lon="4.37283">
        <ele>866.51171875</ele>
      </trkpt>
      <trkpt lat="45.37388" lon="4.3729">
        <ele>866.50390625</ele>
      </trkpt>
      <trkpt lat="45.37383" lon="4.37299">
        <ele>866.65234375</ele>
      </trkpt>
      <trkpt lat="45.37377" lon="4.37306">
        <ele>866.8671875</ele>
      </trkpt>
      <trkpt lat="45.37362" lon="4.37321">
        <ele>867.6953125</ele>
      </trkpt>
      <trkpt lat="45.37357" lon="4.37326">
        <ele>868.046875</ele>
      </trkpt>
      <trkpt lat="45.3735" lon="4.37332">
        <ele>868.53125</ele>
      </trkpt>
      <trkpt lat="45.37347" lon="4.37336">
        <ele>868.8125</ele>
      </trkpt>
      <trkpt lat="45.37341" lon="4.37348">
        <ele>869.55859375</ele>
      </trkpt>
      <trkpt lat="45.37336" lon="4.37354">
        <ele>870.08203125</ele>
      </trkpt>
      <trkpt lat="45.37318" lon="4.37365">
        <ele>871.984375</ele>
      </trkpt>
      <trkpt lat="45.37299" lon="4.37376">
        <ele>874.0546875</ele>
      </trkpt>
      <trkpt lat="45.37287" lon="4.37392">
        <ele>875.85546875</ele>
      </trkpt>
      <trkpt lat="45.37274" lon="4.37407">
        <ele>877.46875</ele>
      </trkpt>
      <trkpt lat="45.37263" lon="4.37425">
        <ele>878.8984375</ele>
      </trkpt>
      <trkpt lat="45.37227" lon="4.37479">
        <ele>881.890625</ele>
      </trkpt>
      <trkpt lat="45.37214" lon="4.37498">
        <ele>882.00390625</ele>
      </trkpt>
      <trkpt lat="45.37177" lon="4.37546">
        <ele>881.8125</ele>
      </trkpt>
      <trkpt lat="45.37162" lon="4.37562">
        <ele>881.24609375</ele>
      </trkpt>
      <trkpt lat="45.37145" lon="4.37576">
        <ele>880.203125</ele>
      </trkpt>
      <trkpt lat="45.37126" lon="4.37589">
        <ele>879.04296875</ele>
      </trkpt>
      <trkpt lat="45.37107" lon="4.37598">
        <ele>878.3125</ele>
      </trkpt>
      <trkpt lat="45.37086" lon="4.37609">
        <ele>877.375</ele>
      </trkpt>
      <trkpt lat="45.37062" lon="4.37621">
        <ele>876.17578125</ele>
      </trkpt>
      <trkpt lat="45.37047" lon="4.37627">
        <ele>875.078125</ele>
      </trkpt>
      <trkpt lat="45.37027" lon="4.37634">
        <ele>873.921875</ele>
      </trkpt>
      <trkpt lat="45.37011" lon="4.37639">
        <ele>873.02734375</ele>
      </trkpt>
      <trkpt lat="45.36975" lon="4.37653">
        <ele>871.2578125</ele>
      </trkpt>
      <trkpt lat="45.36969" lon="4.37655">
        <ele>870.9921875</ele>
      </trkpt>
      <trkpt lat="45.36957" lon="4.3766">
        <ele>870.46484375</ele>
      </trkpt>
      <trkpt lat="45.36939" lon="4.37666">
        <ele>869.07421875</ele>
      </trkpt>
      <trkpt lat="45.36921" lon="4.3767">
        <ele>867.796875</ele>
      </trkpt>
      <trkpt lat="45.36914" lon="4.37672">
        <ele>867.21875</ele>
      </trkpt>
      <trkpt lat="45.36897" lon="4.37672">
        <ele>867.09765625</ele>
      </trkpt>
      <trkpt lat="45.36887" lon="4.37674">
        <ele>867.2890625</ele>
      </trkpt>
      <trkpt lat="45.3685" lon="4.37678">
        <ele>868.8359375</ele>
      </trkpt>
      <trkpt lat="45.36843" lon="4.37681">
        <ele>869.015625</ele>
      </trkpt>
      <trkpt lat="45.36836" lon="4.37685">
        <ele>869.1171875</ele>
      </trkpt>
      <trkpt lat="45.36814" lon="4.377">
        <ele>869.89453125</ele>
      </trkpt>
      <trkpt lat="45.36789" lon="4.37725">
        <ele>871.265625</ele>
      </trkpt>
      <trkpt lat="45.36792" lon="4.37735">
        <ele>870.8046875</ele>
      </trkpt>
      <trkpt lat="45.36794" lon="4.37757">
        <ele>869.90234375</ele>
      </trkpt>
      <trkpt lat="45.36792" lon="4.37775">
        <ele>869.36328125</ele>
      </trkpt>
      <trkpt lat="45.3679" lon="4.37796">
        <ele>868.71875</ele>
      </trkpt>
      <trkpt lat="45.36786" lon="4.37818">
        <ele>867.859375</ele>
      </trkpt>
      <trkpt lat="45.36781" lon="4.3784">
        <ele>867.2109375</ele>
      </trkpt>
      <trkpt lat="45.3677" lon="4.37865">
        <ele>865.671875</ele>
      </trkpt>
      <trkpt lat="45.36758" lon="4.37877">
        <ele>865.45703125</ele>
      </trkpt>
      <trkpt lat="45.3675" lon="4.37886">
        <ele>865.3046875</ele>
      </trkpt>
      <trkpt lat="45.36732" lon="4.37894">
        <ele>865.734375</ele>
      </trkpt>
      <trkpt lat="45.36721" lon="4.37899">
        <ele>865.6953125</ele>
      </trkpt>
      <trkpt lat="45.36703" lon="4.37901">
        <ele>866.0625</ele>
      </trkpt>
      <trkpt lat="45.36673" lon="4.37897">
        <ele>867.51171875</ele>
      </trkpt>
      <trkpt lat="45.36666" lon="4.379">
        <ele>867.55078125</ele>
      </trkpt>
      <trkpt lat="45.36657" lon="4.37905">
        <ele>867.2265625</ele>
      </trkpt>
      <trkpt lat="45.36641" lon="4.37913">
        <ele>866.98046875</ele>
      </trkpt>
      <trkpt lat="45.36635" lon="4.37917">
        <ele>866.76171875</ele>
      </trkpt>
      <trkpt lat="45.3662" lon="4.37925">
        <ele>866.74609375</ele>
      </trkpt>
      <trkpt lat="45.36614" lon="4.37928">
        <ele>867.05078125</ele>
      </trkpt>
      <trkpt lat="45.36595" lon="4.37928">
        <ele>868.9609375</ele>
      </trkpt>
      <trkpt lat="45.36569" lon="4.37931">
        <ele>871.22265625</ele>
      </trkpt>
      <trkpt lat="45.36527" lon="4.37944">
        <ele>873.078125</ele>
      </trkpt>
      <trkpt lat="45.3652" lon="4.3795">
        <ele>873.0390625</ele>
      </trkpt>
      <trkpt lat="45.36517" lon="4.37955">
        <ele>872.7890625</ele>
      </trkpt>
      <trkpt lat="45.36512" lon="4.37962">
        <ele>872.42578125</ele>
      </trkpt>
      <trkpt lat="45.36492" lon="4.37976">
        <ele>872.75390625</ele>
      </trkpt>
      <trkpt lat="45.36473" lon="4.37982">
        <ele>873.796875</ele>
      </trkpt>
      <trkpt lat="45.36459" lon="4.37989">
        <ele>874.359375</ele>
      </trkpt>
      <trkpt lat="45.36416" lon="4.38005">
        <ele>877.83984375</ele>
      </trkpt>
      <trkpt lat="45.36408" lon="4.38009">
        <ele>878.43359375</ele>
      </trkpt>
      <trkpt lat="45.36394" lon="4.3802">
        <ele>880.0625</ele>
      </trkpt>
      <trkpt lat="45.36388" lon="4.38027">
        <ele>880.91015625</ele>
      </trkpt>
      <trkpt lat="45.36375" lon="4.38048">
        <ele>882.6484375</ele>
      </trkpt>
      <trkpt lat="45.36357" lon="4.38075">
        <ele>885.0234375</ele>
      </trkpt>
      <trkpt lat="45.36345" lon="4.38087">
        <ele>886.125</ele>
      </trkpt>
      <trkpt lat="45.36339" lon="4.38097">
        <ele>886.34375</ele>
      </trkpt>
      <trkpt lat="45.3633" lon="4.38107">
        <ele>886.765625</ele>
      </trkpt>
      <trkpt lat="45.36308" lon="4.3813">
        <ele>887.54296875</ele>
      </trkpt>
      <trkpt lat="45.3627" lon="4.38161">
        <ele>888.015625</ele>
      </trkpt>
      <trkpt lat="45.36262" lon="4.38167">
        <ele>888.07421875</ele>
      </trkpt>
      <trkpt lat="45.36235" lon="4.38179">
        <ele>889.0859375</ele>
      </trkpt>
      <trkpt lat="45.36194" lon="4.38193">
        <ele>891.2890625</ele>
      </trkpt>
      <trkpt lat="45.36187" lon="4.38196">
        <ele>891.63671875</ele>
      </trkpt>
      <trkpt lat="45.36181" lon="4.382">
        <ele>891.984375</ele>
      </trkpt>
      <trkpt lat="45.36176" lon="4.38205">
        <ele>892.45703125</ele>
      </trkpt>
      <trkpt lat="45.36172" lon="4.38211">
        <ele>892.71875</ele>
      </trkpt>
      <trkpt lat="45.36168" lon="4.38217">
        <ele>893.0390625</ele>
      </trkpt>
      <trkpt lat="45.36156" lon="4.38244">
        <ele>894.46484375</ele>
      </trkpt>
      <trkpt lat="45.36153" lon="4.38245">
        <ele>894.75</ele>
      </trkpt>
      <trkpt lat="45.36149" lon="4.38255">
        <ele>895.640625</ele>
      </trkpt>
      <trkpt lat="45.36144" lon="4.38268">
        <ele>896.6953125</ele>
      </trkpt>
      <trkpt lat="45.36136" lon="4.38285">
        <ele>898.203125</ele>
      </trkpt>
      <trkpt lat="45.36135" lon="4.38294">
        <ele>898.921875</ele>
      </trkpt>
      <trkpt lat="45.36133" lon="4.38417">
        <ele>905.171875</ele>
      </trkpt>
      <trkpt lat="45.36128" lon="4.3846">
        <ele>906.92578125</ele>
      </trkpt>
      <trkpt lat="45.36124" lon="4.38487">
        <ele>908.1796875</ele>
      </trkpt>
      <trkpt lat="45.36122" lon="4.38494">
        <ele>908.55859375</ele>
      </trkpt>
      <trkpt lat="45.36111" lon="4.3851">
        <ele>909.73046875</ele>
      </trkpt>
      <trkpt lat="45.36096" lon="4.3853">
        <ele>910.39453125</ele>
      </trkpt>
      <trkpt lat="45.36079" lon="4.38557">
        <ele>911.3515625</ele>
      </trkpt>
      <trkpt lat="45.3606" lon="4.38591">
        <ele>913.234375</ele>
      </trkpt>
      <trkpt lat="45.36048" lon="4.38607">
        <ele>914.58203125</ele>
      </trkpt>
      <trkpt lat="45.36017" lon="4.38649">
        <ele>918.16015625</ele>
      </trkpt>
      <trkpt lat="45.35999" lon="4.38674">
        <ele>919.7734375</ele>
      </trkpt>
      <trkpt lat="45.3599" lon="4.38686">
        <ele>920.8515625</ele>
      </trkpt>
      <trkpt lat="45.3598" lon="4.38698">
        <ele>922.16796875</ele>
      </trkpt>
      <trkpt lat="45.35975" lon="4.38705">
        <ele>922.99609375</ele>
      </trkpt>
      <trkpt lat="45.35964" lon="4.38721">
        <ele>924.8046875</ele>
      </trkpt>
      <trkpt lat="45.35958" lon="4.38732">
        <ele>926.00390625</ele>
      </trkpt>
      <trkpt lat="45.35936" lon="4.38767">
        <ele>930.00390625</ele>
      </trkpt>
      <trkpt lat="45.35943" lon="4.38777">
        <ele>930.63671875</ele>
      </trkpt>
      <trkpt lat="45.35946" lon="4.38784">
        <ele>931.0625</ele>
      </trkpt>
      <trkpt lat="45.3596" lon="4.388">
        <ele>932.14453125</ele>
      </trkpt>
      <trkpt lat="45.35966" lon="4.38809">
        <ele>932.67578125</ele>
      </trkpt>
      <trkpt lat="45.35988" lon="4.38848">
        <ele>934.6796875</ele>
      </trkpt>
      <trkpt lat="45.35999" lon="4.38862">
        <ele>934.859375</ele>
      </trkpt>
      <trkpt lat="45.36038" lon="4.38924">
        <ele>935.93359375</ele>
      </trkpt>
      <trkpt lat="45.36067" lon="4.38966">
        <ele>935.61328125</ele>
      </trkpt>
      <trkpt lat="45.36081" lon="4.38994">
        <ele>934.75</ele>
      </trkpt>
      <trkpt lat="45.36093" lon="4.39022">
        <ele>933.8125</ele>
      </trkpt>
      <trkpt lat="45.36099" lon="4.39041">
        <ele>933.3046875</ele>
      </trkpt>
      <trkpt lat="45.36105" lon="4.39059">
        <ele>933.0546875</ele>
      </trkpt>
      <trkpt lat="45.36109" lon="4.39077">
        <ele>933.01171875</ele>
      </trkpt>
      <trkpt lat="45.36114" lon="4.39091">
        <ele>932.875</ele>
      </trkpt>
      <trkpt lat="45.36119" lon="4.39098">
        <ele>932.71875</ele>
      </trkpt>
      <trkpt lat="45.36124" lon="4.39107">
        <ele>932.5546875</ele>
      </trkpt>
      <trkpt lat="45.36126" lon="4.39109">
        <ele>932.49609375</ele>
      </trkpt>
      <trkpt lat="45.3614" lon="4.39126">
        <ele>932.41796875</ele>
      </trkpt>
      <trkpt lat="45.36151" lon="4.39145">
        <ele>932.66796875</ele>
      </trkpt>
      <trkpt lat="45.36157" lon="4.39155">
        <ele>932.8203125</ele>
      </trkpt>
      <trkpt lat="45.36176" lon="4.39184">
        <ele>933.30859375</ele>
      </trkpt>
      <trkpt lat="45.36184" lon="4.39198">
        <ele>933.203125</ele>
      </trkpt>
      <trkpt lat="45.36193" lon="4.3921">
        <ele>932.8984375</ele>
      </trkpt>
      <trkpt lat="45.362" lon="4.39224">
        <ele>932.54296875</ele>
      </trkpt>
      <trkpt lat="45.36209" lon="4.39213">
        <ele>931.9765625</ele>
      </trkpt>
      <trkpt lat="45.36216" lon="4.39206">
        <ele>931.5625</ele>
      </trkpt>
      <trkpt lat="45.36226" lon="4.39202">
        <ele>931.078125</ele>
      </trkpt>
      <trkpt lat="45.36233" lon="4.392">
        <ele>930.72265625</ele>
      </trkpt>
      <trkpt lat="45.36338" lon="4.39173">
        <ele>926.578125</ele>
      </trkpt>
      <trkpt lat="45.36358" lon="4.39169">
        <ele>925.20703125</ele>
      </trkpt>
      <trkpt lat="45.3637" lon="4.39167">
        <ele>924.23046875</ele>
      </trkpt>
      <trkpt lat="45.36392" lon="4.39157">
        <ele>922.58984375</ele>
      </trkpt>
      <trkpt lat="45.36406" lon="4.3915">
        <ele>921.609375</ele>
      </trkpt>
      <trkpt lat="45.36428" lon="4.39136">
        <ele>919.79296875</ele>
      </trkpt>
      <trkpt lat="45.36438" lon="4.39127">
        <ele>918.94140625</ele>
      </trkpt>
      <trkpt lat="45.36452" lon="4.3911">
        <ele>918.03125</ele>
      </trkpt>
      <trkpt lat="45.36458" lon="4.39102">
        <ele>917.7421875</ele>
      </trkpt>
      <trkpt lat="45.36463" lon="4.39093">
        <ele>917.33984375</ele>
      </trkpt>
      <trkpt lat="45.36479" lon="4.39073">
        <ele>915.98828125</ele>
      </trkpt>
      <trkpt lat="45.36494" lon="4.39056">
        <ele>914.8671875</ele>
      </trkpt>
      <trkpt lat="45.36516" lon="4.39032">
        <ele>913.625</ele>
      </trkpt>
      <trkpt lat="45.36529" lon="4.39017">
        <ele>913.01171875</ele>
      </trkpt>
      <trkpt lat="45.36547" lon="4.39004">
        <ele>911.7265625</ele>
      </trkpt>
      <trkpt lat="45.36555" lon="4.38998">
        <ele>911.10546875</ele>
      </trkpt>
      <trkpt lat="45.36578" lon="4.38981">
        <ele>909.515625</ele>
      </trkpt>
      <trkpt lat="45.366" lon="4.38961">
        <ele>908.640625</ele>
      </trkpt>
      <trkpt lat="45.36642" lon="4.38918">
        <ele>906.80078125</ele>
      </trkpt>
      <trkpt lat="45.36664" lon="4.38891">
        <ele>906.0078125</ele>
      </trkpt>
      <trkpt lat="45.3668" lon="4.38868">
        <ele>905.16015625</ele>
      </trkpt>
      <trkpt lat="45.36707" lon="4.38826">
        <ele>902.33984375</ele>
      </trkpt>
      <trkpt lat="45.36719" lon="4.38802">
        <ele>900.6171875</ele>
      </trkpt>
      <trkpt lat="45.36728" lon="4.38788">
        <ele>899.6875</ele>
      </trkpt>
      <trkpt lat="45.36737" lon="4.38776">
        <ele>898.27734375</ele>
      </trkpt>
      <trkpt lat="45.36743" lon="4.38769">
        <ele>897.3359375</ele>
      </trkpt>
      <trkpt lat="45.36754" lon="4.38763">
        <ele>896.1796875</ele>
      </trkpt>
      <trkpt lat="45.36762" lon="4.38762">
        <ele>895.42578125</ele>
      </trkpt>
      <trkpt lat="45.3677" lon="4.38762">
        <ele>894.8125</ele>
      </trkpt>
      <trkpt lat="45.36791" lon="4.38767">
        <ele>893.21875</ele>
      </trkpt>
      <trkpt lat="45.36804" lon="4.38769">
        <ele>892.06640625</ele>
      </trkpt>
      <trkpt lat="45.36817" lon="4.38767">
        <ele>890.796875</ele>
      </trkpt>
      <trkpt lat="45.3682" lon="4.38764">
        <ele>890.45703125</ele>
      </trkpt>
      <trkpt lat="45.36829" lon="4.38779">
        <ele>889.83984375</ele>
      </trkpt>
      <trkpt lat="45.36835" lon="4.38799">
        <ele>888.53125</ele>
      </trkpt>
      <trkpt lat="45.36839" lon="4.38812">
        <ele>887.28125</ele>
      </trkpt>
      <trkpt lat="45.36841" lon="4.38835">
        <ele>885.37890625</ele>
      </trkpt>
      <trkpt lat="45.36841" lon="4.38858">
        <ele>883.046875</ele>
      </trkpt>
      <trkpt lat="45.36838" lon="4.38882">
        <ele>880.4296875</ele>
      </trkpt>
      <trkpt lat="45.3683" lon="4.38906">
        <ele>878.265625</ele>
      </trkpt>
      <trkpt lat="45.36821" lon="4.38921">
        <ele>876.9375</ele>
      </trkpt>
      <trkpt lat="45.36811" lon="4.38938">
        <ele>875.66796875</ele>
      </trkpt>
      <trkpt lat="45.368" lon="4.38955">
        <ele>874.50390625</ele>
      </trkpt>
      <trkpt lat="45.36787" lon="4.38979">
        <ele>872.13671875</ele>
      </trkpt>
      <trkpt lat="45.36774" lon="4.39006">
        <ele>869.87109375</ele>
      </trkpt>
      <trkpt lat="45.36765" lon="4.39028">
        <ele>867.88671875</ele>
      </trkpt>
      <trkpt lat="45.36757" lon="4.39049">
        <ele>865.703125</ele>
      </trkpt>
      <trkpt lat="45.36728" lon="4.3912">
        <ele>860.81640625</ele>
      </trkpt>
      <trkpt lat="45.36717" lon="4.39142">
        <ele>864.03125</ele>
      </trkpt>
      <trkpt lat="45.36715" lon="4.39152">
        <ele>865.0703125</ele>
      </trkpt>
      <trkpt lat="45.36715" lon="4.39158">
        <ele>865.4921875</ele>
      </trkpt>
      <trkpt lat="45.36718" lon="4.39167">
        <ele>865.46484375</ele>
      </trkpt>
      <trkpt lat="45.36723" lon="4.39174">
        <ele>865.18359375</ele>
      </trkpt>
      <trkpt lat="45.36735" lon="4.39197">
        <ele>865.37890625</ele>
      </trkpt>
      <trkpt lat="45.3674" lon="4.39204">
        <ele>865.23046875</ele>
      </trkpt>
      <trkpt lat="45.36743" lon="4.39216">
        <ele>865.92578125</ele>
      </trkpt>
      <trkpt lat="45.3675" lon="4.39247">
        <ele>867.26953125</ele>
      </trkpt>
      <trkpt lat="45.36753" lon="4.39269">
        <ele>867.71484375</ele>
      </trkpt>
      <trkpt lat="45.36754" lon="4.39279">
        <ele>868.02734375</ele>
      </trkpt>
      <trkpt lat="45.36754" lon="4.39314">
        <ele>868.13671875</ele>
      </trkpt>
      <trkpt lat="45.36754" lon="4.39324">
        <ele>868.015625</ele>
      </trkpt>
      <trkpt lat="45.36752" lon="4.39346">
        <ele>868.32421875</ele>
      </trkpt>
      <trkpt lat="45.36746" lon="4.3939">
        <ele>870.23046875</ele>
      </trkpt>
      <trkpt lat="45.36747" lon="4.39417">
        <ele>870.796875</ele>
      </trkpt>
      <trkpt lat="45.36748" lon="4.39434">
        <ele>871.21875</ele>
      </trkpt>
      <trkpt lat="45.36752" lon="4.39453">
        <ele>871.23828125</ele>
      </trkpt>
      <trkpt lat="45.36772" lon="4.39524">
        <ele>869.26171875</ele>
      </trkpt>
      <trkpt lat="45.36782" lon="4.39559">
        <ele>867.2421875</ele>
      </trkpt>
      <trkpt lat="45.36787" lon="4.39577">
        <ele>865.79296875</ele>
      </trkpt>
      <trkpt lat="45.36792" lon="4.39594">
        <ele>864.1328125</ele>
      </trkpt>
      <trkpt lat="45.36795" lon="4.39613">
        <ele>863.01171875</ele>
      </trkpt>
      <trkpt lat="45.36796" lon="4.3963">
        <ele>861.48046875</ele>
      </trkpt>
      <trkpt lat="45.36796" lon="4.39652">
        <ele>859.19140625</ele>
      </trkpt>
      <trkpt lat="45.3679" lon="4.39719">
        <ele>852.875</ele>
      </trkpt>
      <trkpt lat="45.36787" lon="4.39749">
        <ele>849.5546875</ele>
      </trkpt>
      <trkpt lat="45.3678" lon="4.39789">
        <ele>845.76171875</ele>
      </trkpt>
      <trkpt lat="45.3677" lon="4.39828">
        <ele>842.2109375</ele>
      </trkpt>
      <trkpt lat="45.36753" lon="4.39881">
        <ele>838.52734375</ele>
      </trkpt>
      <trkpt lat="45.36742" lon="4.39924">
        <ele>834.625</ele>
      </trkpt>
      <trkpt lat="45.36739" lon="4.39945">
        <ele>831.921875</ele>
      </trkpt>
      <trkpt lat="45.36738" lon="4.39953">
        <ele>830.68359375</ele>
      </trkpt>
      <trkpt lat="45.36738" lon="4.39971">
        <ele>827.15625</ele>
      </trkpt>
      <trkpt lat="45.36736" lon="4.39979">
        <ele>826.1328125</ele>
      </trkpt>
      <trkpt lat="45.36732" lon="4.39985">
        <ele>825.10546875</ele>
      </trkpt>
      <trkpt lat="45.36729" lon="4.39992">
        <ele>824.0390625</ele>
      </trkpt>
      <trkpt lat="45.36725" lon="4.39997">
        <ele>823.2265625</ele>
      </trkpt>
      <trkpt lat="45.36721" lon="4.40005">
        <ele>821.91015625</ele>
      </trkpt>
      <trkpt lat="45.36723" lon="4.40008">
        <ele>821.10546875</ele>
      </trkpt>
      <trkpt lat="45.36729" lon="4.40008">
        <ele>820.74609375</ele>
      </trkpt>
      <trkpt lat="45.36739" lon="4.40007">
        <ele>820.08984375</ele>
      </trkpt>
      <trkpt lat="45.36747" lon="4.40002">
        <ele>819.40234375</ele>
      </trkpt>
      <trkpt lat="45.36757" lon="4.39992">
        <ele>819.3828125</ele>
      </trkpt>
      <trkpt lat="45.36783" lon="4.39954">
        <ele>818.3203125</ele>
      </trkpt>
      <trkpt lat="45.36795" lon="4.39941">
        <ele>817.09765625</ele>
      </trkpt>
      <trkpt lat="45.36798" lon="4.39938">
        <ele>816.7421875</ele>
      </trkpt>
      <trkpt lat="45.36802" lon="4.39942">
        <ele>815.20703125</ele>
      </trkpt>
      <trkpt lat="45.36802" lon="4.39948">
        <ele>814.6015625</ele>
      </trkpt>
      <trkpt lat="45.368" lon="4.39956">
        <ele>814.16015625</ele>
      </trkpt>
      <trkpt lat="45.36794" lon="4.39971">
        <ele>814.13671875</ele>
      </trkpt>
      <trkpt lat="45.36786" lon="4.39992">
        <ele>813.67578125</ele>
      </trkpt>
      <trkpt lat="45.36777" lon="4.40009">
        <ele>813.35546875</ele>
      </trkpt>
      <trkpt lat="45.36775" lon="4.40019">
        <ele>813.7890625</ele>
      </trkpt>
      <trkpt lat="45.36774" lon="4.40036">
        <ele>814.28515625</ele>
      </trkpt>
      <trkpt lat="45.36779" lon="4.4004">
        <ele>813.80078125</ele>
      </trkpt>
      <trkpt lat="45.36782" lon="4.40043">
        <ele>813.45703125</ele>
      </trkpt>
      <trkpt lat="45.36789" lon="4.40042">
        <ele>812.44921875</ele>
      </trkpt>
      <trkpt lat="45.36797" lon="4.40043">
        <ele>811.95703125</ele>
      </trkpt>
      <trkpt lat="45.36805" lon="4.40046">
        <ele>811.65625</ele>
      </trkpt>
      <trkpt lat="45.36809" lon="4.40049">
        <ele>811.56640625</ele>
      </trkpt>
      <trkpt lat="45.36814" lon="4.40049">
        <ele>811.3046875</ele>
      </trkpt>
      <trkpt lat="45.36825" lon="4.40043">
        <ele>810.6484375</ele>
      </trkpt>
      <trkpt lat="45.36829" lon="4.40052">
        <ele>810.65234375</ele>
      </trkpt>
      <trkpt lat="45.36831" lon="4.40059">
        <ele>810.71875</ele>
      </trkpt>
      <trkpt lat="45.36844" lon="4.40069">
        <ele>810.390625</ele>
      </trkpt>
      <trkpt lat="45.36861" lon="4.4007">
        <ele>811.94140625</ele>
      </trkpt>
      <trkpt lat="45.36881" lon="4.40065">
        <ele>814.375</ele>
      </trkpt>
      <trkpt lat="45.36907" lon="4.40056">
        <ele>818.36328125</ele>
      </trkpt>
      <trkpt lat="45.3693" lon="4.40048">
        <ele>823.84765625</ele>
      </trkpt>
      <trkpt lat="45.36945" lon="4.40049">
        <ele>826.98046875</ele>
      </trkpt>
      <trkpt lat="45.36979" lon="4.40055">
        <ele>832.98828125</ele>
      </trkpt>
      <trkpt lat="45.36992" lon="4.40059">
        <ele>834.83984375</ele>
      </trkpt>
      <trkpt lat="45.37025" lon="4.40064">
        <ele>840.53515625</ele>
      </trkpt>
      <trkpt lat="45.37045" lon="4.40065">
        <ele>844.2265625</ele>
      </trkpt>
      <trkpt lat="45.37069" lon="4.40062">
        <ele>849.44140625</ele>
      </trkpt>
      <trkpt lat="45.37111" lon="4.40059">
        <ele>855.02734375</ele>
      </trkpt>
      <trkpt lat="45.37149" lon="4.40054">
        <ele>859.68359375</ele>
      </trkpt>
      <trkpt lat="45.37158" lon="4.40051">
        <ele>861.02734375</ele>
      </trkpt>
      <trkpt lat="45.37168" lon="4.40051">
        <ele>861.9453125</ele>
      </trkpt>
      <trkpt lat="45.37226" lon="4.40052">
        <ele>869.140625</ele>
      </trkpt>
      <trkpt lat="45.37267" lon="4.40053">
        <ele>873.07421875</ele>
      </trkpt>
      <trkpt lat="45.37285" lon="4.40053">
        <ele>874.6796875</ele>
      </trkpt>
      <trkpt lat="45.3729" lon="4.40054">
        <ele>875.12890625</ele>
      </trkpt>
      <trkpt lat="45.37301" lon="4.40059">
        <ele>875.52734375</ele>
      </trkpt>
      <trkpt lat="45.37306" lon="4.40066">
        <ele>875.84375</ele>
      </trkpt>
      <trkpt lat="45.3731" lon="4.40072">
        <ele>876.25</ele>
      </trkpt>
      <trkpt lat="45.37313" lon="4.40081">
        <ele>876.78125</ele>
      </trkpt>
      <trkpt lat="45.37321" lon="4.40108">
        <ele>878.65234375</ele>
      </trkpt>
      <trkpt lat="45.37322" lon="4.40118">
        <ele>879.2734375</ele>
      </trkpt>
      <trkpt lat="45.37325" lon="4.40134">
        <ele>880.66015625</ele>
      </trkpt>
      <trkpt lat="45.37326" lon="4.40164">
        <ele>883.109375</ele>
      </trkpt>
      <trkpt lat="45.37327" lon="4.40174">
        <ele>883.97265625</ele>
      </trkpt>
      <trkpt lat="45.37327" lon="4.40256">
        <ele>889.984375</ele>
      </trkpt>
      <trkpt lat="45.37326" lon="4.40302">
        <ele>893.27734375</ele>
      </trkpt>
      <trkpt lat="45.37328" lon="4.40346">
        <ele>896.8828125</ele>
      </trkpt>
      <trkpt lat="45.3733" lon="4.40386">
        <ele>900.84375</ele>
      </trkpt>
      <trkpt lat="45.3733" lon="4.40428">
        <ele>905.25</ele>
      </trkpt>
      <trkpt lat="45.37327" lon="4.40466">
        <ele>908.9453125</ele>
      </trkpt>
      <trkpt lat="45.3732" lon="4.40496">
        <ele>911.57421875</ele>
      </trkpt>
      <trkpt lat="45.37314" lon="4.40523">
        <ele>913.69921875</ele>
      </trkpt>
      <trkpt lat="45.37307" lon="4.4056">
        <ele>917.1015625</ele>
      </trkpt>
      <trkpt lat="45.37295" lon="4.40633">
        <ele>923.95703125</ele>
      </trkpt>
      <trkpt lat="45.37284" lon="4.40696">
        <ele>928.63671875</ele>
      </trkpt>
      <trkpt lat="45.37282" lon="4.40714">
        <ele>930</ele>
      </trkpt>
      <trkpt lat="45.37278" lon="4.40744">
        <ele>932.29296875</ele>
      </trkpt>
      <trkpt lat="45.3728" lon="4.40777">
        <ele>935.4453125</ele>
      </trkpt>
      <trkpt lat="45.37277" lon="4.40808">
        <ele>937.5546875</ele>
      </trkpt>
      <trkpt lat="45.37277" lon="4.40829">
        <ele>939.0234375</ele>
      </trkpt>
      <trkpt lat="45.37281" lon="4.40851">
        <ele>940.95703125</ele>
      </trkpt>
      <trkpt lat="45.37287" lon="4.40878">
        <ele>943.33203125</ele>
      </trkpt>
      <trkpt lat="45.37293" lon="4.40909">
        <ele>945.7890625</ele>
      </trkpt>
      <trkpt lat="45.37297" lon="4.40921">
        <ele>946.734375</ele>
      </trkpt>
      <trkpt lat="45.37301" lon="4.40944">
        <ele>948.28125</ele>
      </trkpt>
      <trkpt lat="45.37303" lon="4.40956">
        <ele>949.0625</ele>
      </trkpt>
      <trkpt lat="45.37303" lon="4.40968">
        <ele>949.53515625</ele>
      </trkpt>
      <trkpt lat="45.37303" lon="4.40978">
        <ele>949.921875</ele>
      </trkpt>
      <trkpt lat="45.37301" lon="4.41001">
        <ele>950.48046875</ele>
      </trkpt>
      <trkpt lat="45.373" lon="4.41013">
        <ele>950.75</ele>
      </trkpt>
      <trkpt lat="45.37299" lon="4.41024">
        <ele>950.96875</ele>
      </trkpt>
      <trkpt lat="45.37299" lon="4.41035">
        <ele>951.3828125</ele>
      </trkpt>
      <trkpt lat="45.37304" lon="4.41043">
        <ele>952.73828125</ele>
      </trkpt>
      <trkpt lat="45.37304" lon="4.41054">
        <ele>953.171875</ele>
      </trkpt>
      <trkpt lat="45.37312" lon="4.4106">
        <ele>954.91015625</ele>
      </trkpt>
      <trkpt lat="45.37329" lon="4.41089">
        <ele>959.23046875</ele>
      </trkpt>
      <trkpt lat="45.37342" lon="4.41106">
        <ele>962.484375</ele>
      </trkpt>
      <trkpt lat="45.37351" lon="4.41115">
        <ele>964.41796875</ele>
      </trkpt>
      <trkpt lat="45.37368" lon="4.41123">
        <ele>966.76953125</ele>
      </trkpt>
      <trkpt lat="45.37375" lon="4.41129">
        <ele>968.0625</ele>
      </trkpt>
      <trkpt lat="45.37379" lon="4.41137">
        <ele>969.0078125</ele>
      </trkpt>
      <trkpt lat="45.37383" lon="4.41144">
        <ele>969.8203125</ele>
      </trkpt>
      <trkpt lat="45.37383" lon="4.41164">
        <ele>970.921875</ele>
      </trkpt>
      <trkpt lat="45.37383" lon="4.41172">
        <ele>971.328125</ele>
      </trkpt>
      <trkpt lat="45.3738" lon="4.4119">
        <ele>972.46484375</ele>
      </trkpt>
      <trkpt lat="45.37379" lon="4.41206">
        <ele>973.65234375</ele>
      </trkpt>
      <trkpt lat="45.3738" lon="4.41232">
        <ele>975.953125</ele>
      </trkpt>
      <trkpt lat="45.37387" lon="4.41244">
        <ele>978.05859375</ele>
      </trkpt>
      <trkpt lat="45.37427" lon="4.41288">
        <ele>985.4609375</ele>
      </trkpt>
      <trkpt lat="45.37466" lon="4.41333">
        <ele>993.46484375</ele>
      </trkpt>
      <trkpt lat="45.3748" lon="4.41355">
        <ele>996.53125</ele>
      </trkpt>
      <trkpt lat="45.37501" lon="4.41389">
        <ele>1000.45703125</ele>
      </trkpt>
      <trkpt lat="45.37522" lon="4.4143">
        <ele>1003.390625</ele>
      </trkpt>
      <trkpt lat="45.37538" lon="4.41467">
        <ele>1005.265625</ele>
      </trkpt>
      <trkpt lat="45.37557" lon="4.41505">
        <ele>1007.26953125</ele>
      </trkpt>
      <trkpt lat="45.37566" lon="4.41518">
        <ele>1007.4765625</ele>
      </trkpt>
      <trkpt lat="45.37599" lon="4.41594">
        <ele>1007.76171875</ele>
      </trkpt>
      <trkpt lat="45.37621" lon="4.41654">
        <ele>1008.796875</ele>
      </trkpt>
      <trkpt lat="45.37634" lon="4.41682">
        <ele>1008.44921875</ele>
      </trkpt>
      <trkpt lat="45.37656" lon="4.41731">
        <ele>1011.40234375</ele>
      </trkpt>
      <trkpt lat="45.37665" lon="4.41741">
        <ele>1011.984375</ele>
      </trkpt>
      <trkpt lat="45.37681" lon="4.41747">
        <ele>1011.1875</ele>
      </trkpt>
      <trkpt lat="45.37688" lon="4.41749">
        <ele>1011.61328125</ele>
      </trkpt>
      <trkpt lat="45.37705" lon="4.41751">
        <ele>1012.0390625</ele>
      </trkpt>
      <trkpt lat="45.37728" lon="4.41751">
        <ele>1012.0390625</ele>
      </trkpt>
      <trkpt lat="45.37754" lon="4.41752">
        <ele>1013.0703125</ele>
      </trkpt>
      <trkpt lat="45.3776" lon="4.41764">
        <ele>1015.30859375</ele>
      </trkpt>
      <trkpt lat="45.37767" lon="4.4179">
        <ele>1019.46875</ele>
      </trkpt>
      <trkpt lat="45.37772" lon="4.41816">
        <ele>1022.86328125</ele>
      </trkpt>
      <trkpt lat="45.37777" lon="4.41835">
        <ele>1025.33203125</ele>
      </trkpt>
      <trkpt lat="45.37801" lon="4.41921">
        <ele>1032.44921875</ele>
      </trkpt>
      <trkpt lat="45.37828" lon="4.42002">
        <ele>1036.48046875</ele>
      </trkpt>
      <trkpt lat="45.37829" lon="4.4202">
        <ele>1038.078125</ele>
      </trkpt>
      <trkpt lat="45.37829" lon="4.42028">
        <ele>1039.05078125</ele>
      </trkpt>
      <trkpt lat="45.37826" lon="4.42037">
        <ele>1040.578125</ele>
      </trkpt>
      <trkpt lat="45.37822" lon="4.42043">
        <ele>1041.875</ele>
      </trkpt>
      <trkpt lat="45.37826" lon="4.4206">
        <ele>1043.2890625</ele>
      </trkpt>
      <trkpt lat="45.37831" lon="4.42073">
        <ele>1043.6953125</ele>
      </trkpt>
      <trkpt lat="45.37832" lon="4.42078">
        <ele>1043.9453125</ele>
      </trkpt>
      <trkpt lat="45.37836" lon="4.42094">
        <ele>1044.87890625</ele>
      </trkpt>
      <trkpt lat="45.37842" lon="4.42118">
        <ele>1046.59765625</ele>
      </trkpt>
      <trkpt lat="45.37847" lon="4.42142">
        <ele>1048.2109375</ele>
      </trkpt>
      <trkpt lat="45.37856" lon="4.42205">
        <ele>1052.4296875</ele>
      </trkpt>
      <trkpt lat="45.37856" lon="4.42251">
        <ele>1055.484375</ele>
      </trkpt>
      <trkpt lat="45.37859" lon="4.42322">
        <ele>1055.8203125</ele>
      </trkpt>
      <trkpt lat="45.37861" lon="4.42344">
        <ele>1055.23828125</ele>
      </trkpt>
      <trkpt lat="45.37861" lon="4.42359">
        <ele>1054.89453125</ele>
      </trkpt>
      <trkpt lat="45.37859" lon="4.42372">
        <ele>1055.140625</ele>
      </trkpt>
      <trkpt lat="45.37861" lon="4.42409">
        <ele>1053.80078125</ele>
      </trkpt>
      <trkpt lat="45.37865" lon="4.4245">
        <ele>1051.90625</ele>
      </trkpt>
      <trkpt lat="45.37873" lon="4.42506">
        <ele>1047.42578125</ele>
      </trkpt>
      <trkpt lat="45.37873" lon="4.42547">
        <ele>1044.7890625</ele>
      </trkpt>
      <trkpt lat="45.37871" lon="4.42584">
        <ele>1042.46875</ele>
      </trkpt>
      <trkpt lat="45.37865" lon="4.42616">
        <ele>1040.54296875</ele>
      </trkpt>
      <trkpt lat="45.37859" lon="4.42651">
        <ele>1039.2578125</ele>
      </trkpt>
      <trkpt lat="45.37886" lon="4.42661">
        <ele>1035.91015625</ele>
      </trkpt>
      <trkpt lat="45.37893" lon="4.42664">
        <ele>1035.1328125</ele>
      </trkpt>
      <trkpt lat="45.37901" lon="4.42666">
        <ele>1034.25390625</ele>
      </trkpt>
      <trkpt lat="45.37925" lon="4.4268">
        <ele>1033.0234375</ele>
      </trkpt>
      <trkpt lat="45.37935" lon="4.42676">
        <ele>1031.796875</ele>
      </trkpt>
      <trkpt lat="45.37965" lon="4.42672">
        <ele>1030.1796875</ele>
      </trkpt>
      <trkpt lat="45.37995" lon="4.42663">
        <ele>1030.6484375</ele>
      </trkpt>
      <trkpt lat="45.38025" lon="4.4265">
        <ele>1030.71875</ele>
      </trkpt>
      <trkpt lat="45.38069" lon="4.4263">
        <ele>1031.8125</ele>
      </trkpt>
      <trkpt lat="45.38084" lon="4.42614">
        <ele>1030.6796875</ele>
      </trkpt>
      <trkpt lat="45.38114" lon="4.42595">
        <ele>1030.94140625</ele>
      </trkpt>
      <trkpt lat="45.38137" lon="4.42583">
        <ele>1030.55859375</ele>
      </trkpt>
      <trkpt lat="45.38164" lon="4.42577">
        <ele>1030.078125</ele>
      </trkpt>
      <trkpt lat="45.38186" lon="4.42577">
        <ele>1029.85546875</ele>
      </trkpt>
      <trkpt lat="45.38214" lon="4.4258">
        <ele>1028.6953125</ele>
      </trkpt>
      <trkpt lat="45.38242" lon="4.42585">
        <ele>1027.5546875</ele>
      </trkpt>
      <trkpt lat="45.38297" lon="4.42599">
        <ele>1023.15234375</ele>
      </trkpt>
      <trkpt lat="45.38328" lon="4.42607">
        <ele>1021.34375</ele>
      </trkpt>
      <trkpt lat="45.38345" lon="4.42609">
        <ele>1019.75390625</ele>
      </trkpt>
      <trkpt lat="45.38365" lon="4.42603">
        <ele>1018.4765625</ele>
      </trkpt>
      <trkpt lat="45.38375" lon="4.42599">
        <ele>1017.76953125</ele>
      </trkpt>
      <trkpt lat="45.38388" lon="4.42594">
        <ele>1016.9453125</ele>
      </trkpt>
      <trkpt lat="45.38397" lon="4.42589">
        <ele>1016.359375</ele>
      </trkpt>
      <trkpt lat="45.38404" lon="4.42585">
        <ele>1015.98046875</ele>
      </trkpt>
      <trkpt lat="45.38451" lon="4.4258">
        <ele>1016.95703125</ele>
      </trkpt>
      <trkpt lat="45.38472" lon="4.42582">
        <ele>1016.16796875</ele>
      </trkpt>
      <trkpt lat="45.38495" lon="4.42592">
        <ele>1014.96875</ele>
      </trkpt>
      <trkpt lat="45.38502" lon="4.42599">
        <ele>1014.81640625</ele>
      </trkpt>
      <trkpt lat="45.38517" lon="4.42624">
        <ele>1014.43359375</ele>
      </trkpt>
      <trkpt lat="45.38549" lon="4.42665">
        <ele>1010.3203125</ele>
      </trkpt>
      <trkpt lat="45.38578" lon="4.42707">
        <ele>1006.94140625</ele>
      </trkpt>
      <trkpt lat="45.38599" lon="4.42747">
        <ele>1004.99609375</ele>
      </trkpt>
      <trkpt lat="45.38609" lon="4.42775">
        <ele>1004.26171875</ele>
      </trkpt>
      <trkpt lat="45.38615" lon="4.42784">
        <ele>1003.44921875</ele>
      </trkpt>
      <trkpt lat="45.38631" lon="4.42801">
        <ele>1000.84765625</ele>
      </trkpt>
      <trkpt lat="45.38637" lon="4.42806">
        <ele>999.99609375</ele>
      </trkpt>
      <trkpt lat="45.38657" lon="4.42834">
        <ele>996.82421875</ele>
      </trkpt>
      <trkpt lat="45.38675" lon="4.42868">
        <ele>993.64453125</ele>
      </trkpt>
      <trkpt lat="45.3869" lon="4.42901">
        <ele>990.82421875</ele>
      </trkpt>
      <trkpt lat="45.38699" lon="4.42931">
        <ele>988.40234375</ele>
      </trkpt>
      <trkpt lat="45.38708" lon="4.4296">
        <ele>985.81640625</ele>
      </trkpt>
      <trkpt lat="45.38711" lon="4.42985">
        <ele>983.59375</ele>
      </trkpt>
      <trkpt lat="45.38697" lon="4.43015">
        <ele>982.765625</ele>
      </trkpt>
      <trkpt lat="45.38687" lon="4.4303">
        <ele>981.8359375</ele>
      </trkpt>
      <trkpt lat="45.38674" lon="4.43043">
        <ele>981.26171875</ele>
      </trkpt>
      <trkpt lat="45.38662" lon="4.43052">
        <ele>980.7265625</ele>
      </trkpt>
      <trkpt lat="45.38647" lon="4.43059">
        <ele>980.41796875</ele>
      </trkpt>
      <trkpt lat="45.38635" lon="4.4306">
        <ele>980.9609375</ele>
      </trkpt>
      <trkpt lat="45.38601" lon="4.43069">
        <ele>984.734375</ele>
      </trkpt>
      <trkpt lat="45.3859" lon="4.4308">
        <ele>986.03125</ele>
      </trkpt>
      <trkpt lat="45.38579" lon="4.43098">
        <ele>986.8046875</ele>
      </trkpt>
      <trkpt lat="45.38572" lon="4.4312">
        <ele>986.6875</ele>
      </trkpt>
      <trkpt lat="45.38567" lon="4.43144">
        <ele>986.9921875</ele>
      </trkpt>
      <trkpt lat="45.3856" lon="4.43166">
        <ele>987.984375</ele>
      </trkpt>
      <trkpt lat="45.38558" lon="4.43171">
        <ele>988.171875</ele>
      </trkpt>
      <trkpt lat="45.3854" lon="4.43215">
        <ele>990.63671875</ele>
      </trkpt>
      <trkpt lat="45.38518" lon="4.43259">
        <ele>992.31640625</ele>
      </trkpt>
      <trkpt lat="45.38494" lon="4.43296">
        <ele>989.80859375</ele>
      </trkpt>
      <trkpt lat="45.38489" lon="4.43303">
        <ele>988.66796875</ele>
      </trkpt>
      <trkpt lat="45.38479" lon="4.43314">
        <ele>986.3359375</ele>
      </trkpt>
      <trkpt lat="45.38464" lon="4.43323">
        <ele>984.49609375</ele>
      </trkpt>
      <trkpt lat="45.3845" lon="4.43323">
        <ele>983.984375</ele>
      </trkpt>
      <trkpt lat="45.38433" lon="4.43323">
        <ele>982.640625</ele>
      </trkpt>
      <trkpt lat="45.38418" lon="4.43321">
        <ele>982.05859375</ele>
      </trkpt>
      <trkpt lat="45.38395" lon="4.43317">
        <ele>982.046875</ele>
      </trkpt>
      <trkpt lat="45.38386" lon="4.43316">
        <ele>982.3671875</ele>
      </trkpt>
      <trkpt lat="45.38372" lon="4.43314">
        <ele>982.67578125</ele>
      </trkpt>
      <trkpt lat="45.38359" lon="4.43316">
        <ele>982.30859375</ele>
      </trkpt>
      <trkpt lat="45.38352" lon="4.43317">
        <ele>982.140625</ele>
      </trkpt>
      <trkpt lat="45.38337" lon="4.4332">
        <ele>982.28515625</ele>
      </trkpt>
      <trkpt lat="45.38323" lon="4.43326">
        <ele>982.42578125</ele>
      </trkpt>
      <trkpt lat="45.38313" lon="4.43334">
        <ele>982.2265625</ele>
      </trkpt>
      <trkpt lat="45.3829" lon="4.43352">
        <ele>982.25390625</ele>
      </trkpt>
      <trkpt lat="45.38277" lon="4.43363">
        <ele>982.2265625</ele>
      </trkpt>
      <trkpt lat="45.38268" lon="4.43375">
        <ele>981.6875</ele>
      </trkpt>
      <trkpt lat="45.38253" lon="4.43394">
        <ele>980.8515625</ele>
      </trkpt>
      <trkpt lat="45.38213" lon="4.4344">
        <ele>976.515625</ele>
      </trkpt>
      <trkpt lat="45.38203" lon="4.4345">
        <ele>974.828125</ele>
      </trkpt>
      <trkpt lat="45.38182" lon="4.4346">
        <ele>972.6875</ele>
      </trkpt>
      <trkpt lat="45.38167" lon="4.43463">
        <ele>970.7578125</ele>
      </trkpt>
      <trkpt lat="45.38144" lon="4.43461">
        <ele>968.15625</ele>
      </trkpt>
      <trkpt lat="45.38132" lon="4.43459">
        <ele>967.01953125</ele>
      </trkpt>
      <trkpt lat="45.38121" lon="4.43453">
        <ele>966.1328125</ele>
      </trkpt>
      <trkpt lat="45.38096" lon="4.4343">
        <ele>963.79296875</ele>
      </trkpt>
      <trkpt lat="45.38091" lon="4.43423">
        <ele>963.63671875</ele>
      </trkpt>
      <trkpt lat="45.38077" lon="4.43408">
        <ele>962.44140625</ele>
      </trkpt>
      <trkpt lat="45.3806" lon="4.43375">
        <ele>965.7109375</ele>
      </trkpt>
      <trkpt lat="45.38048" lon="4.43354">
        <ele>969.5078125</ele>
      </trkpt>
      <trkpt lat="45.38042" lon="4.43343">
        <ele>971.61328125</ele>
      </trkpt>
      <trkpt lat="45.3804" lon="4.43338">
        <ele>972.375</ele>
      </trkpt>
      <trkpt lat="45.38035" lon="4.43334">
        <ele>973.22265625</ele>
      </trkpt>
      <trkpt lat="45.38027" lon="4.43334">
        <ele>973.7109375</ele>
      </trkpt>
      <trkpt lat="45.38021" lon="4.43337">
        <ele>973.8125</ele>
      </trkpt>
      <trkpt lat="45.38014" lon="4.43345">
        <ele>973.3203125</ele>
      </trkpt>
      <trkpt lat="45.38009" lon="4.43355">
        <ele>972.57421875</ele>
      </trkpt>
      <trkpt lat="45.38002" lon="4.4337">
        <ele>971.8984375</ele>
      </trkpt>
      <trkpt lat="45.37996" lon="4.43395">
        <ele>969.15625</ele>
      </trkpt>
      <trkpt lat="45.37985" lon="4.43469">
        <ele>960.3671875</ele>
      </trkpt>
      <trkpt lat="45.37981" lon="4.43492">
        <ele>957.2109375</ele>
      </trkpt>
      <trkpt lat="45.37966" lon="4.43534">
        <ele>952.5703125</ele>
      </trkpt>
      <trkpt lat="45.37953" lon="4.43558">
        <ele>950.67578125</ele>
      </trkpt>
      <trkpt lat="45.37948" lon="4.4357">
        <ele>949.98828125</ele>
      </trkpt>
      <trkpt lat="45.37944" lon="4.43577">
        <ele>950.04296875</ele>
      </trkpt>
      <trkpt lat="45.37941" lon="4.43586">
        <ele>949.453125</ele>
      </trkpt>
      <trkpt lat="45.37939" lon="4.43595">
        <ele>948.87890625</ele>
      </trkpt>
      <trkpt lat="45.37934" lon="4.43602">
        <ele>948.9296875</ele>
      </trkpt>
      <trkpt lat="45.37932" lon="4.43611">
        <ele>948.390625</ele>
      </trkpt>
      <trkpt lat="45.37931" lon="4.43622">
        <ele>947.2578125</ele>
      </trkpt>
      <trkpt lat="45.37928" lon="4.43631">
        <ele>946.38671875</ele>
      </trkpt>
      <trkpt lat="45.37926" lon="4.4364">
        <ele>945.47265625</ele>
      </trkpt>
      <trkpt lat="45.37924" lon="4.43649">
        <ele>944.27734375</ele>
      </trkpt>
      <trkpt lat="45.37922" lon="4.43659">
        <ele>943.13671875</ele>
      </trkpt>
      <trkpt lat="45.3792" lon="4.43668">
        <ele>941.99609375</ele>
      </trkpt>
      <trkpt lat="45.37918" lon="4.43678">
        <ele>941.12109375</ele>
      </trkpt>
      <trkpt lat="45.37919" lon="4.43688">
        <ele>940.37109375</ele>
      </trkpt>
      <trkpt lat="45.37919" lon="4.43698">
        <ele>939.71875</ele>
      </trkpt>
      <trkpt lat="45.37919" lon="4.43708">
        <ele>939.17578125</ele>
      </trkpt>
      <trkpt lat="45.37922" lon="4.43717">
        <ele>938.19140625</ele>
      </trkpt>
      <trkpt lat="45.37924" lon="4.43728">
        <ele>937.19140625</ele>
      </trkpt>
      <trkpt lat="45.37926" lon="4.43738">
        <ele>936.58203125</ele>
      </trkpt>
      <trkpt lat="45.3793" lon="4.43748">
        <ele>935.7578125</ele>
      </trkpt>
      <trkpt lat="45.37933" lon="4.43758">
        <ele>934.953125</ele>
      </trkpt>
      <trkpt lat="45.37935" lon="4.43768">
        <ele>934.3515625</ele>
      </trkpt>
      <trkpt lat="45.37937" lon="4.43779">
        <ele>933.66796875</ele>
      </trkpt>
      <trkpt lat="45.37939" lon="4.43788">
        <ele>932.94921875</ele>
      </trkpt>
      <trkpt lat="45.37943" lon="4.43798">
        <ele>932.4609375</ele>
      </trkpt>
      <trkpt lat="45.37946" lon="4.43807">
        <ele>931.67578125</ele>
      </trkpt>
      <trkpt lat="45.3795" lon="4.43816">
        <ele>930.80078125</ele>
      </trkpt>
      <trkpt lat="45.37954" lon="4.43825">
        <ele>929.6328125</ele>
      </trkpt>
      <trkpt lat="45.37956" lon="4.43834">
        <ele>929.19921875</ele>
      </trkpt>
      <trkpt lat="45.37958" lon="4.43844">
        <ele>928.98828125</ele>
      </trkpt>
      <trkpt lat="45.37963" lon="4.43851">
        <ele>928.94921875</ele>
      </trkpt>
      <trkpt lat="45.37968" lon="4.4386">
        <ele>929.2734375</ele>
      </trkpt>
      <trkpt lat="45.37974" lon="4.43864">
        <ele>929.51171875</ele>
      </trkpt>
      <trkpt lat="45.37972" lon="4.43863">
        <ele>929.43359375</ele>
      </trkpt>
      <trkpt lat="45.3798" lon="4.43866">
        <ele>929.82421875</ele>
      </trkpt>
      <trkpt lat="45.3799" lon="4.43868">
        <ele>930.31640625</ele>
      </trkpt>
      <trkpt lat="45.37993" lon="4.43868">
        <ele>930.390625</ele>
      </trkpt>
      <trkpt lat="45.38001" lon="4.43868">
        <ele>930.5859375</ele>
      </trkpt>
      <trkpt lat="45.38011" lon="4.43868">
        <ele>930.859375</ele>
      </trkpt>
      <trkpt lat="45.38035" lon="4.4387">
        <ele>932.62890625</ele>
      </trkpt>
      <trkpt lat="45.3806" lon="4.43878">
        <ele>935.85546875</ele>
      </trkpt>
      <trkpt lat="45.38068" lon="4.43879">
        <ele>936.58984375</ele>
      </trkpt>
      <trkpt lat="45.38083" lon="4.43884">
        <ele>937.95703125</ele>
      </trkpt>
      <trkpt lat="45.38062" lon="4.4389">
        <ele>938.9453125</ele>
      </trkpt>
      <trkpt lat="45.38078" lon="4.43895">
        <ele>940.66015625</ele>
      </trkpt>
      <trkpt lat="45.38096" lon="4.439">
        <ele>941.83203125</ele>
      </trkpt>
      <trkpt lat="45.38119" lon="4.43909">
        <ele>943.51953125</ele>
      </trkpt>
      <trkpt lat="45.38137" lon="4.43917">
        <ele>944.359375</ele>
      </trkpt>
      <trkpt lat="45.38153" lon="4.43927">
        <ele>945.3125</ele>
      </trkpt>
      <trkpt lat="45.38173" lon="4.43942">
        <ele>947.265625</ele>
      </trkpt>
      <trkpt lat="45.38189" lon="4.43955">
        <ele>948.5078125</ele>
      </trkpt>
      <trkpt lat="45.38193" lon="4.43958">
        <ele>948.56640625</ele>
      </trkpt>
      <trkpt lat="45.38214" lon="4.43978">
        <ele>948.85546875</ele>
      </trkpt>
      <trkpt lat="45.38253" lon="4.44028">
        <ele>949.79296875</ele>
      </trkpt>
      <trkpt lat="45.38252" lon="4.44033">
        <ele>950.28515625</ele>
      </trkpt>
      <trkpt lat="45.38252" lon="4.44041">
        <ele>950.796875</ele>
      </trkpt>
      <trkpt lat="45.38252" lon="4.44049">
        <ele>951.38671875</ele>
      </trkpt>
      <trkpt lat="45.38254" lon="4.44059">
        <ele>951.7109375</ele>
      </trkpt>
      <trkpt lat="45.38256" lon="4.44069">
        <ele>951.5546875</ele>
      </trkpt>
      <trkpt lat="45.38257" lon="4.44074">
        <ele>951.31640625</ele>
      </trkpt>
      <trkpt lat="45.3826" lon="4.44082">
        <ele>950.63671875</ele>
      </trkpt>
      <trkpt lat="45.38249" lon="4.44098">
        <ele>952.625</ele>
      </trkpt>
      <trkpt lat="45.38235" lon="4.44121">
        <ele>955.92578125</ele>
      </trkpt>
      <trkpt lat="45.38227" lon="4.44142">
        <ele>958.51171875</ele>
      </trkpt>
      <trkpt lat="45.38219" lon="4.44155">
        <ele>960.7578125</ele>
      </trkpt>
      <trkpt lat="45.38228" lon="4.44182">
        <ele>959.01953125</ele>
      </trkpt>
      <trkpt lat="45.38232" lon="4.44199">
        <ele>958.1484375</ele>
      </trkpt>
      <trkpt lat="45.38237" lon="4.4421">
        <ele>957.2109375</ele>
      </trkpt>
      <trkpt lat="45.38239" lon="4.44226">
        <ele>956.9296875</ele>
      </trkpt>
      <trkpt lat="45.38239" lon="4.44263">
        <ele>955.8203125</ele>
      </trkpt>
      <trkpt lat="45.38237" lon="4.44278">
        <ele>955.83984375</ele>
      </trkpt>
      <trkpt lat="45.3823" lon="4.44317">
        <ele>953.66015625</ele>
      </trkpt>
      <trkpt lat="45.3822" lon="4.44349">
        <ele>951.5234375</ele>
      </trkpt>
      <trkpt lat="45.38209" lon="4.44379">
        <ele>948.41015625</ele>
      </trkpt>
      <trkpt lat="45.38196" lon="4.44402">
        <ele>946.62890625</ele>
      </trkpt>
      <trkpt lat="45.3818" lon="4.44424">
        <ele>945.40234375</ele>
      </trkpt>
      <trkpt lat="45.38128" lon="4.44493">
        <ele>945.15234375</ele>
      </trkpt>
      <trkpt lat="45.38123" lon="4.44505">
        <ele>944.609375</ele>
      </trkpt>
      <trkpt lat="45.38119" lon="4.44519">
        <ele>943.94140625</ele>
      </trkpt>
      <trkpt lat="45.38109" lon="4.44556">
        <ele>941.59765625</ele>
      </trkpt>
      <trkpt lat="45.38099" lon="4.4458">
        <ele>940.140625</ele>
      </trkpt>
      <trkpt lat="45.38078" lon="4.44631">
        <ele>937.09375</ele>
      </trkpt>
      <trkpt lat="45.3807" lon="4.44644">
        <ele>936.76953125</ele>
      </trkpt>
      <trkpt lat="45.38058" lon="4.44664">
        <ele>936.45703125</ele>
      </trkpt>
      <trkpt lat="45.38042" lon="4.44694">
        <ele>934.6953125</ele>
      </trkpt>
      <trkpt lat="45.38037" lon="4.44705">
        <ele>933.82421875</ele>
      </trkpt>
      <trkpt lat="45.38012" lon="4.4474">
        <ele>933.96875</ele>
      </trkpt>
      <trkpt lat="45.38009" lon="4.44752">
        <ele>932.79296875</ele>
      </trkpt>
      <trkpt lat="45.38001" lon="4.44769">
        <ele>932.375</ele>
      </trkpt>
      <trkpt lat="45.37992" lon="4.44796">
        <ele>930.86328125</ele>
      </trkpt>
      <trkpt lat="45.37985" lon="4.44818">
        <ele>930.7890625</ele>
      </trkpt>
      <trkpt lat="45.37978" lon="4.44841">
        <ele>931.109375</ele>
      </trkpt>
      <trkpt lat="45.37974" lon="4.44864">
        <ele>931.109375</ele>
      </trkpt>
      <trkpt lat="45.37972" lon="4.44879">
        <ele>930.83984375</ele>
      </trkpt>
      <trkpt lat="45.37969" lon="4.44899">
        <ele>930.30859375</ele>
      </trkpt>
      <trkpt lat="45.3797" lon="4.44916">
        <ele>929.28515625</ele>
      </trkpt>
      <trkpt lat="45.37973" lon="4.44938">
        <ele>927.69921875</ele>
      </trkpt>
      <trkpt lat="45.37973" lon="4.44954">
        <ele>926.7890625</ele>
      </trkpt>
      <trkpt lat="45.37974" lon="4.44958">
        <ele>926.55859375</ele>
      </trkpt>
      <trkpt lat="45.37979" lon="4.44983">
        <ele>923.640625</ele>
      </trkpt>
      <trkpt lat="45.37981" lon="4.45001">
        <ele>922.171875</ele>
      </trkpt>
      <trkpt lat="45.37983" lon="4.45036">
        <ele>920.0546875</ele>
      </trkpt>
      <trkpt lat="45.37982" lon="4.45049">
        <ele>919.94921875</ele>
      </trkpt>
      <trkpt lat="45.37982" lon="4.45064">
        <ele>919.40234375</ele>
      </trkpt>
      <trkpt lat="45.37981" lon="4.45103">
        <ele>918.6796875</ele>
      </trkpt>
      <trkpt lat="45.37983" lon="4.4511">
        <ele>917.765625</ele>
      </trkpt>
      <trkpt lat="45.37987" lon="4.45118">
        <ele>916.49609375</ele>
      </trkpt>
      <trkpt lat="45.37991" lon="4.45127">
        <ele>914.203125</ele>
      </trkpt>
      <trkpt lat="45.3799" lon="4.45137">
        <ele>913.44921875</ele>
      </trkpt>
      <trkpt lat="45.3799" lon="4.45152">
        <ele>911.890625</ele>
      </trkpt>
      <trkpt lat="45.37988" lon="4.45166">
        <ele>911.24609375</ele>
      </trkpt>
      <trkpt lat="45.37985" lon="4.45174">
        <ele>911.25390625</ele>
      </trkpt>
      <trkpt lat="45.37943" lon="4.45252">
        <ele>913.734375</ele>
      </trkpt>
      <trkpt lat="45.37923" lon="4.4529">
        <ele>907.56640625</ele>
      </trkpt>
      <trkpt lat="45.37911" lon="4.45303">
        <ele>903.203125</ele>
      </trkpt>
      <trkpt lat="45.37904" lon="4.45309">
        <ele>900.79296875</ele>
      </trkpt>
      <trkpt lat="45.37901" lon="4.45312">
        <ele>899.4609375</ele>
      </trkpt>
      <trkpt lat="45.37886" lon="4.45318">
        <ele>897.6015625</ele>
      </trkpt>
      <trkpt lat="45.37867" lon="4.45319">
        <ele>897.890625</ele>
      </trkpt>
      <trkpt lat="45.37856" lon="4.45318">
        <ele>898.6796875</ele>
      </trkpt>
      <trkpt lat="45.37876" lon="4.45326">
        <ele>894.80078125</ele>
      </trkpt>
      <trkpt lat="45.37892" lon="4.45333">
        <ele>891.078125</ele>
      </trkpt>
      <trkpt lat="45.37907" lon="4.45341">
        <ele>886.7890625</ele>
      </trkpt>
      <trkpt lat="45.37923" lon="4.45353">
        <ele>883.25390625</ele>
      </trkpt>
      <trkpt lat="45.37927" lon="4.45356">
        <ele>882.35546875</ele>
      </trkpt>
      <trkpt lat="45.37942" lon="4.45366">
        <ele>878.25390625</ele>
      </trkpt>
      <trkpt lat="45.37955" lon="4.45371">
        <ele>875.51953125</ele>
      </trkpt>
      <trkpt lat="45.37965" lon="4.45373">
        <ele>872.97265625</ele>
      </trkpt>
      <trkpt lat="45.37974" lon="4.45374">
        <ele>870.87109375</ele>
      </trkpt>
      <trkpt lat="45.37985" lon="4.4537">
        <ele>870.04296875</ele>
      </trkpt>
      <trkpt lat="45.37983" lon="4.45383">
        <ele>866.01171875</ele>
      </trkpt>
      <trkpt lat="45.37976" lon="4.45401">
        <ele>860.71875</ele>
      </trkpt>
      <trkpt lat="45.37961" lon="4.45409">
        <ele>860.19921875</ele>
      </trkpt>
      <trkpt lat="45.37942" lon="4.45413">
        <ele>862.15234375</ele>
      </trkpt>
      <trkpt lat="45.37925" lon="4.45412">
        <ele>865.296875</ele>
      </trkpt>
      <trkpt lat="45.37914" lon="4.45411">
        <ele>867.55078125</ele>
      </trkpt>
      <trkpt lat="45.37903" lon="4.4541">
        <ele>869.515625</ele>
      </trkpt>
      <trkpt lat="45.37887" lon="4.45409">
        <ele>875.59375</ele>
      </trkpt>
      <trkpt lat="45.37884" lon="4.45409">
        <ele>876.62109375</ele>
      </trkpt>
      <trkpt lat="45.3788" lon="4.4541">
        <ele>878.03125</ele>
      </trkpt>
      <trkpt lat="45.37874" lon="4.45413">
        <ele>880.4140625</ele>
      </trkpt>
      <trkpt lat="45.37872" lon="4.45422">
        <ele>880.9921875</ele>
      </trkpt>
      <trkpt lat="45.37874" lon="4.45431">
        <ele>879.76171875</ele>
      </trkpt>
      <trkpt lat="45.37877" lon="4.45443">
        <ele>877.8828125</ele>
      </trkpt>
      <trkpt lat="45.37882" lon="4.45451">
        <ele>875.05859375</ele>
      </trkpt>
      <trkpt lat="45.37884" lon="4.45459">
        <ele>872.94921875</ele>
      </trkpt>
      <trkpt lat="45.3789" lon="4.45481">
        <ele>866.32421875</ele>
      </trkpt>
      <trkpt lat="45.37892" lon="4.45494">
        <ele>863.30859375</ele>
      </trkpt>
      <trkpt lat="45.37893" lon="4.45513">
        <ele>858.72265625</ele>
      </trkpt>
      <trkpt lat="45.37887" lon="4.45531">
        <ele>854.7109375</ele>
      </trkpt>
      <trkpt lat="45.37871" lon="4.45546">
        <ele>853.9296875</ele>
      </trkpt>
      <trkpt lat="45.37848" lon="4.4556">
        <ele>854.296875</ele>
      </trkpt>
      <trkpt lat="45.37826" lon="4.45575">
        <ele>857.19140625</ele>
      </trkpt>
      <trkpt lat="45.37832" lon="4.45605">
        <ele>848.6015625</ele>
      </trkpt>
      <trkpt lat="45.37844" lon="4.45649">
        <ele>843.328125</ele>
      </trkpt>
      <trkpt lat="45.37843" lon="4.45645">
        <ele>843.44921875</ele>
      </trkpt>
      <trkpt lat="45.37844" lon="4.45651">
        <ele>843.3203125</ele>
      </trkpt>
      <trkpt lat="45.37851" lon="4.45672">
        <ele>842.52734375</ele>
      </trkpt>
      <trkpt lat="45.37872" lon="4.45719">
        <ele>847.734375</ele>
      </trkpt>
      <trkpt lat="45.37888" lon="4.45749">
        <ele>853.53125</ele>
      </trkpt>
      <trkpt lat="45.37887" lon="4.45754">
        <ele>853.9375</ele>
      </trkpt>
      <trkpt lat="45.37882" lon="4.45756">
        <ele>853.359375</ele>
      </trkpt>
      <trkpt lat="45.37863" lon="4.45759">
        <ele>849.82421875</ele>
      </trkpt>
      <trkpt lat="45.37855" lon="4.45762">
        <ele>848.2734375</ele>
      </trkpt>
      <trkpt lat="45.3785" lon="4.45767">
        <ele>847.5546875</ele>
      </trkpt>
      <trkpt lat="45.37849" lon="4.45777">
        <ele>847.56640625</ele>
      </trkpt>
      <trkpt lat="45.3785" lon="4.45782">
        <ele>847.96484375</ele>
      </trkpt>
      <trkpt lat="45.37854" lon="4.45786">
        <ele>848.81640625</ele>
      </trkpt>
      <trkpt lat="45.37861" lon="4.458">
        <ele>850.5625</ele>
      </trkpt>
      <trkpt lat="45.37875" lon="4.45838">
        <ele>853.234375</ele>
      </trkpt>
      <trkpt lat="45.37879" lon="4.45838">
        <ele>854.1640625</ele>
      </trkpt>
      <trkpt lat="45.37881" lon="4.45833">
        <ele>854.75390625</ele>
      </trkpt>
      <trkpt lat="45.37879" lon="4.45813">
        <ele>854.69140625</ele>
      </trkpt>
      <trkpt lat="45.37878" lon="4.45799">
        <ele>854.73046875</ele>
      </trkpt>
      <trkpt lat="45.37881" lon="4.45791">
        <ele>855.70703125</ele>
      </trkpt>
      <trkpt lat="45.37887" lon="4.45785">
        <ele>857.17578125</ele>
      </trkpt>
      <trkpt lat="45.37946" lon="4.45774">
        <ele>873.5</ele>
      </trkpt>
      <trkpt lat="45.37948" lon="4.45778">
        <ele>875.25390625</ele>
      </trkpt>
      <trkpt lat="45.37948" lon="4.45783">
        <ele>876.5859375</ele>
      </trkpt>
      <trkpt lat="45.37942" lon="4.45807">
        <ele>874.64453125</ele>
      </trkpt>
      <trkpt lat="45.37937" lon="4.45823">
        <ele>873.0546875</ele>
      </trkpt>
      <trkpt lat="45.37936" lon="4.45833">
        <ele>872.62109375</ele>
      </trkpt>
      <trkpt lat="45.37936" lon="4.45839">
        <ele>872.60546875</ele>
      </trkpt>
      <trkpt lat="45.37939" lon="4.45844">
        <ele>873.09375</ele>
      </trkpt>
      <trkpt lat="45.37943" lon="4.45843">
        <ele>874.53125</ele>
      </trkpt>
      <trkpt lat="45.37949" lon="4.45835">
        <ele>877.65625</ele>
      </trkpt>
      <trkpt lat="45.37954" lon="4.4583">
        <ele>879.69140625</ele>
      </trkpt>
      <trkpt lat="45.37962" lon="4.45829">
        <ele>882.17578125</ele>
      </trkpt>
      <trkpt lat="45.37976" lon="4.4583">
        <ele>886.3984375</ele>
      </trkpt>
      <trkpt lat="45.38005" lon="4.45838">
        <ele>896.1640625</ele>
      </trkpt>
      <trkpt lat="45.38031" lon="4.45844">
        <ele>902.0859375</ele>
      </trkpt>
      <trkpt lat="45.38057" lon="4.45853">
        <ele>908.10546875</ele>
      </trkpt>
      <trkpt lat="45.38063" lon="4.45856">
        <ele>909.80859375</ele>
      </trkpt>
      <trkpt lat="45.38082" lon="4.45866">
        <ele>913.5625</ele>
      </trkpt>
      <trkpt lat="45.38098" lon="4.45873">
        <ele>916.25390625</ele>
      </trkpt>
      <trkpt lat="45.38111" lon="4.4588">
        <ele>918.796875</ele>
      </trkpt>
      <trkpt lat="45.38116" lon="4.45884">
        <ele>920.3515625</ele>
      </trkpt>
      <trkpt lat="45.38119" lon="4.45889">
        <ele>921.94921875</ele>
      </trkpt>
      <trkpt lat="45.38119" lon="4.45894">
        <ele>923.0703125</ele>
      </trkpt>
      <trkpt lat="45.38116" lon="4.45897">
        <ele>923.37109375</ele>
      </trkpt>
      <trkpt lat="45.3811" lon="4.45901">
        <ele>922.9375</ele>
      </trkpt>
      <trkpt lat="45.38098" lon="4.4591">
        <ele>921.59765625</ele>
      </trkpt>
      <trkpt lat="45.38087" lon="4.45919">
        <ele>919.66796875</ele>
      </trkpt>
      <trkpt lat="45.3808" lon="4.45927">
        <ele>917.8046875</ele>
      </trkpt>
      <trkpt lat="45.38076" lon="4.45936">
        <ele>916.27734375</ele>
      </trkpt>
      <trkpt lat="45.38077" lon="4.45947">
        <ele>915.8828125</ele>
      </trkpt>
      <trkpt lat="45.38079" lon="4.45955">
        <ele>915.640625</ele>
      </trkpt>
      <trkpt lat="45.38083" lon="4.4596">
        <ele>916.25</ele>
      </trkpt>
      <trkpt lat="45.38088" lon="4.45965">
        <ele>917.59765625</ele>
      </trkpt>
      <trkpt lat="45.38096" lon="4.45966">
        <ele>920.32421875</ele>
      </trkpt>
      <trkpt lat="45.38111" lon="4.45967">
        <ele>926.01953125</ele>
      </trkpt>
      <trkpt lat="45.38122" lon="4.4597">
        <ele>930.14453125</ele>
      </trkpt>
      <trkpt lat="45.38136" lon="4.45981">
        <ele>933.94921875</ele>
      </trkpt>
      <trkpt lat="45.38149" lon="4.45998">
        <ele>938.4140625</ele>
      </trkpt>
      <trkpt lat="45.38158" lon="4.46018">
        <ele>942.3359375</ele>
      </trkpt>
      <trkpt lat="45.38173" lon="4.4605">
        <ele>949.48046875</ele>
      </trkpt>
      <trkpt lat="45.38182" lon="4.46074">
        <ele>953.08203125</ele>
      </trkpt>
      <trkpt lat="45.3819" lon="4.46096">
        <ele>954.48046875</ele>
      </trkpt>
      <trkpt lat="45.38201" lon="4.46117">
        <ele>957.46484375</ele>
      </trkpt>
      <trkpt lat="45.38215" lon="4.4615">
        <ele>962.48046875</ele>
      </trkpt>
      <trkpt lat="45.38248" lon="4.46213">
        <ele>972.23046875</ele>
      </trkpt>
      <trkpt lat="45.38258" lon="4.46233">
        <ele>973.640625</ele>
      </trkpt>
      <trkpt lat="45.38276" lon="4.46267">
        <ele>975.125</ele>
      </trkpt>
      <trkpt lat="45.38299" lon="4.46302">
        <ele>979.1015625</ele>
      </trkpt>
      <trkpt lat="45.3831" lon="4.46317">
        <ele>980.63671875</ele>
      </trkpt>
      <trkpt lat="45.38325" lon="4.46339">
        <ele>984.19921875</ele>
      </trkpt>
      <trkpt lat="45.38331" lon="4.46345">
        <ele>985.93359375</ele>
      </trkpt>
      <trkpt lat="45.38359" lon="4.46375">
        <ele>992.03515625</ele>
      </trkpt>
      <trkpt lat="45.38382" lon="4.46405">
        <ele>995.26953125</ele>
      </trkpt>
      <trkpt lat="45.38445" lon="4.46483">
        <ele>999.23046875</ele>
      </trkpt>
      <trkpt lat="45.38484" lon="4.46529">
        <ele>999.09375</ele>
      </trkpt>
      <trkpt lat="45.38488" lon="4.46533">
        <ele>999.05859375</ele>
      </trkpt>
      <trkpt lat="45.38508" lon="4.46563">
        <ele>1000.140625</ele>
      </trkpt>
      <trkpt lat="45.38547" lon="4.46621">
        <ele>1002.7109375</ele>
      </trkpt>
      <trkpt lat="45.3859" lon="4.46646">
        <ele>1007.01953125</ele>
      </trkpt>
      <trkpt lat="45.38593" lon="4.46648">
        <ele>1007.21875</ele>
      </trkpt>
      <trkpt lat="45.38596" lon="4.46651">
        <ele>1007.390625</ele>
      </trkpt>
      <trkpt lat="45.38615" lon="4.4667">
        <ele>1008.43359375</ele>
      </trkpt>
      <trkpt lat="45.38642" lon="4.46704">
        <ele>1009.625</ele>
      </trkpt>
      <trkpt lat="45.38675" lon="4.46739">
        <ele>1011.296875</ele>
      </trkpt>
      <trkpt lat="45.38696" lon="4.46757">
        <ele>1011.67578125</ele>
      </trkpt>
      <trkpt lat="45.387" lon="4.46762">
        <ele>1011.68359375</ele>
      </trkpt>
      <trkpt lat="45.38717" lon="4.46772">
        <ele>1011.90234375</ele>
      </trkpt>
      <trkpt lat="45.38732" lon="4.46778">
        <ele>1012.21484375</ele>
      </trkpt>
      <trkpt lat="45.38744" lon="4.46778">
        <ele>1012.640625</ele>
      </trkpt>
      <trkpt lat="45.38757" lon="4.46791">
        <ele>1011.6015625</ele>
      </trkpt>
      <trkpt lat="45.38817" lon="4.46843">
        <ele>1010.55859375</ele>
      </trkpt>
      <trkpt lat="45.38823" lon="4.46849">
        <ele>1011.3984375</ele>
      </trkpt>
      <trkpt lat="45.38827" lon="4.46855">
        <ele>1011.6015625</ele>
      </trkpt>
      <trkpt lat="45.38831" lon="4.46864">
        <ele>1011.890625</ele>
      </trkpt>
      <trkpt lat="45.38836" lon="4.46878">
        <ele>1012.10546875</ele>
      </trkpt>
      <trkpt lat="45.38846" lon="4.46908">
        <ele>1013.05859375</ele>
      </trkpt>
      <trkpt lat="45.38851" lon="4.46934">
        <ele>1014.21875</ele>
      </trkpt>
      <trkpt lat="45.38859" lon="4.46925">
        <ele>1015.83984375</ele>
      </trkpt>
      <trkpt lat="45.38863" lon="4.46915">
        <ele>1016.76953125</ele>
      </trkpt>
      <trkpt lat="45.38866" lon="4.46905">
        <ele>1017.46484375</ele>
      </trkpt>
      <trkpt lat="45.38897" lon="4.46861">
        <ele>1024.30859375</ele>
      </trkpt>
      <trkpt lat="45.3892" lon="4.46835">
        <ele>1028.015625</ele>
      </trkpt>
      <trkpt lat="45.38939" lon="4.4682">
        <ele>1030.56640625</ele>
      </trkpt>
      <trkpt lat="45.38948" lon="4.46826">
        <ele>1032.015625</ele>
      </trkpt>
      <trkpt lat="45.38965" lon="4.46841">
        <ele>1035.28515625</ele>
      </trkpt>
      <trkpt lat="45.38982" lon="4.46858">
        <ele>1038.6875</ele>
      </trkpt>
      <trkpt lat="45.38997" lon="4.4688">
        <ele>1042.375</ele>
      </trkpt>
      <trkpt lat="45.39021" lon="4.46916">
        <ele>1048.140625</ele>
      </trkpt>
      <trkpt lat="45.39043" lon="4.46952">
        <ele>1053.61328125</ele>
      </trkpt>
      <trkpt lat="45.3907" lon="4.47005">
        <ele>1059.30078125</ele>
      </trkpt>
      <trkpt lat="45.3908" lon="4.4702">
        <ele>1060.37109375</ele>
      </trkpt>
      <trkpt lat="45.39109" lon="4.47043">
        <ele>1064.49609375</ele>
      </trkpt>
      <trkpt lat="45.39133" lon="4.47063">
        <ele>1067.73828125</ele>
      </trkpt>
      <trkpt lat="45.39158" lon="4.47087">
        <ele>1068.40234375</ele>
      </trkpt>
      <trkpt lat="45.3917" lon="4.47101">
        <ele>1068.83203125</ele>
      </trkpt>
      <trkpt lat="45.39186" lon="4.47123">
        <ele>1069.1953125</ele>
      </trkpt>
      <trkpt lat="45.39227" lon="4.47175">
        <ele>1069.9453125</ele>
      </trkpt>
      <trkpt lat="45.39233" lon="4.47182">
        <ele>1070.4921875</ele>
      </trkpt>
      <trkpt lat="45.39236" lon="4.47173">
        <ele>1071.3671875</ele>
      </trkpt>
      <trkpt lat="45.39239" lon="4.47164">
        <ele>1072.3203125</ele>
      </trkpt>
      <trkpt lat="45.3924" lon="4.47242">
        <ele>1070.0390625</ele>
      </trkpt>
      <trkpt lat="45.39241" lon="4.4725">
        <ele>1070.23046875</ele>
      </trkpt>
      <trkpt lat="45.39242" lon="4.4733">
        <ele>1070.23828125</ele>
      </trkpt>
      <trkpt lat="45.39236" lon="4.47395">
        <ele>1069.19140625</ele>
      </trkpt>
      <trkpt lat="45.39233" lon="4.4742">
        <ele>1068.3828125</ele>
      </trkpt>
      <trkpt lat="45.39231" lon="4.47454">
        <ele>1067.5234375</ele>
      </trkpt>
      <trkpt lat="45.39229" lon="4.47488">
        <ele>1066.6328125</ele>
      </trkpt>
      <trkpt lat="45.39227" lon="4.47522">
        <ele>1065.78515625</ele>
      </trkpt>
      <trkpt lat="45.39224" lon="4.47549">
        <ele>1065.0078125</ele>
      </trkpt>
      <trkpt lat="45.39215" lon="4.47596">
        <ele>1063.71875</ele>
      </trkpt>
      <trkpt lat="45.39213" lon="4.4763">
        <ele>1063.15625</ele>
      </trkpt>
      <trkpt lat="45.39206" lon="4.47676">
        <ele>1061.88671875</ele>
      </trkpt>
      <trkpt lat="45.39206" lon="4.47692">
        <ele>1061.453125</ele>
      </trkpt>
      <trkpt lat="45.39203" lon="4.47696">
        <ele>1061.24609375</ele>
      </trkpt>
      <trkpt lat="45.39186" lon="4.47747">
        <ele>1059.73828125</ele>
      </trkpt>
      <trkpt lat="45.3918" lon="4.47767">
        <ele>1059.2890625</ele>
      </trkpt>
      <trkpt lat="45.39173" lon="4.47795">
        <ele>1057.73828125</ele>
      </trkpt>
      <trkpt lat="45.3917" lon="4.47824">
        <ele>1055.828125</ele>
      </trkpt>
      <trkpt lat="45.39168" lon="4.47892">
        <ele>1052.078125</ele>
      </trkpt>
      <trkpt lat="45.39169" lon="4.479">
        <ele>1051.8828125</ele>
      </trkpt>
      <trkpt lat="45.39171" lon="4.4792">
        <ele>1051.34375</ele>
      </trkpt>
      <trkpt lat="45.39171" lon="4.47932">
        <ele>1050.91796875</ele>
      </trkpt>
      <trkpt lat="45.3917" lon="4.47945">
        <ele>1050.359375</ele>
      </trkpt>
      <trkpt lat="45.39168" lon="4.47959">
        <ele>1049.3828125</ele>
      </trkpt>
      <trkpt lat="45.39166" lon="4.47972">
        <ele>1048.38671875</ele>
      </trkpt>
      <trkpt lat="45.3916" lon="4.47986">
        <ele>1047.14453125</ele>
      </trkpt>
      <trkpt lat="45.39131" lon="4.48033">
        <ele>1043.70703125</ele>
      </trkpt>
      <trkpt lat="45.39106" lon="4.48064">
        <ele>1041.8828125</ele>
      </trkpt>
      <trkpt lat="45.39097" lon="4.48077">
        <ele>1040.96484375</ele>
      </trkpt>
    </trkseg>
  </trk>
  <trk>
    <name><![CDATA[3 barbanche montaron equestre 24.8]]></name>
    <extensions>
      <line xmlns="http://www.topografix.com/GPX/gpx_style/0/2">
        <color>0000FF</color>
        <width>4</width>
      </line>
    </extensions>
    <trkseg>
      <trkpt lat="45.39073" lon="4.4811">
        <ele>1039.23046875</ele>
      </trkpt>
      <trkpt lat="45.3905" lon="4.48141">
        <ele>1037.58203125</ele>
      </trkpt>
      <trkpt lat="45.38995" lon="4.48209">
        <ele>1035.7421875</ele>
      </trkpt>
      <trkpt lat="45.38973" lon="4.48236">
        <ele>1036.61328125</ele>
      </trkpt>
      <trkpt lat="45.38969" lon="4.48237">
        <ele>1036.78125</ele>
      </trkpt>
      <trkpt lat="45.38952" lon="4.48264">
        <ele>1038.40625</ele>
      </trkpt>
      <trkpt lat="45.38934" lon="4.48287">
        <ele>1039.48046875</ele>
      </trkpt>
      <trkpt lat="45.38931" lon="4.48292">
        <ele>1039.62109375</ele>
      </trkpt>
      <trkpt lat="45.38916" lon="4.48308">
        <ele>1040.41015625</ele>
      </trkpt>
      <trkpt lat="45.38901" lon="4.48324">
        <ele>1041.515625</ele>
      </trkpt>
      <trkpt lat="45.38868" lon="4.48362">
        <ele>1044.20703125</ele>
      </trkpt>
      <trkpt lat="45.38846" lon="4.48382">
        <ele>1045.7734375</ele>
      </trkpt>
      <trkpt lat="45.38834" lon="4.4839">
        <ele>1046.76171875</ele>
      </trkpt>
      <trkpt lat="45.38822" lon="4.48391">
        <ele>1047.625</ele>
      </trkpt>
      <trkpt lat="45.38816" lon="4.48394">
        <ele>1048.14453125</ele>
      </trkpt>
      <trkpt lat="45.38808" lon="4.48398">
        <ele>1048.8671875</ele>
      </trkpt>
      <trkpt lat="45.38792" lon="4.48411">
        <ele>1050.75</ele>
      </trkpt>
      <trkpt lat="45.38781" lon="4.4842">
        <ele>1052.4921875</ele>
      </trkpt>
      <trkpt lat="45.38765" lon="4.4843">
        <ele>1054.63671875</ele>
      </trkpt>
      <trkpt lat="45.38762" lon="4.48432">
        <ele>1055.1015625</ele>
      </trkpt>
      <trkpt lat="45.38759" lon="4.48436">
        <ele>1055.6796875</ele>
      </trkpt>
      <trkpt lat="45.38756" lon="4.48442">
        <ele>1056.3203125</ele>
      </trkpt>
      <trkpt lat="45.38752" lon="4.48447">
        <ele>1057.07421875</ele>
      </trkpt>
      <trkpt lat="45.38737" lon="4.48458">
        <ele>1059.26953125</ele>
      </trkpt>
      <trkpt lat="45.38711" lon="4.48479">
        <ele>1063.84375</ele>
      </trkpt>
      <trkpt lat="45.38688" lon="4.48501">
        <ele>1067.703125</ele>
      </trkpt>
      <trkpt lat="45.38679" lon="4.48509">
        <ele>1069.171875</ele>
      </trkpt>
      <trkpt lat="45.38657" lon="4.48523">
        <ele>1072.76953125</ele>
      </trkpt>
      <trkpt lat="45.38646" lon="4.48531">
        <ele>1074.5</ele>
      </trkpt>
      <trkpt lat="45.38642" lon="4.48536">
        <ele>1075.19140625</ele>
      </trkpt>
      <trkpt lat="45.38629" lon="4.48562">
        <ele>1077.16015625</ele>
      </trkpt>
      <trkpt lat="45.38622" lon="4.48574">
        <ele>1078.07421875</ele>
      </trkpt>
      <trkpt lat="45.38603" lon="4.48597">
        <ele>1080.46484375</ele>
      </trkpt>
      <trkpt lat="45.38585" lon="4.48623">
        <ele>1082.1640625</ele>
      </trkpt>
      <trkpt lat="45.38575" lon="4.48636">
        <ele>1083.01171875</ele>
      </trkpt>
      <trkpt lat="45.38555" lon="4.48654">
        <ele>1084.60546875</ele>
      </trkpt>
      <trkpt lat="45.38539" lon="4.48672">
        <ele>1085.56640625</ele>
      </trkpt>
      <trkpt lat="45.38535" lon="4.48678">
        <ele>1085.78125</ele>
      </trkpt>
      <trkpt lat="45.38522" lon="4.48698">
        <ele>1086.26953125</ele>
      </trkpt>
      <trkpt lat="45.38513" lon="4.48713">
        <ele>1086.61328125</ele>
      </trkpt>
      <trkpt lat="45.38497" lon="4.48738">
        <ele>1087.09765625</ele>
      </trkpt>
      <trkpt lat="45.38486" lon="4.48759">
        <ele>1087.44140625</ele>
      </trkpt>
      <trkpt lat="45.38463" lon="4.488">
        <ele>1088.35546875</ele>
      </trkpt>
      <trkpt lat="45.38447" lon="4.48834">
        <ele>1088.1015625</ele>
      </trkpt>
      <trkpt lat="45.3844" lon="4.48848">
        <ele>1087.91796875</ele>
      </trkpt>
      <trkpt lat="45.38437" lon="4.48853">
        <ele>1087.9765625</ele>
      </trkpt>
      <trkpt lat="45.38426" lon="4.48866">
        <ele>1088.24609375</ele>
      </trkpt>
      <trkpt lat="45.38408" lon="4.48888">
        <ele>1088.671875</ele>
      </trkpt>
      <trkpt lat="45.38402" lon="4.48896">
        <ele>1088.84375</ele>
      </trkpt>
      <trkpt lat="45.3837" lon="4.48941">
        <ele>1088.734375</ele>
      </trkpt>
      <trkpt lat="45.38355" lon="4.48958">
        <ele>1088.890625</ele>
      </trkpt>
      <trkpt lat="45.38338" lon="4.48975">
        <ele>1089.12109375</ele>
      </trkpt>
      <trkpt lat="45.38321" lon="4.4899">
        <ele>1089.546875</ele>
      </trkpt>
      <trkpt lat="45.38304" lon="4.49003">
        <ele>1090.0859375</ele>
      </trkpt>
      <trkpt lat="45.38289" lon="4.49016">
        <ele>1090.50390625</ele>
      </trkpt>
      <trkpt lat="45.38253" lon="4.49045">
        <ele>1092.71484375</ele>
      </trkpt>
      <trkpt lat="45.38212" lon="4.49084">
        <ele>1095.6328125</ele>
      </trkpt>
      <trkpt lat="45.38205" lon="4.49091">
        <ele>1096.09765625</ele>
      </trkpt>
      <trkpt lat="45.38191" lon="4.49102">
        <ele>1097.16015625</ele>
      </trkpt>
      <trkpt lat="45.3815" lon="4.49126">
        <ele>1098.0390625</ele>
      </trkpt>
      <trkpt lat="45.3813" lon="4.49134">
        <ele>1098.2421875</ele>
      </trkpt>
      <trkpt lat="45.38126" lon="4.49134">
        <ele>1098.5234375</ele>
      </trkpt>
      <trkpt lat="45.38122" lon="4.49133">
        <ele>1098.953125</ele>
      </trkpt>
      <trkpt lat="45.38108" lon="4.49142">
        <ele>1098.87890625</ele>
      </trkpt>
      <trkpt lat="45.38072" lon="4.49164">
        <ele>1100.09375</ele>
      </trkpt>
      <trkpt lat="45.38025" lon="4.49192">
        <ele>1101.98828125</ele>
      </trkpt>
      <trkpt lat="45.37982" lon="4.49224">
        <ele>1106.7734375</ele>
      </trkpt>
      <trkpt lat="45.37968" lon="4.49237">
        <ele>1108.26953125</ele>
      </trkpt>
      <trkpt lat="45.37949" lon="4.49256">
        <ele>1110.53125</ele>
      </trkpt>
      <trkpt lat="45.37932" lon="4.49275">
        <ele>1112.85546875</ele>
      </trkpt>
      <trkpt lat="45.37905" lon="4.49318">
        <ele>1117.72265625</ele>
      </trkpt>
      <trkpt lat="45.37879" lon="4.49368">
        <ele>1120.86328125</ele>
      </trkpt>
      <trkpt lat="45.37852" lon="4.49416">
        <ele>1124.46484375</ele>
      </trkpt>
      <trkpt lat="45.37842" lon="4.49432">
        <ele>1125.43359375</ele>
      </trkpt>
      <trkpt lat="45.37825" lon="4.49457">
        <ele>1126.16796875</ele>
      </trkpt>
      <trkpt lat="45.37815" lon="4.49465">
        <ele>1126.94921875</ele>
      </trkpt>
      <trkpt lat="45.37802" lon="4.49482">
        <ele>1127.98046875</ele>
      </trkpt>
      <trkpt lat="45.37788" lon="4.495">
        <ele>1129.44140625</ele>
      </trkpt>
      <trkpt lat="45.37782" lon="4.49507">
        <ele>1129.72265625</ele>
      </trkpt>
      <trkpt lat="45.37771" lon="4.49521">
        <ele>1129.9296875</ele>
      </trkpt>
      <trkpt lat="45.37759" lon="4.49539">
        <ele>1130.32421875</ele>
      </trkpt>
      <trkpt lat="45.37746" lon="4.49557">
        <ele>1131.35546875</ele>
      </trkpt>
      <trkpt lat="45.37723" lon="4.49592">
        <ele>1133.8203125</ele>
      </trkpt>
      <trkpt lat="45.37717" lon="4.49601">
        <ele>1134.50390625</ele>
      </trkpt>
      <trkpt lat="45.37713" lon="4.49616">
        <ele>1134.91015625</ele>
      </trkpt>
      <trkpt lat="45.37704" lon="4.49642">
        <ele>1135.84375</ele>
      </trkpt>
      <trkpt lat="45.37671" lon="4.49738">
        <ele>1141.67578125</ele>
      </trkpt>
      <trkpt lat="45.37669" lon="4.49747">
        <ele>1142.0078125</ele>
      </trkpt>
      <trkpt lat="45.37665" lon="4.49758">
        <ele>1142.82421875</ele>
      </trkpt>
      <trkpt lat="45.37648" lon="4.4986">
        <ele>1145.890625</ele>
      </trkpt>
      <trkpt lat="45.37638" lon="4.49907">
        <ele>1147.40234375</ele>
      </trkpt>
      <trkpt lat="45.37631" lon="4.49929">
        <ele>1148.21484375</ele>
      </trkpt>
      <trkpt lat="45.37625" lon="4.49947">
        <ele>1148.90234375</ele>
      </trkpt>
      <trkpt lat="45.37616" lon="4.49962">
        <ele>1150.19140625</ele>
      </trkpt>
      <trkpt lat="45.37604" lon="4.49984">
        <ele>1151.875</ele>
      </trkpt>
      <trkpt lat="45.3757" lon="4.50045">
        <ele>1154.33984375</ele>
      </trkpt>
      <trkpt lat="45.37535" lon="4.50095">
        <ele>1157.00390625</ele>
      </trkpt>
      <trkpt lat="45.37488" lon="4.50169">
        <ele>1160.75390625</ele>
      </trkpt>
      <trkpt lat="45.37493" lon="4.50161">
        <ele>1160.265625</ele>
      </trkpt>
      <trkpt lat="45.37488" lon="4.50169">
        <ele>1160.75390625</ele>
      </trkpt>
      <trkpt lat="45.37448" lon="4.50247">
        <ele>1162.67578125</ele>
      </trkpt>
      <trkpt lat="45.37424" lon="4.50288">
        <ele>1162.67578125</ele>
      </trkpt>
      <trkpt lat="45.37405" lon="4.50313">
        <ele>1163.48828125</ele>
      </trkpt>
      <trkpt lat="45.374" lon="4.50316">
        <ele>1163.37890625</ele>
      </trkpt>
      <trkpt lat="45.37396" lon="4.5032">
        <ele>1163.13671875</ele>
      </trkpt>
      <trkpt lat="45.37389" lon="4.50323">
        <ele>1162.4375</ele>
      </trkpt>
      <trkpt lat="45.37381" lon="4.50321">
        <ele>1161.66015625</ele>
      </trkpt>
      <trkpt lat="45.37377" lon="4.5032">
        <ele>1161.1953125</ele>
      </trkpt>
      <trkpt lat="45.37375" lon="4.50335">
        <ele>1161.51171875</ele>
      </trkpt>
      <trkpt lat="45.37374" lon="4.50342">
        <ele>1161.7421875</ele>
      </trkpt>
      <trkpt lat="45.37371" lon="4.50358">
        <ele>1162.41796875</ele>
      </trkpt>
      <trkpt lat="45.37364" lon="4.50372">
        <ele>1162.953125</ele>
      </trkpt>
      <trkpt lat="45.37356" lon="4.50386">
        <ele>1163.66015625</ele>
      </trkpt>
      <trkpt lat="45.37313" lon="4.50456">
        <ele>1165.75</ele>
      </trkpt>
      <trkpt lat="45.3728" lon="4.5051">
        <ele>1169.2421875</ele>
      </trkpt>
      <trkpt lat="45.3727" lon="4.5053">
        <ele>1170.44140625</ele>
      </trkpt>
      <trkpt lat="45.37246" lon="4.50578">
        <ele>1173</ele>
      </trkpt>
      <trkpt lat="45.37226" lon="4.50629">
        <ele>1174.515625</ele>
      </trkpt>
      <trkpt lat="45.37214" lon="4.50672">
        <ele>1175.625</ele>
      </trkpt>
      <trkpt lat="45.37203" lon="4.50713">
        <ele>1175.7890625</ele>
      </trkpt>
      <trkpt lat="45.37196" lon="4.50759">
        <ele>1175.71484375</ele>
      </trkpt>
      <trkpt lat="45.37194" lon="4.50783">
        <ele>1175.6640625</ele>
      </trkpt>
      <trkpt lat="45.37193" lon="4.50803">
        <ele>1174.87890625</ele>
      </trkpt>
      <trkpt lat="45.37194" lon="4.50821">
        <ele>1174.4453125</ele>
      </trkpt>
      <trkpt lat="45.37198" lon="4.50862">
        <ele>1174.125</ele>
      </trkpt>
      <trkpt lat="45.37203" lon="4.50907">
        <ele>1174.36328125</ele>
      </trkpt>
      <trkpt lat="45.37202" lon="4.50924">
        <ele>1174.20703125</ele>
      </trkpt>
      <trkpt lat="45.37203" lon="4.50935">
        <ele>1174.36328125</ele>
      </trkpt>
      <trkpt lat="45.37201" lon="4.50956">
        <ele>1174.14453125</ele>
      </trkpt>
      <trkpt lat="45.37192" lon="4.51039">
        <ele>1173.18359375</ele>
      </trkpt>
      <trkpt lat="45.37185" lon="4.51065">
        <ele>1172.3203125</ele>
      </trkpt>
      <trkpt lat="45.37177" lon="4.51093">
        <ele>1170.91796875</ele>
      </trkpt>
      <trkpt lat="45.37175" lon="4.51101">
        <ele>1170.6328125</ele>
      </trkpt>
      <trkpt lat="45.3717" lon="4.51126">
        <ele>1169.17578125</ele>
      </trkpt>
      <trkpt lat="45.37167" lon="4.51141">
        <ele>1168.109375</ele>
      </trkpt>
      <trkpt lat="45.37159" lon="4.51158">
        <ele>1166.59765625</ele>
      </trkpt>
      <trkpt lat="45.3715" lon="4.51177">
        <ele>1164.91796875</ele>
      </trkpt>
      <trkpt lat="45.37137" lon="4.51198">
        <ele>1163.14453125</ele>
      </trkpt>
      <trkpt lat="45.37129" lon="4.51209">
        <ele>1162.47265625</ele>
      </trkpt>
      <trkpt lat="45.37122" lon="4.51221">
        <ele>1162.06640625</ele>
      </trkpt>
      <trkpt lat="45.37106" lon="4.51242">
        <ele>1162.2109375</ele>
      </trkpt>
      <trkpt lat="45.37096" lon="4.51256">
        <ele>1162.8671875</ele>
      </trkpt>
      <trkpt lat="45.37078" lon="4.51282">
        <ele>1165.21484375</ele>
      </trkpt>
      <trkpt lat="45.37071" lon="4.51286">
        <ele>1165.87109375</ele>
      </trkpt>
      <trkpt lat="45.37062" lon="4.51291">
        <ele>1166.29296875</ele>
      </trkpt>
      <trkpt lat="45.37057" lon="4.51292">
        <ele>1166.390625</ele>
      </trkpt>
      <trkpt lat="45.37052" lon="4.51294">
        <ele>1166.515625</ele>
      </trkpt>
      <trkpt lat="45.37047" lon="4.51292">
        <ele>1166.5546875</ele>
      </trkpt>
      <trkpt lat="45.37048" lon="4.51287">
        <ele>1166.29296875</ele>
      </trkpt>
      <trkpt lat="45.37048" lon="4.51281">
        <ele>1166</ele>
      </trkpt>
      <trkpt lat="45.37046" lon="4.51275">
        <ele>1165.57421875</ele>
      </trkpt>
      <trkpt lat="45.37041" lon="4.51271">
        <ele>1165.21875</ele>
      </trkpt>
      <trkpt lat="45.37036" lon="4.5127">
        <ele>1165.11328125</ele>
      </trkpt>
      <trkpt lat="45.37032" lon="4.51273">
        <ele>1165.3671875</ele>
      </trkpt>
      <trkpt lat="45.37028" lon="4.51277">
        <ele>1165.7265625</ele>
      </trkpt>
      <trkpt lat="45.37027" lon="4.51285">
        <ele>1166.30859375</ele>
      </trkpt>
      <trkpt lat="45.37028" lon="4.51292">
        <ele>1166.83203125</ele>
      </trkpt>
      <trkpt lat="45.37024" lon="4.51296">
        <ele>1167.14453125</ele>
      </trkpt>
      <trkpt lat="45.37017" lon="4.513">
        <ele>1167.66015625</ele>
      </trkpt>
      <trkpt lat="45.36993" lon="4.51312">
        <ele>1167.90625</ele>
      </trkpt>
      <trkpt lat="45.36967" lon="4.51326">
        <ele>1168.23828125</ele>
      </trkpt>
      <trkpt lat="45.36935" lon="4.51354">
        <ele>1168.515625</ele>
      </trkpt>
      <trkpt lat="45.36926" lon="4.51365">
        <ele>1168.703125</ele>
      </trkpt>
      <trkpt lat="45.3691" lon="4.51384">
        <ele>1169</ele>
      </trkpt>
      <trkpt lat="45.36902" lon="4.51404">
        <ele>1169.80859375</ele>
      </trkpt>
      <trkpt lat="45.36897" lon="4.51414">
        <ele>1169.69140625</ele>
      </trkpt>
      <trkpt lat="45.36891" lon="4.51429">
        <ele>1169.90625</ele>
      </trkpt>
      <trkpt lat="45.36881" lon="4.51454">
        <ele>1169.88671875</ele>
      </trkpt>
      <trkpt lat="45.36873" lon="4.51483">
        <ele>1169.91015625</ele>
      </trkpt>
      <trkpt lat="45.36868" lon="4.51519">
        <ele>1170.48828125</ele>
      </trkpt>
      <trkpt lat="45.36864" lon="4.51542">
        <ele>1170.59375</ele>
      </trkpt>
      <trkpt lat="45.36855" lon="4.51598">
        <ele>1171.45703125</ele>
      </trkpt>
      <trkpt lat="45.36849" lon="4.5163">
        <ele>1172.7890625</ele>
      </trkpt>
      <trkpt lat="45.36847" lon="4.51643">
        <ele>1173.578125</ele>
      </trkpt>
      <trkpt lat="45.36844" lon="4.51651">
        <ele>1174.0546875</ele>
      </trkpt>
      <trkpt lat="45.36832" lon="4.51678">
        <ele>1175.80078125</ele>
      </trkpt>
      <trkpt lat="45.36828" lon="4.51689">
        <ele>1176.421875</ele>
      </trkpt>
      <trkpt lat="45.36827" lon="4.51702">
        <ele>1176.96484375</ele>
      </trkpt>
      <trkpt lat="45.36824" lon="4.51711">
        <ele>1177.53515625</ele>
      </trkpt>
      <trkpt lat="45.36806" lon="4.51754">
        <ele>1180.7890625</ele>
      </trkpt>
      <trkpt lat="45.36792" lon="4.51797">
        <ele>1184.2265625</ele>
      </trkpt>
      <trkpt lat="45.3679" lon="4.51802">
        <ele>1184.4921875</ele>
      </trkpt>
      <trkpt lat="45.36787" lon="4.51813">
        <ele>1185.02734375</ele>
      </trkpt>
      <trkpt lat="45.36785" lon="4.51822">
        <ele>1185.484375</ele>
      </trkpt>
      <trkpt lat="45.36777" lon="4.5182">
        <ele>1186.265625</ele>
      </trkpt>
      <trkpt lat="45.3677" lon="4.51819">
        <ele>1187.05859375</ele>
      </trkpt>
      <trkpt lat="45.36741" lon="4.51822">
        <ele>1190.45703125</ele>
      </trkpt>
      <trkpt lat="45.3673" lon="4.51826">
        <ele>1191.671875</ele>
      </trkpt>
      <trkpt lat="45.3671" lon="4.51833">
        <ele>1193.62109375</ele>
      </trkpt>
      <trkpt lat="45.36695" lon="4.51839">
        <ele>1195.13671875</ele>
      </trkpt>
      <trkpt lat="45.36668" lon="4.51852">
        <ele>1197.109375</ele>
      </trkpt>
      <trkpt lat="45.36663" lon="4.51858">
        <ele>1197.51953125</ele>
      </trkpt>
      <trkpt lat="45.36639" lon="4.51888">
        <ele>1200.3984375</ele>
      </trkpt>
      <trkpt lat="45.36629" lon="4.519">
        <ele>1201.515625</ele>
      </trkpt>
      <trkpt lat="45.36625" lon="4.51903">
        <ele>1201.82421875</ele>
      </trkpt>
      <trkpt lat="45.36616" lon="4.51911">
        <ele>1201.8515625</ele>
      </trkpt>
      <trkpt lat="45.36598" lon="4.51931">
        <ele>1201.92578125</ele>
      </trkpt>
      <trkpt lat="45.36581" lon="4.51955">
        <ele>1202.58984375</ele>
      </trkpt>
      <trkpt lat="45.36561" lon="4.51986">
        <ele>1203.2890625</ele>
      </trkpt>
      <trkpt lat="45.36544" lon="4.52014">
        <ele>1203.375</ele>
      </trkpt>
      <trkpt lat="45.36525" lon="4.52049">
        <ele>1203.83984375</ele>
      </trkpt>
      <trkpt lat="45.36518" lon="4.52065">
        <ele>1204.20703125</ele>
      </trkpt>
      <trkpt lat="45.36512" lon="4.52079">
        <ele>1204.66796875</ele>
      </trkpt>
      <trkpt lat="45.36495" lon="4.52115">
        <ele>1205.21484375</ele>
      </trkpt>
      <trkpt lat="45.36483" lon="4.5214">
        <ele>1205.9140625</ele>
      </trkpt>
      <trkpt lat="45.36474" lon="4.52158">
        <ele>1206.0078125</ele>
      </trkpt>
      <trkpt lat="45.36454" lon="4.52196">
        <ele>1205.84375</ele>
      </trkpt>
      <trkpt lat="45.36452" lon="4.52199">
        <ele>1205.7890625</ele>
      </trkpt>
      <trkpt lat="45.36444" lon="4.5222">
        <ele>1206.0859375</ele>
      </trkpt>
      <trkpt lat="45.36434" lon="4.52261">
        <ele>1206.92578125</ele>
      </trkpt>
      <trkpt lat="45.36421" lon="4.52328">
        <ele>1208.8671875</ele>
      </trkpt>
      <trkpt lat="45.36416" lon="4.52348">
        <ele>1209.11328125</ele>
      </trkpt>
      <trkpt lat="45.36409" lon="4.52371">
        <ele>1209.51171875</ele>
      </trkpt>
      <trkpt lat="45.36406" lon="4.52377">
        <ele>1209.5078125</ele>
      </trkpt>
      <trkpt lat="45.36401" lon="4.52389">
        <ele>1209.9140625</ele>
      </trkpt>
      <trkpt lat="45.3639" lon="4.52402">
        <ele>1211.375</ele>
      </trkpt>
      <trkpt lat="45.36375" lon="4.52413">
        <ele>1212.734375</ele>
      </trkpt>
      <trkpt lat="45.36362" lon="4.52419">
        <ele>1213.60546875</ele>
      </trkpt>
      <trkpt lat="45.36338" lon="4.52429">
        <ele>1215.51953125</ele>
      </trkpt>
      <trkpt lat="45.36326" lon="4.52429">
        <ele>1216.51171875</ele>
      </trkpt>
      <trkpt lat="45.36314" lon="4.52425">
        <ele>1217.23828125</ele>
      </trkpt>
      <trkpt lat="45.36306" lon="4.52421">
        <ele>1217.5</ele>
      </trkpt>
      <trkpt lat="45.36298" lon="4.52416">
        <ele>1217.7265625</ele>
      </trkpt>
      <trkpt lat="45.36286" lon="4.5241">
        <ele>1218.078125</ele>
      </trkpt>
      <trkpt lat="45.36276" lon="4.52408">
        <ele>1218.45703125</ele>
      </trkpt>
      <trkpt lat="45.36262" lon="4.52407">
        <ele>1219.1796875</ele>
      </trkpt>
      <trkpt lat="45.36262" lon="4.52407">
        <ele>1219.1796875</ele>
      </trkpt>
      <trkpt lat="45.36262" lon="4.52407">
        <ele>1219.1796875</ele>
      </trkpt>
      <trkpt lat="45.36203" lon="4.52404">
        <ele>1211.4</ele>
        <time>2021-03-23T12:42:39Z</time>
      </trkpt>
      <trkpt lat="45.36169" lon="4.52395">
        <ele>1212.36</ele>
        <time>2021-03-23T12:42:45Z</time>
      </trkpt>
      <trkpt lat="45.36163" lon="4.52393">
        <ele>1211.4</ele>
        <time>2021-03-23T12:42:46Z</time>
      </trkpt>
      <trkpt lat="45.36137" lon="4.52384">
        <ele>1210.44</ele>
        <time>2021-03-23T12:42:50Z</time>
      </trkpt>
      <trkpt lat="45.36119" lon="4.52372">
        <ele>1210.92</ele>
        <time>2021-03-23T12:42:53Z</time>
      </trkpt>
      <trkpt lat="45.36086" lon="4.52348">
        <ele>1209.96</ele>
        <time>2021-03-23T12:42:58Z</time>
      </trkpt>
      <trkpt lat="45.36035" lon="4.52333">
        <ele>1210.44</ele>
        <time>2021-03-23T12:43:06Z</time>
      </trkpt>
      <trkpt lat="45.36029" lon="4.52331">
        <ele>1210.44</ele>
        <time>2021-03-23T12:43:07Z</time>
      </trkpt>
      <trkpt lat="45.36009" lon="4.52323">
        <ele>1211.4</ele>
        <time>2021-03-23T12:43:11Z</time>
      </trkpt>
      <trkpt lat="45.35994" lon="4.52327">
        <ele>1212.36</ele>
        <time>2021-03-23T12:43:16Z</time>
      </trkpt>
      <trkpt lat="45.35976" lon="4.52344">
        <ele>1213.32</ele>
        <time>2021-03-23T12:43:21Z</time>
      </trkpt>
      <trkpt lat="45.35972" lon="4.52349">
        <ele>1214.28</ele>
        <time>2021-03-23T12:43:22Z</time>
      </trkpt>
      <trkpt lat="45.35959" lon="4.52363">
        <ele>1215.72</ele>
        <time>2021-03-23T12:43:25Z</time>
      </trkpt>
      <trkpt lat="45.35946" lon="4.52379">
        <ele>1217.65</ele>
        <time>2021-03-23T12:43:28Z</time>
      </trkpt>
      <trkpt lat="45.35935" lon="4.52391">
        <ele>1221.01</ele>
        <time>2021-03-23T12:43:31Z</time>
      </trkpt>
      <trkpt lat="45.35925" lon="4.52397">
        <ele>1221.97</ele>
        <time>2021-03-23T12:43:33Z</time>
      </trkpt>
      <trkpt lat="45.35921" lon="4.524">
        <ele>1222.93</ele>
        <time>2021-03-23T12:43:34Z</time>
      </trkpt>
      <trkpt lat="45.35916" lon="4.52402">
        <ele>1223.42</ele>
        <time>2021-03-23T12:43:35Z</time>
      </trkpt>
      <trkpt lat="45.35911" lon="4.52405">
        <ele>1224.86</ele>
        <time>2021-03-23T12:43:36Z</time>
      </trkpt>
      <trkpt lat="45.35906" lon="4.52408">
        <ele>1225.34</ele>
        <time>2021-03-23T12:43:37Z</time>
      </trkpt>
      <trkpt lat="45.35871" lon="4.52423">
        <ele>1228.22</ele>
        <time>2021-03-23T12:43:43Z</time>
      </trkpt>
      <trkpt lat="45.35866" lon="4.52425">
        <ele>1228.7</ele>
        <time>2021-03-23T12:43:44Z</time>
      </trkpt>
      <trkpt lat="45.35855" lon="4.52429">
        <ele>1230.14</ele>
        <time>2021-03-23T12:43:46Z</time>
      </trkpt>
      <trkpt lat="45.35837" lon="4.52434">
        <ele>1231.11</ele>
        <time>2021-03-23T12:43:50Z</time>
      </trkpt>
      <trkpt lat="45.35824" lon="4.52436">
        <ele>1233.99</ele>
        <time>2021-03-23T12:43:55Z</time>
      </trkpt>
      <trkpt lat="45.35824" lon="4.52436">
        <ele>1233.51</ele>
        <time>2021-03-23T12:44:01Z</time>
      </trkpt>
      <trkpt lat="45.3582" lon="4.52444">
        <ele>1233.03</ele>
        <time>2021-03-23T12:44:10Z</time>
      </trkpt>
      <trkpt lat="45.3582" lon="4.52447">
        <ele>1233.51</ele>
        <time>2021-03-23T12:44:20Z</time>
      </trkpt>
      <trkpt lat="45.35821" lon="4.52451">
        <ele>1233.51</ele>
        <time>2021-03-23T12:44:38Z</time>
      </trkpt>
      <trkpt lat="45.35812" lon="4.52459">
        <ele>1234.47</ele>
        <time>2021-03-23T12:44:42Z</time>
      </trkpt>
      <trkpt lat="45.35797" lon="4.52475">
        <ele>1236.39</ele>
        <time>2021-03-23T12:44:48Z</time>
      </trkpt>
      <trkpt lat="45.35789" lon="4.52486">
        <ele>1237.83</ele>
        <time>2021-03-23T12:44:51Z</time>
      </trkpt>
      <trkpt lat="45.35778" lon="4.525">
        <ele>1239.76</ele>
        <time>2021-03-23T12:44:56Z</time>
      </trkpt>
      <trkpt lat="45.35773" lon="4.52507">
        <ele>1241.2</ele>
        <time>2021-03-23T12:44:59Z</time>
      </trkpt>
      <trkpt lat="45.35759" lon="4.52525">
        <ele>1243.12</ele>
        <time>2021-03-23T12:45:05Z</time>
      </trkpt>
      <trkpt lat="45.3575" lon="4.52533">
        <ele>1245.04</ele>
        <time>2021-03-23T12:45:08Z</time>
      </trkpt>
      <trkpt lat="45.3573" lon="4.5255">
        <ele>1247.45</ele>
        <time>2021-03-23T12:45:15Z</time>
      </trkpt>
      <trkpt lat="45.35726" lon="4.52555">
        <ele>1247.93</ele>
        <time>2021-03-23T12:45:16Z</time>
      </trkpt>
      <trkpt lat="45.35721" lon="4.5256">
        <ele>1248.41</ele>
        <time>2021-03-23T12:45:17Z</time>
      </trkpt>
      <trkpt lat="45.35706" lon="4.52577">
        <ele>1251.29</ele>
        <time>2021-03-23T12:45:21Z</time>
      </trkpt>
      <trkpt lat="45.35702" lon="4.52582">
        <ele>1251.77</ele>
        <time>2021-03-23T12:45:22Z</time>
      </trkpt>
      <trkpt lat="45.35696" lon="4.52592">
        <ele>1252.74</ele>
        <time>2021-03-23T12:45:24Z</time>
      </trkpt>
      <trkpt lat="45.35692" lon="4.52599">
        <ele>1252.74</ele>
        <time>2021-03-23T12:45:25Z</time>
      </trkpt>
      <trkpt lat="45.3567" lon="4.52627">
        <ele>1256.58</ele>
        <time>2021-03-23T12:45:30Z</time>
      </trkpt>
      <trkpt lat="45.35647" lon="4.52653">
        <ele>1259.46</ele>
        <time>2021-03-23T12:45:36Z</time>
      </trkpt>
      <trkpt lat="45.35644" lon="4.52659">
        <ele>1260.91</ele>
        <time>2021-03-23T12:45:37Z</time>
      </trkpt>
      <trkpt lat="45.35642" lon="4.52666">
        <ele>1261.87</ele>
        <time>2021-03-23T12:45:38Z</time>
      </trkpt>
      <trkpt lat="45.35632" lon="4.52694">
        <ele>1265.23</ele>
        <time>2021-03-23T12:45:44Z</time>
      </trkpt>
      <trkpt lat="45.3562" lon="4.52714">
        <ele>1265.71</ele>
        <time>2021-03-23T12:45:48Z</time>
      </trkpt>
      <trkpt lat="45.35615" lon="4.5272">
        <ele>1266.19</ele>
        <time>2021-03-23T12:45:49Z</time>
      </trkpt>
      <trkpt lat="45.3561" lon="4.52723">
        <ele>1266.67</ele>
        <time>2021-03-23T12:45:50Z</time>
      </trkpt>
      <trkpt lat="45.35604" lon="4.52726">
        <ele>1267.16</ele>
        <time>2021-03-23T12:45:51Z</time>
      </trkpt>
      <trkpt lat="45.35599" lon="4.52728">
        <ele>1267.16</ele>
        <time>2021-03-23T12:45:52Z</time>
      </trkpt>
      <trkpt lat="45.35594" lon="4.52731">
        <ele>1267.64</ele>
        <time>2021-03-23T12:45:53Z</time>
      </trkpt>
      <trkpt lat="45.35587" lon="4.52735">
        <ele>1267.64</ele>
        <time>2021-03-23T12:45:54Z</time>
      </trkpt>
      <trkpt lat="45.35581" lon="4.52737">
        <ele>1267.64</ele>
        <time>2021-03-23T12:45:55Z</time>
      </trkpt>
      <trkpt lat="45.35561" lon="4.52737">
        <ele>1267.64</ele>
        <time>2021-03-23T12:45:59Z</time>
      </trkpt>
      <trkpt lat="45.35556" lon="4.52737">
        <ele>1268.12</ele>
        <time>2021-03-23T12:46:00Z</time>
      </trkpt>
      <trkpt lat="45.35551" lon="4.52739">
        <ele>1268.12</ele>
        <time>2021-03-23T12:46:01Z</time>
      </trkpt>
      <trkpt lat="45.35546" lon="4.52742">
        <ele>1268.6</ele>
        <time>2021-03-23T12:46:02Z</time>
      </trkpt>
      <trkpt lat="45.35541" lon="4.52746">
        <ele>1268.6</ele>
        <time>2021-03-23T12:46:03Z</time>
      </trkpt>
      <trkpt lat="45.35538" lon="4.52749">
        <ele>1269.08</ele>
        <time>2021-03-23T12:46:04Z</time>
      </trkpt>
      <trkpt lat="45.35535" lon="4.52752">
        <ele>1269.56</ele>
        <time>2021-03-23T12:46:05Z</time>
      </trkpt>
      <trkpt lat="45.35533" lon="4.52755">
        <ele>1270.52</ele>
        <time>2021-03-23T12:46:06Z</time>
      </trkpt>
      <trkpt lat="45.35531" lon="4.52757">
        <ele>1270.52</ele>
        <time>2021-03-23T12:46:07Z</time>
      </trkpt>
      <trkpt lat="45.35529" lon="4.52759">
        <ele>1271</ele>
        <time>2021-03-23T12:46:13Z</time>
      </trkpt>
      <trkpt lat="45.35522" lon="4.52764">
        <ele>1270.52</ele>
        <time>2021-03-23T12:46:27Z</time>
      </trkpt>
      <trkpt lat="45.35506" lon="4.52769">
        <ele>1270.52</ele>
        <time>2021-03-23T12:46:32Z</time>
      </trkpt>
      <trkpt lat="45.35488" lon="4.52769">
        <ele>1270.04</ele>
        <time>2021-03-23T12:46:36Z</time>
      </trkpt>
      <trkpt lat="45.35481" lon="4.52768">
        <ele>1270.52</ele>
        <time>2021-03-23T12:46:37Z</time>
      </trkpt>
      <trkpt lat="45.35473" lon="4.52767">
        <ele>1270.52</ele>
        <time>2021-03-23T12:46:38Z</time>
      </trkpt>
      <trkpt lat="45.35446" lon="4.52763">
        <ele>1271.96</ele>
        <time>2021-03-23T12:46:42Z</time>
      </trkpt>
      <trkpt lat="45.35443" lon="4.52763">
        <ele>1273.88</ele>
        <time>2021-03-23T12:46:43Z</time>
      </trkpt>
      <trkpt lat="45.3544" lon="4.52762">
        <ele>1273.88</ele>
        <time>2021-03-23T12:46:44Z</time>
      </trkpt>
      <trkpt lat="45.35427" lon="4.52758">
        <ele>1275.81</ele>
        <time>2021-03-23T12:46:51Z</time>
      </trkpt>
      <trkpt lat="45.35408" lon="4.52748">
        <ele>1277.25</ele>
        <time>2021-03-23T12:46:58Z</time>
      </trkpt>
      <trkpt lat="45.35395" lon="4.52738">
        <ele>1278.69</ele>
        <time>2021-03-23T12:47:02Z</time>
      </trkpt>
      <trkpt lat="45.35376" lon="4.52722">
        <ele>1281.57</ele>
        <time>2021-03-23T12:47:08Z</time>
      </trkpt>
      <trkpt lat="45.35363" lon="4.5271">
        <ele>1283.5</ele>
        <time>2021-03-23T12:47:12Z</time>
      </trkpt>
      <trkpt lat="45.35359" lon="4.52707">
        <ele>1283.5</ele>
        <time>2021-03-23T12:47:13Z</time>
      </trkpt>
      <trkpt lat="45.35355" lon="4.52705">
        <ele>1284.46</ele>
        <time>2021-03-23T12:47:14Z</time>
      </trkpt>
      <trkpt lat="45.35352" lon="4.52703">
        <ele>1284.94</ele>
        <time>2021-03-23T12:47:15Z</time>
      </trkpt>
      <trkpt lat="45.35348" lon="4.52701">
        <ele>1284.46</ele>
        <time>2021-03-23T12:47:16Z</time>
      </trkpt>
      <trkpt lat="45.35345" lon="4.52698">
        <ele>1284.94</ele>
        <time>2021-03-23T12:47:17Z</time>
      </trkpt>
      <trkpt lat="45.35341" lon="4.52696">
        <ele>1285.42</ele>
        <time>2021-03-23T12:47:18Z</time>
      </trkpt>
      <trkpt lat="45.35337" lon="4.52693">
        <ele>1285.9</ele>
        <time>2021-03-23T12:47:19Z</time>
      </trkpt>
      <trkpt lat="45.35331" lon="4.52688">
        <ele>1286.86</ele>
        <time>2021-03-23T12:47:21Z</time>
      </trkpt>
      <trkpt lat="45.35319" lon="4.52674">
        <ele>1287.34</ele>
        <time>2021-03-23T12:47:25Z</time>
      </trkpt>
      <trkpt lat="45.35315" lon="4.52669">
        <ele>1287.34</ele>
        <time>2021-03-23T12:47:26Z</time>
      </trkpt>
      <trkpt lat="45.35299" lon="4.52648">
        <ele>1287.82</ele>
        <time>2021-03-23T12:47:30Z</time>
      </trkpt>
      <trkpt lat="45.35295" lon="4.52643">
        <ele>1288.3</ele>
        <time>2021-03-23T12:47:31Z</time>
      </trkpt>
      <trkpt lat="45.35291" lon="4.52639">
        <ele>1289.27</ele>
        <time>2021-03-23T12:47:32Z</time>
      </trkpt>
      <trkpt lat="45.35287" lon="4.52635">
        <ele>1288.78</ele>
        <time>2021-03-23T12:47:33Z</time>
      </trkpt>
      <trkpt lat="45.35283" lon="4.52632">
        <ele>1288.78</ele>
        <time>2021-03-23T12:47:34Z</time>
      </trkpt>
      <trkpt lat="45.35278" lon="4.52629">
        <ele>1289.27</ele>
        <time>2021-03-23T12:47:35Z</time>
      </trkpt>
      <trkpt lat="45.35255" lon="4.52618">
        <ele>1291.19</ele>
        <time>2021-03-23T12:47:40Z</time>
      </trkpt>
      <trkpt lat="45.3525" lon="4.52615">
        <ele>1290.71</ele>
        <time>2021-03-23T12:47:41Z</time>
      </trkpt>
      <trkpt lat="45.35246" lon="4.52613">
        <ele>1291.19</ele>
        <time>2021-03-23T12:47:42Z</time>
      </trkpt>
      <trkpt lat="45.35241" lon="4.52611">
        <ele>1291.19</ele>
        <time>2021-03-23T12:47:43Z</time>
      </trkpt>
      <trkpt lat="45.35216" lon="4.52599">
        <ele>1291.67</ele>
        <time>2021-03-23T12:47:49Z</time>
      </trkpt>
      <trkpt lat="45.35201" lon="4.52595">
        <ele>1290.71</ele>
        <time>2021-03-23T12:47:52Z</time>
      </trkpt>
      <trkpt lat="45.35195" lon="4.52594">
        <ele>1290.71</ele>
        <time>2021-03-23T12:47:53Z</time>
      </trkpt>
      <trkpt lat="45.35175" lon="4.52591">
        <ele>1291.67</ele>
        <time>2021-03-23T12:47:57Z</time>
      </trkpt>
      <trkpt lat="45.35162" lon="4.52589">
        <ele>1290.23</ele>
        <time>2021-03-23T12:48:00Z</time>
      </trkpt>
      <trkpt lat="45.35157" lon="4.52589">
        <ele>1290.71</ele>
        <time>2021-03-23T12:48:01Z</time>
      </trkpt>
      <trkpt lat="45.35153" lon="4.52588">
        <ele>1290.71</ele>
        <time>2021-03-23T12:48:02Z</time>
      </trkpt>
      <trkpt lat="45.3513" lon="4.52583">
        <ele>1290.71</ele>
        <time>2021-03-23T12:48:07Z</time>
      </trkpt>
      <trkpt lat="45.35115" lon="4.52582">
        <ele>1289.75</ele>
        <time>2021-03-23T12:48:10Z</time>
      </trkpt>
      <trkpt lat="45.35106" lon="4.5258">
        <ele>1289.75</ele>
        <time>2021-03-23T12:48:12Z</time>
      </trkpt>
      <trkpt lat="45.35101" lon="4.5258">
        <ele>1289.27</ele>
        <time>2021-03-23T12:48:13Z</time>
      </trkpt>
      <trkpt lat="45.35091" lon="4.52578">
        <ele>1288.78</ele>
        <time>2021-03-23T12:48:15Z</time>
      </trkpt>
      <trkpt lat="45.35086" lon="4.52578">
        <ele>1288.3</ele>
        <time>2021-03-23T12:48:16Z</time>
      </trkpt>
      <trkpt lat="45.35076" lon="4.52579">
        <ele>1287.82</ele>
        <time>2021-03-23T12:48:18Z</time>
      </trkpt>
      <trkpt lat="45.35052" lon="4.52582">
        <ele>1287.34</ele>
        <time>2021-03-23T12:48:23Z</time>
      </trkpt>
      <trkpt lat="45.35041" lon="4.52581">
        <ele>1286.38</ele>
        <time>2021-03-23T12:48:25Z</time>
      </trkpt>
      <trkpt lat="45.35036" lon="4.5258">
        <ele>1285.9</ele>
        <time>2021-03-23T12:48:26Z</time>
      </trkpt>
      <trkpt lat="45.35031" lon="4.52579">
        <ele>1285.9</ele>
        <time>2021-03-23T12:48:27Z</time>
      </trkpt>
      <trkpt lat="45.35026" lon="4.52577">
        <ele>1285.42</ele>
        <time>2021-03-23T12:48:28Z</time>
      </trkpt>
      <trkpt lat="45.35021" lon="4.52576">
        <ele>1284.94</ele>
        <time>2021-03-23T12:48:29Z</time>
      </trkpt>
      <trkpt lat="45.3501" lon="4.52575">
        <ele>1284.94</ele>
        <time>2021-03-23T12:48:31Z</time>
      </trkpt>
      <trkpt lat="45.34991" lon="4.52574">
        <ele>1284.94</ele>
        <time>2021-03-23T12:48:35Z</time>
      </trkpt>
      <trkpt lat="45.34969" lon="4.52577">
        <ele>1283.98</ele>
        <time>2021-03-23T12:48:40Z</time>
      </trkpt>
      <trkpt lat="45.34952" lon="4.52582">
        <ele>1283.02</ele>
        <time>2021-03-23T12:48:45Z</time>
      </trkpt>
      <trkpt lat="45.34938" lon="4.52588">
        <ele>1281.09</ele>
        <time>2021-03-23T12:48:50Z</time>
      </trkpt>
      <trkpt lat="45.34915" lon="4.52599">
        <ele>1279.65</ele>
        <time>2021-03-23T12:48:57Z</time>
      </trkpt>
      <trkpt lat="45.349" lon="4.52605">
        <ele>1277.25</ele>
        <time>2021-03-23T12:49:02Z</time>
      </trkpt>
      <trkpt lat="45.34879" lon="4.52613">
        <ele>1274.36</ele>
        <time>2021-03-23T12:49:08Z</time>
      </trkpt>
      <trkpt lat="45.34865" lon="4.5262">
        <ele>1271.96</ele>
        <time>2021-03-23T12:49:11Z</time>
      </trkpt>
      <trkpt lat="45.34855" lon="4.52622">
        <ele>1271.48</ele>
        <time>2021-03-23T12:49:13Z</time>
      </trkpt>
      <trkpt lat="45.34829" lon="4.52627">
        <ele>1269.56</ele>
        <time>2021-03-23T12:49:18Z</time>
      </trkpt>
      <trkpt lat="45.34824" lon="4.52627">
        <ele>1268.6</ele>
        <time>2021-03-23T12:49:19Z</time>
      </trkpt>
      <trkpt lat="45.34812" lon="4.52626">
        <ele>1268.12</ele>
        <time>2021-03-23T12:49:21Z</time>
      </trkpt>
      <trkpt lat="45.34806" lon="4.52626">
        <ele>1267.64</ele>
        <time>2021-03-23T12:49:22Z</time>
      </trkpt>
      <trkpt lat="45.34791" lon="4.52626">
        <ele>1268.12</ele>
        <time>2021-03-23T12:49:25Z</time>
      </trkpt>
      <trkpt lat="45.3476" lon="4.52623">
        <ele>1268.12</ele>
        <time>2021-03-23T12:49:32Z</time>
      </trkpt>
      <trkpt lat="45.3475" lon="4.52625">
        <ele>1268.12</ele>
        <time>2021-03-23T12:49:37Z</time>
      </trkpt>
      <trkpt lat="45.34749" lon="4.52627">
        <ele>1268.12</ele>
        <time>2021-03-23T12:49:38Z</time>
      </trkpt>
      <trkpt lat="45.34747" lon="4.5263">
        <ele>1268.6</ele>
        <time>2021-03-23T12:49:39Z</time>
      </trkpt>
      <trkpt lat="45.34739" lon="4.52651">
        <ele>1267.64</ele>
        <time>2021-03-23T12:49:44Z</time>
      </trkpt>
      <trkpt lat="45.34726" lon="4.52678">
        <ele>1268.6</ele>
        <time>2021-03-23T12:49:50Z</time>
      </trkpt>
      <trkpt lat="45.34707" lon="4.52697">
        <ele>1268.12</ele>
        <time>2021-03-23T12:49:54Z</time>
      </trkpt>
      <trkpt lat="45.3469" lon="4.52718">
        <ele>1268.12</ele>
        <time>2021-03-23T12:49:58Z</time>
      </trkpt>
      <trkpt lat="45.34681" lon="4.52729">
        <ele>1267.64</ele>
        <time>2021-03-23T12:50:00Z</time>
      </trkpt>
      <trkpt lat="45.34672" lon="4.52738">
        <ele>1268.12</ele>
        <time>2021-03-23T12:50:02Z</time>
      </trkpt>
      <trkpt lat="45.34667" lon="4.52741">
        <ele>1268.6</ele>
        <time>2021-03-23T12:50:03Z</time>
      </trkpt>
      <trkpt lat="45.34661" lon="4.52743">
        <ele>1269.08</ele>
        <time>2021-03-23T12:50:04Z</time>
      </trkpt>
      <trkpt lat="45.34654" lon="4.52742">
        <ele>1268.6</ele>
        <time>2021-03-23T12:50:05Z</time>
      </trkpt>
      <trkpt lat="45.34647" lon="4.52742">
        <ele>1268.12</ele>
        <time>2021-03-23T12:50:06Z</time>
      </trkpt>
      <trkpt lat="45.3464" lon="4.52743">
        <ele>1270.04</ele>
        <time>2021-03-23T12:50:07Z</time>
      </trkpt>
      <trkpt lat="45.34634" lon="4.52743">
        <ele>1270.52</ele>
        <time>2021-03-23T12:50:08Z</time>
      </trkpt>
      <trkpt lat="45.3463" lon="4.52744">
        <ele>1271</ele>
        <time>2021-03-23T12:50:09Z</time>
      </trkpt>
      <trkpt lat="45.34606" lon="4.52744">
        <ele>1272.92</ele>
        <time>2021-03-23T12:50:14Z</time>
      </trkpt>
      <trkpt lat="45.34583" lon="4.52748">
        <ele>1272.44</ele>
        <time>2021-03-23T12:50:18Z</time>
      </trkpt>
      <trkpt lat="45.34566" lon="4.52755">
        <ele>1272.44</ele>
        <time>2021-03-23T12:50:21Z</time>
      </trkpt>
      <trkpt lat="45.34556" lon="4.52765">
        <ele>1273.88</ele>
        <time>2021-03-23T12:50:23Z</time>
      </trkpt>
      <trkpt lat="45.3455" lon="4.5277">
        <ele>1273.88</ele>
        <time>2021-03-23T12:50:24Z</time>
      </trkpt>
      <trkpt lat="45.34538" lon="4.52779">
        <ele>1274.85</ele>
        <time>2021-03-23T12:50:26Z</time>
      </trkpt>
      <trkpt lat="45.34531" lon="4.52782">
        <ele>1275.33</ele>
        <time>2021-03-23T12:50:27Z</time>
      </trkpt>
      <trkpt lat="45.34516" lon="4.52787">
        <ele>1277.25</ele>
        <time>2021-03-23T12:50:29Z</time>
      </trkpt>
      <trkpt lat="45.3451" lon="4.52787">
        <ele>1277.25</ele>
        <time>2021-03-23T12:50:30Z</time>
      </trkpt>
      <trkpt lat="45.34472" lon="4.52788">
        <ele>1280.13</ele>
        <time>2021-03-23T12:50:35Z</time>
      </trkpt>
      <trkpt lat="45.3444" lon="4.5279">
        <ele>1280.61</ele>
        <time>2021-03-23T12:50:39Z</time>
      </trkpt>
      <trkpt lat="45.34427" lon="4.52793">
        <ele>1282.54</ele>
        <time>2021-03-23T12:50:41Z</time>
      </trkpt>
      <trkpt lat="45.3439" lon="4.52796">
        <ele>1281.09</ele>
        <time>2021-03-23T12:50:47Z</time>
      </trkpt>
      <trkpt lat="45.34385" lon="4.52794">
        <ele>1281.57</ele>
        <time>2021-03-23T12:50:48Z</time>
      </trkpt>
      <trkpt lat="45.34379" lon="4.52793">
        <ele>1281.09</ele>
        <time>2021-03-23T12:50:49Z</time>
      </trkpt>
      <trkpt lat="45.34374" lon="4.52792">
        <ele>1281.09</ele>
        <time>2021-03-23T12:50:50Z</time>
      </trkpt>
      <trkpt lat="45.34369" lon="4.5279">
        <ele>1281.57</ele>
        <time>2021-03-23T12:50:51Z</time>
      </trkpt>
      <trkpt lat="45.34358" lon="4.52786">
        <ele>1280.61</ele>
        <time>2021-03-23T12:50:53Z</time>
      </trkpt>
      <trkpt lat="45.34353" lon="4.52782">
        <ele>1279.65</ele>
        <time>2021-03-23T12:50:54Z</time>
      </trkpt>
      <trkpt lat="45.34345" lon="4.52775">
        <ele>1280.13</ele>
        <time>2021-03-23T12:50:56Z</time>
      </trkpt>
      <trkpt lat="45.34328" lon="4.52757">
        <ele>1280.61</ele>
        <time>2021-03-23T12:51:00Z</time>
      </trkpt>
      <trkpt lat="45.34323" lon="4.52753">
        <ele>1280.13</ele>
        <time>2021-03-23T12:51:01Z</time>
      </trkpt>
      <trkpt lat="45.34318" lon="4.52749">
        <ele>1280.61</ele>
        <time>2021-03-23T12:51:02Z</time>
      </trkpt>
      <trkpt lat="45.34314" lon="4.52745">
        <ele>1281.57</ele>
        <time>2021-03-23T12:51:03Z</time>
      </trkpt>
      <trkpt lat="45.3431" lon="4.52741">
        <ele>1280.61</ele>
        <time>2021-03-23T12:51:04Z</time>
      </trkpt>
      <trkpt lat="45.34306" lon="4.52737">
        <ele>1281.09</ele>
        <time>2021-03-23T12:51:05Z</time>
      </trkpt>
      <trkpt lat="45.34301" lon="4.52734">
        <ele>1280.61</ele>
        <time>2021-03-23T12:51:06Z</time>
      </trkpt>
      <trkpt lat="45.34296" lon="4.52732">
        <ele>1280.61</ele>
        <time>2021-03-23T12:51:07Z</time>
      </trkpt>
      <trkpt lat="45.34291" lon="4.5273">
        <ele>1281.09</ele>
        <time>2021-03-23T12:51:08Z</time>
      </trkpt>
      <trkpt lat="45.34285" lon="4.52729">
        <ele>1280.61</ele>
        <time>2021-03-23T12:51:09Z</time>
      </trkpt>
      <trkpt lat="45.34279" lon="4.52728">
        <ele>1279.65</ele>
        <time>2021-03-23T12:51:10Z</time>
      </trkpt>
      <trkpt lat="45.34273" lon="4.52728">
        <ele>1279.65</ele>
        <time>2021-03-23T12:51:11Z</time>
      </trkpt>
      <trkpt lat="45.3425" lon="4.52726">
        <ele>1279.17</ele>
        <time>2021-03-23T12:51:15Z</time>
      </trkpt>
      <trkpt lat="45.34232" lon="4.52725">
        <ele>1277.25</ele>
        <time>2021-03-23T12:51:18Z</time>
      </trkpt>
      <trkpt lat="45.34227" lon="4.52722">
        <ele>1276.29</ele>
        <time>2021-03-23T12:51:19Z</time>
      </trkpt>
      <trkpt lat="45.34222" lon="4.52719">
        <ele>1276.29</ele>
        <time>2021-03-23T12:51:20Z</time>
      </trkpt>
      <trkpt lat="45.34205" lon="4.52705">
        <ele>1278.21</ele>
        <time>2021-03-23T12:51:24Z</time>
      </trkpt>
      <trkpt lat="45.34201" lon="4.52703">
        <ele>1277.73</ele>
        <time>2021-03-23T12:51:25Z</time>
      </trkpt>
      <trkpt lat="45.3418" lon="4.52697">
        <ele>1276.29</ele>
        <time>2021-03-23T12:51:29Z</time>
      </trkpt>
      <trkpt lat="45.34175" lon="4.52696">
        <ele>1276.29</ele>
        <time>2021-03-23T12:51:30Z</time>
      </trkpt>
      <trkpt lat="45.34152" lon="4.52693">
        <ele>1276.29</ele>
        <time>2021-03-23T12:51:35Z</time>
      </trkpt>
      <trkpt lat="45.34133" lon="4.52691">
        <ele>1273.4</ele>
        <time>2021-03-23T12:51:41Z</time>
      </trkpt>
      <trkpt lat="45.34121" lon="4.52695">
        <ele>1272.92</ele>
        <time>2021-03-23T12:51:46Z</time>
      </trkpt>
      <trkpt lat="45.34113" lon="4.52704">
        <ele>1271.48</ele>
        <time>2021-03-23T12:51:49Z</time>
      </trkpt>
      <trkpt lat="45.34105" lon="4.5271">
        <ele>1271</ele>
        <time>2021-03-23T12:51:51Z</time>
      </trkpt>
      <trkpt lat="45.341" lon="4.52712">
        <ele>1270.52</ele>
        <time>2021-03-23T12:51:52Z</time>
      </trkpt>
      <trkpt lat="45.34095" lon="4.52714">
        <ele>1269.08</ele>
        <time>2021-03-23T12:51:53Z</time>
      </trkpt>
      <trkpt lat="45.3409" lon="4.52715">
        <ele>1268.6</ele>
        <time>2021-03-23T12:51:54Z</time>
      </trkpt>
      <trkpt lat="45.34055" lon="4.52726">
        <ele>1268.6</ele>
        <time>2021-03-23T12:52:00Z</time>
      </trkpt>
      <trkpt lat="45.34042" lon="4.52732">
        <ele>1269.56</ele>
        <time>2021-03-23T12:52:03Z</time>
      </trkpt>
      <trkpt lat="45.34013" lon="4.52743">
        <ele>1269.08</ele>
        <time>2021-03-23T12:52:09Z</time>
      </trkpt>
      <trkpt lat="45.34004" lon="4.52745">
        <ele>1269.08</ele>
        <time>2021-03-23T12:52:11Z</time>
      </trkpt>
      <trkpt lat="45.33999" lon="4.52748">
        <ele>1269.08</ele>
        <time>2021-03-23T12:52:12Z</time>
      </trkpt>
      <trkpt lat="45.33994" lon="4.5275">
        <ele>1269.08</ele>
        <time>2021-03-23T12:52:13Z</time>
      </trkpt>
      <trkpt lat="45.33989" lon="4.52752">
        <ele>1269.08</ele>
        <time>2021-03-23T12:52:14Z</time>
      </trkpt>
      <trkpt lat="45.33984" lon="4.52753">
        <ele>1269.08</ele>
        <time>2021-03-23T12:52:15Z</time>
      </trkpt>
      <trkpt lat="45.33978" lon="4.52754">
        <ele>1269.56</ele>
        <time>2021-03-23T12:52:16Z</time>
      </trkpt>
      <trkpt lat="45.33972" lon="4.52755">
        <ele>1269.08</ele>
        <time>2021-03-23T12:52:17Z</time>
      </trkpt>
      <trkpt lat="45.33962" lon="4.52759">
        <ele>1269.08</ele>
        <time>2021-03-23T12:52:19Z</time>
      </trkpt>
      <trkpt lat="45.33957" lon="4.5276">
        <ele>1269.56</ele>
        <time>2021-03-23T12:52:20Z</time>
      </trkpt>
      <trkpt lat="45.33953" lon="4.52761">
        <ele>1269.08</ele>
        <time>2021-03-23T12:52:21Z</time>
      </trkpt>
      <trkpt lat="45.33947" lon="4.52764">
        <ele>1270.04</ele>
        <time>2021-03-23T12:52:25Z</time>
      </trkpt>
      <trkpt lat="45.33935" lon="4.52773">
        <ele>1269.56</ele>
        <time>2021-03-23T12:52:43Z</time>
      </trkpt>
      <trkpt lat="45.33921" lon="4.52772">
        <ele>1269.08</ele>
        <time>2021-03-23T12:52:49Z</time>
      </trkpt>
      <trkpt lat="45.33903" lon="4.52757">
        <ele>1266.67</ele>
        <time>2021-03-23T12:52:54Z</time>
      </trkpt>
      <trkpt lat="45.33886" lon="4.52743">
        <ele>1265.71</ele>
        <time>2021-03-23T12:52:59Z</time>
      </trkpt>
      <trkpt lat="45.33883" lon="4.52739">
        <ele>1265.71</ele>
        <time>2021-03-23T12:53:00Z</time>
      </trkpt>
      <trkpt lat="45.3388" lon="4.52736">
        <ele>1265.23</ele>
        <time>2021-03-23T12:53:01Z</time>
      </trkpt>
      <trkpt lat="45.33878" lon="4.52733">
        <ele>1264.75</ele>
        <time>2021-03-23T12:53:02Z</time>
      </trkpt>
      <trkpt lat="45.33874" lon="4.52728">
        <ele>1264.75</ele>
        <time>2021-03-23T12:53:03Z</time>
      </trkpt>
      <trkpt lat="45.33871" lon="4.52723">
        <ele>1263.31</ele>
        <time>2021-03-23T12:53:04Z</time>
      </trkpt>
      <trkpt lat="45.33868" lon="4.52717">
        <ele>1262.35</ele>
        <time>2021-03-23T12:53:05Z</time>
      </trkpt>
      <trkpt lat="45.33853" lon="4.52686">
        <ele>1261.39</ele>
        <time>2021-03-23T12:53:11Z</time>
      </trkpt>
      <trkpt lat="45.33842" lon="4.52671">
        <ele>1258.98</ele>
        <time>2021-03-23T12:53:16Z</time>
      </trkpt>
      <trkpt lat="45.33833" lon="4.52661">
        <ele>1257.54</ele>
        <time>2021-03-23T12:53:22Z</time>
      </trkpt>
      <trkpt lat="45.33833" lon="4.5265">
        <ele>1258.5</ele>
        <time>2021-03-23T12:53:32Z</time>
      </trkpt>
      <trkpt lat="45.33833" lon="4.52648">
        <ele>1258.02</ele>
        <time>2021-03-23T12:53:33Z</time>
      </trkpt>
      <trkpt lat="45.33834" lon="4.52644">
        <ele>1258.02</ele>
        <time>2021-03-23T12:53:36Z</time>
      </trkpt>
      <trkpt lat="45.33841" lon="4.52632">
        <ele>1257.54</ele>
        <time>2021-03-23T12:53:41Z</time>
      </trkpt>
      <trkpt lat="45.33843" lon="4.52628">
        <ele>1258.02</ele>
        <time>2021-03-23T12:53:42Z</time>
      </trkpt>
      <trkpt lat="45.33845" lon="4.52623">
        <ele>1257.54</ele>
        <time>2021-03-23T12:53:43Z</time>
      </trkpt>
      <trkpt lat="45.33852" lon="4.52607">
        <ele>1257.06</ele>
        <time>2021-03-23T12:53:46Z</time>
      </trkpt>
      <trkpt lat="45.33862" lon="4.52593">
        <ele>1256.1</ele>
        <time>2021-03-23T12:53:49Z</time>
      </trkpt>
      <trkpt lat="45.33865" lon="4.52588">
        <ele>1256.1</ele>
        <time>2021-03-23T12:53:50Z</time>
      </trkpt>
      <trkpt lat="45.33868" lon="4.52583">
        <ele>1256.58</ele>
        <time>2021-03-23T12:53:51Z</time>
      </trkpt>
      <trkpt lat="45.33871" lon="4.52578">
        <ele>1256.58</ele>
        <time>2021-03-23T12:53:52Z</time>
      </trkpt>
      <trkpt lat="45.33874" lon="4.52574">
        <ele>1257.06</ele>
        <time>2021-03-23T12:53:53Z</time>
      </trkpt>
      <trkpt lat="45.33879" lon="4.52567">
        <ele>1257.54</ele>
        <time>2021-03-23T12:53:55Z</time>
      </trkpt>
      <trkpt lat="45.33883" lon="4.52558">
        <ele>1258.02</ele>
        <time>2021-03-23T12:54:00Z</time>
      </trkpt>
      <trkpt lat="45.33885" lon="4.52552">
        <ele>1257.54</ele>
        <time>2021-03-23T12:54:08Z</time>
      </trkpt>
      <trkpt lat="45.339" lon="4.52535">
        <ele>1258.02</ele>
        <time>2021-03-23T12:54:13Z</time>
      </trkpt>
      <trkpt lat="45.33915" lon="4.52508">
        <ele>1257.54</ele>
        <time>2021-03-23T12:54:19Z</time>
      </trkpt>
      <trkpt lat="45.33922" lon="4.52498">
        <ele>1256.58</ele>
        <time>2021-03-23T12:54:21Z</time>
      </trkpt>
      <trkpt lat="45.33941" lon="4.52473">
        <ele>1256.58</ele>
        <time>2021-03-23T12:54:27Z</time>
      </trkpt>
      <trkpt lat="45.33947" lon="4.52465">
        <ele>1255.62</ele>
        <time>2021-03-23T12:54:29Z</time>
      </trkpt>
      <trkpt lat="45.33951" lon="4.52461">
        <ele>1255.62</ele>
        <time>2021-03-23T12:54:30Z</time>
      </trkpt>
      <trkpt lat="45.33968" lon="4.52441">
        <ele>1255.14</ele>
        <time>2021-03-23T12:54:35Z</time>
      </trkpt>
      <trkpt lat="45.33985" lon="4.52418">
        <ele>1253.7</ele>
        <time>2021-03-23T12:54:40Z</time>
      </trkpt>
      <trkpt lat="45.33997" lon="4.52404">
        <ele>1254.66</ele>
        <time>2021-03-23T12:54:43Z</time>
      </trkpt>
      <trkpt lat="45.34013" lon="4.52384">
        <ele>1253.7</ele>
        <time>2021-03-23T12:54:48Z</time>
      </trkpt>
      <trkpt lat="45.34033" lon="4.52358">
        <ele>1254.66</ele>
        <time>2021-03-23T12:54:55Z</time>
      </trkpt>
      <trkpt lat="45.34048" lon="4.52343">
        <ele>1254.18</ele>
        <time>2021-03-23T12:55:02Z</time>
      </trkpt>
      <trkpt lat="45.34064" lon="4.52312">
        <ele>1254.66</ele>
        <time>2021-03-23T12:55:12Z</time>
      </trkpt>
      <trkpt lat="45.34069" lon="4.52303">
        <ele>1254.18</ele>
        <time>2021-03-23T12:55:18Z</time>
      </trkpt>
      <trkpt lat="45.34088" lon="4.52266">
        <ele>1252.74</ele>
        <time>2021-03-23T12:55:28Z</time>
      </trkpt>
      <trkpt lat="45.34114" lon="4.52232">
        <ele>1252.74</ele>
        <time>2021-03-23T12:55:36Z</time>
      </trkpt>
      <trkpt lat="45.3413" lon="4.52204">
        <ele>1255.62</ele>
        <time>2021-03-23T12:55:40Z</time>
      </trkpt>
      <trkpt lat="45.34155" lon="4.52134">
        <ele>1255.62</ele>
        <time>2021-03-23T12:55:48Z</time>
      </trkpt>
      <trkpt lat="45.3417" lon="4.52086">
        <ele>1254.18</ele>
        <time>2021-03-23T12:55:56Z</time>
      </trkpt>
      <trkpt lat="45.34187" lon="4.52007">
        <ele>1251.77</ele>
        <time>2021-03-23T12:56:08Z</time>
      </trkpt>
      <trkpt lat="45.342" lon="4.51918">
        <ele>1252.25</ele>
        <time>2021-03-23T12:56:21Z</time>
      </trkpt>
      <trkpt lat="45.34215" lon="4.51828">
        <ele>1255.62</ele>
        <time>2021-03-23T12:56:34Z</time>
      </trkpt>
      <trkpt lat="45.34221" lon="4.51786">
        <ele>1253.7</ele>
        <time>2021-03-23T12:56:40Z</time>
      </trkpt>
      <trkpt lat="45.34244" lon="4.51776">
        <ele>1261.50390625</ele>
      </trkpt>
      <trkpt lat="45.34239" lon="4.51761">
        <ele>1261.1171875</ele>
      </trkpt>
      <trkpt lat="45.34236" lon="4.51749">
        <ele>1260.80859375</ele>
      </trkpt>
      <trkpt lat="45.34234" lon="4.51734">
        <ele>1260.5390625</ele>
      </trkpt>
      <trkpt lat="45.34228" lon="4.5169">
        <ele>1260.3671875</ele>
      </trkpt>
      <trkpt lat="45.34226" lon="4.51678">
        <ele>1260.2578125</ele>
      </trkpt>
      <trkpt lat="45.3422" lon="4.51648">
        <ele>1259.57421875</ele>
      </trkpt>
      <trkpt lat="45.34215" lon="4.51633">
        <ele>1259.09375</ele>
      </trkpt>
      <trkpt lat="45.34196" lon="4.51572">
        <ele>1257.15625</ele>
      </trkpt>
      <trkpt lat="45.34187" lon="4.51547">
        <ele>1256.46484375</ele>
      </trkpt>
      <trkpt lat="45.34183" lon="4.51536">
        <ele>1256.1015625</ele>
      </trkpt>
      <trkpt lat="45.34178" lon="4.51525">
        <ele>1255.55078125</ele>
      </trkpt>
      <trkpt lat="45.34172" lon="4.51512">
        <ele>1255.06640625</ele>
      </trkpt>
      <trkpt lat="45.34167" lon="4.51503">
        <ele>1254.671875</ele>
      </trkpt>
      <trkpt lat="45.34164" lon="4.51494">
        <ele>1254.48046875</ele>
      </trkpt>
      <trkpt lat="45.34162" lon="4.51482">
        <ele>1254.453125</ele>
      </trkpt>
      <trkpt lat="45.3416" lon="4.51469">
        <ele>1254.4765625</ele>
      </trkpt>
      <trkpt lat="45.34159" lon="4.51458">
        <ele>1254.58203125</ele>
      </trkpt>
      <trkpt lat="45.34156" lon="4.51446">
        <ele>1254.66796875</ele>
      </trkpt>
      <trkpt lat="45.34152" lon="4.51432">
        <ele>1254.9609375</ele>
      </trkpt>
      <trkpt lat="45.34147" lon="4.51421">
        <ele>1255.1640625</ele>
      </trkpt>
      <trkpt lat="45.34136" lon="4.51404">
        <ele>1255.5859375</ele>
      </trkpt>
      <trkpt lat="45.34132" lon="4.51397">
        <ele>1255.8515625</ele>
      </trkpt>
      <trkpt lat="45.34125" lon="4.51375">
        <ele>1256.51953125</ele>
      </trkpt>
      <trkpt lat="45.34122" lon="4.51364">
        <ele>1256.71484375</ele>
      </trkpt>
      <trkpt lat="45.3412" lon="4.51356">
        <ele>1256.94140625</ele>
      </trkpt>
      <trkpt lat="45.34116" lon="4.51343">
        <ele>1257.30078125</ele>
      </trkpt>
      <trkpt lat="45.3411" lon="4.51331">
        <ele>1257.75</ele>
      </trkpt>
      <trkpt lat="45.34104" lon="4.51319">
        <ele>1258.34765625</ele>
      </trkpt>
      <trkpt lat="45.34098" lon="4.51311">
        <ele>1258.83203125</ele>
      </trkpt>
      <trkpt lat="45.34093" lon="4.51302">
        <ele>1259.37890625</ele>
      </trkpt>
      <trkpt lat="45.34088" lon="4.513">
        <ele>1259.47265625</ele>
      </trkpt>
      <trkpt lat="45.34078" lon="4.51298">
        <ele>1259.53515625</ele>
      </trkpt>
      <trkpt lat="45.34072" lon="4.51295">
        <ele>1259.75</ele>
      </trkpt>
      <trkpt lat="45.34067" lon="4.51289">
        <ele>1259.7265625</ele>
      </trkpt>
      <trkpt lat="45.34064" lon="4.51275">
        <ele>1260.26171875</ele>
      </trkpt>
      <trkpt lat="45.34062" lon="4.51263">
        <ele>1260.4921875</ele>
      </trkpt>
      <trkpt lat="45.3406" lon="4.51254">
        <ele>1260.66796875</ele>
      </trkpt>
      <trkpt lat="45.34056" lon="4.51232">
        <ele>1261.25390625</ele>
      </trkpt>
      <trkpt lat="45.34047" lon="4.51206">
        <ele>1261.5546875</ele>
      </trkpt>
      <trkpt lat="45.34042" lon="4.51174">
        <ele>1262.19140625</ele>
      </trkpt>
      <trkpt lat="45.34038" lon="4.51164">
        <ele>1262.24609375</ele>
      </trkpt>
      <trkpt lat="45.34033" lon="4.51142">
        <ele>1262.421875</ele>
      </trkpt>
      <trkpt lat="45.34023" lon="4.51077">
        <ele>1262.38671875</ele>
      </trkpt>
      <trkpt lat="45.34006" lon="4.50954">
        <ele>1258.5546875</ele>
      </trkpt>
      <trkpt lat="45.33998" lon="4.50912">
        <ele>1256.1953125</ele>
      </trkpt>
      <trkpt lat="45.33989" lon="4.50838">
        <ele>1253.50390625</ele>
      </trkpt>
      <trkpt lat="45.33974" lon="4.50801">
        <ele>1252.3046875</ele>
      </trkpt>
      <trkpt lat="45.33963" lon="4.50755">
        <ele>1250.46875</ele>
      </trkpt>
      <trkpt lat="45.33963" lon="4.50731">
        <ele>1249.19140625</ele>
      </trkpt>
      <trkpt lat="45.33968" lon="4.50672">
        <ele>1245.8515625</ele>
      </trkpt>
      <trkpt lat="45.33976" lon="4.50637">
        <ele>1243.03515625</ele>
      </trkpt>
      <trkpt lat="45.33995" lon="4.50591">
        <ele>1239.5625</ele>
      </trkpt>
      <trkpt lat="45.34012" lon="4.50539">
        <ele>1237.6015625</ele>
      </trkpt>
      <trkpt lat="45.34021" lon="4.50493">
        <ele>1236.546875</ele>
      </trkpt>
      <trkpt lat="45.33999" lon="4.50458">
        <ele>1234.7578125</ele>
      </trkpt>
      <trkpt lat="45.33992" lon="4.5045">
        <ele>1234.2578125</ele>
      </trkpt>
      <trkpt lat="45.33987" lon="4.50447">
        <ele>1233.9453125</ele>
      </trkpt>
      <trkpt lat="45.33978" lon="4.50448">
        <ele>1233.67578125</ele>
      </trkpt>
      <trkpt lat="45.33945" lon="4.50456">
        <ele>1232.484375</ele>
      </trkpt>
      <trkpt lat="45.33928" lon="4.50463">
        <ele>1231.82421875</ele>
      </trkpt>
      <trkpt lat="45.33921" lon="4.50464">
        <ele>1231.515625</ele>
      </trkpt>
      <trkpt lat="45.33913" lon="4.50467">
        <ele>1231.16796875</ele>
      </trkpt>
      <trkpt lat="45.33904" lon="4.50471">
        <ele>1230.8203125</ele>
      </trkpt>
      <trkpt lat="45.33897" lon="4.50474">
        <ele>1230.26171875</ele>
      </trkpt>
      <trkpt lat="45.33889" lon="4.50477">
        <ele>1229.69921875</ele>
      </trkpt>
      <trkpt lat="45.33881" lon="4.50479">
        <ele>1229.00390625</ele>
      </trkpt>
      <trkpt lat="45.33872" lon="4.50481">
        <ele>1228.30859375</ele>
      </trkpt>
      <trkpt lat="45.33861" lon="4.50482">
        <ele>1227.3828125</ele>
      </trkpt>
      <trkpt lat="45.33841" lon="4.50486">
        <ele>1225.56640625</ele>
      </trkpt>
      <trkpt lat="45.33831" lon="4.50488">
        <ele>1224.64453125</ele>
      </trkpt>
      <trkpt lat="45.33812" lon="4.50494">
        <ele>1222.80859375</ele>
      </trkpt>
      <trkpt lat="45.33802" lon="4.50497">
        <ele>1221.86328125</ele>
      </trkpt>
      <trkpt lat="45.33793" lon="4.50502">
        <ele>1220.89453125</ele>
      </trkpt>
      <trkpt lat="45.33784" lon="4.50505">
        <ele>1219.76171875</ele>
      </trkpt>
      <trkpt lat="45.33772" lon="4.5051">
        <ele>1218.26953125</ele>
      </trkpt>
      <trkpt lat="45.33769" lon="4.50511">
        <ele>1217.83203125</ele>
      </trkpt>
      <trkpt lat="45.33769" lon="4.50511">
        <ele>1217.83203125</ele>
      </trkpt>
      <trkpt lat="45.33754" lon="4.50498">
        <ele>1209</ele>
        <time>2021-03-23T13:01:52Z</time>
      </trkpt>
      <trkpt lat="45.33748" lon="4.505">
        <ele>1208.51</ele>
        <time>2021-03-23T13:01:53Z</time>
      </trkpt>
      <trkpt lat="45.33741" lon="4.50505">
        <ele>1208.03</ele>
        <time>2021-03-23T13:01:54Z</time>
      </trkpt>
      <trkpt lat="45.33736" lon="4.50508">
        <ele>1207.07</ele>
        <time>2021-03-23T13:01:55Z</time>
      </trkpt>
      <trkpt lat="45.33732" lon="4.50512">
        <ele>1206.59</ele>
        <time>2021-03-23T13:01:56Z</time>
      </trkpt>
      <trkpt lat="45.33716" lon="4.50526">
        <ele>1205.63</ele>
        <time>2021-03-23T13:02:02Z</time>
      </trkpt>
      <trkpt lat="45.33712" lon="4.50531">
        <ele>1202.27</ele>
        <time>2021-03-23T13:02:04Z</time>
      </trkpt>
      <trkpt lat="45.33696" lon="4.50542">
        <ele>1199.38</ele>
        <time>2021-03-23T13:02:09Z</time>
      </trkpt>
      <trkpt lat="45.33683" lon="4.50548">
        <ele>1196.98</ele>
        <time>2021-03-23T13:02:12Z</time>
      </trkpt>
      <trkpt lat="45.3366" lon="4.50555">
        <ele>1194.58</ele>
        <time>2021-03-23T13:02:18Z</time>
      </trkpt>
      <trkpt lat="45.33655" lon="4.50554">
        <ele>1194.09</ele>
        <time>2021-03-23T13:02:19Z</time>
      </trkpt>
      <trkpt lat="45.33651" lon="4.50552">
        <ele>1192.65</ele>
        <time>2021-03-23T13:02:20Z</time>
      </trkpt>
      <trkpt lat="45.33641" lon="4.50545">
        <ele>1191.21</ele>
        <time>2021-03-23T13:02:22Z</time>
      </trkpt>
      <trkpt lat="45.33636" lon="4.50542">
        <ele>1191.21</ele>
        <time>2021-03-23T13:02:23Z</time>
      </trkpt>
      <trkpt lat="45.33631" lon="4.50539">
        <ele>1191.21</ele>
        <time>2021-03-23T13:02:24Z</time>
      </trkpt>
      <trkpt lat="45.33616" lon="4.50531">
        <ele>1189.77</ele>
        <time>2021-03-23T13:02:27Z</time>
      </trkpt>
      <trkpt lat="45.33606" lon="4.50528">
        <ele>1189.77</ele>
        <time>2021-03-23T13:02:29Z</time>
      </trkpt>
      <trkpt lat="45.33579" lon="4.5053">
        <ele>1187.85</ele>
        <time>2021-03-23T13:02:34Z</time>
      </trkpt>
      <trkpt lat="45.33574" lon="4.50531">
        <ele>1186.88</ele>
        <time>2021-03-23T13:02:35Z</time>
      </trkpt>
      <trkpt lat="45.33563" lon="4.50537">
        <ele>1186.4</ele>
        <time>2021-03-23T13:02:37Z</time>
      </trkpt>
      <trkpt lat="45.33539" lon="4.50552">
        <ele>1186.88</ele>
        <time>2021-03-23T13:02:41Z</time>
      </trkpt>
      <trkpt lat="45.33503" lon="4.50567">
        <ele>1183.52</ele>
        <time>2021-03-23T13:02:47Z</time>
      </trkpt>
      <trkpt lat="45.33497" lon="4.50569">
        <ele>1183.52</ele>
        <time>2021-03-23T13:02:48Z</time>
      </trkpt>
      <trkpt lat="45.33458" lon="4.50572">
        <ele>1187.37</ele>
        <time>2021-03-23T13:02:53Z</time>
      </trkpt>
      <trkpt lat="45.33451" lon="4.50574">
        <ele>1187.37</ele>
        <time>2021-03-23T13:02:54Z</time>
      </trkpt>
      <trkpt lat="45.33429" lon="4.5058">
        <ele>1189.29</ele>
        <time>2021-03-23T13:02:57Z</time>
      </trkpt>
      <trkpt lat="45.33394" lon="4.50587">
        <ele>1190.25</ele>
        <time>2021-03-23T13:03:03Z</time>
      </trkpt>
      <trkpt lat="45.33352" lon="4.50605">
        <ele>1193.61</ele>
        <time>2021-03-23T13:03:12Z</time>
      </trkpt>
      <trkpt lat="45.33308" lon="4.50616">
        <ele>1196.5</ele>
        <time>2021-03-23T13:03:22Z</time>
      </trkpt>
      <trkpt lat="45.33294" lon="4.5062">
        <ele>1196.98</ele>
        <time>2021-03-23T13:03:25Z</time>
      </trkpt>
      <trkpt lat="45.33263" lon="4.50634">
        <ele>1196.98</ele>
        <time>2021-03-23T13:03:30Z</time>
      </trkpt>
      <trkpt lat="45.33238" lon="4.50637">
        <ele>1200.34</ele>
        <time>2021-03-23T13:03:34Z</time>
      </trkpt>
      <trkpt lat="45.33233" lon="4.50635">
        <ele>1200.82</ele>
        <time>2021-03-23T13:03:35Z</time>
      </trkpt>
      <trkpt lat="45.33224" lon="4.50631">
        <ele>1202.27</ele>
        <time>2021-03-23T13:03:37Z</time>
      </trkpt>
      <trkpt lat="45.3322" lon="4.50628">
        <ele>1204.19</ele>
        <time>2021-03-23T13:03:38Z</time>
      </trkpt>
      <trkpt lat="45.33216" lon="4.50624">
        <ele>1204.19</ele>
        <time>2021-03-23T13:03:39Z</time>
      </trkpt>
      <trkpt lat="45.33198" lon="4.50607">
        <ele>1207.55</ele>
        <time>2021-03-23T13:03:43Z</time>
      </trkpt>
      <trkpt lat="45.33194" lon="4.50602">
        <ele>1208.03</ele>
        <time>2021-03-23T13:03:44Z</time>
      </trkpt>
      <trkpt lat="45.33182" lon="4.50583">
        <ele>1210.44</ele>
        <time>2021-03-23T13:03:48Z</time>
      </trkpt>
      <trkpt lat="45.33182" lon="4.50578">
        <ele>1211.88</ele>
        <time>2021-03-23T13:03:49Z</time>
      </trkpt>
      <trkpt lat="45.33181" lon="4.50573">
        <ele>1211.88</ele>
        <time>2021-03-23T13:03:50Z</time>
      </trkpt>
      <trkpt lat="45.33182" lon="4.5055">
        <ele>1213.32</ele>
        <time>2021-03-23T13:03:54Z</time>
      </trkpt>
      <trkpt lat="45.33188" lon="4.50524">
        <ele>1217.17</ele>
        <time>2021-03-23T13:03:58Z</time>
      </trkpt>
      <trkpt lat="45.3319" lon="4.50518">
        <ele>1218.13</ele>
        <time>2021-03-23T13:03:59Z</time>
      </trkpt>
      <trkpt lat="45.33197" lon="4.50501">
        <ele>1219.57</ele>
        <time>2021-03-23T13:04:02Z</time>
      </trkpt>
      <trkpt lat="45.33213" lon="4.50461">
        <ele>1223.42</ele>
        <time>2021-03-23T13:04:07Z</time>
      </trkpt>
      <trkpt lat="45.33215" lon="4.50453">
        <ele>1223.9</ele>
        <time>2021-03-23T13:04:08Z</time>
      </trkpt>
      <trkpt lat="45.33223" lon="4.50433">
        <ele>1226.78</ele>
        <time>2021-03-23T13:04:11Z</time>
      </trkpt>
      <trkpt lat="45.33234" lon="4.50397">
        <ele>1227.74</ele>
        <time>2021-03-23T13:04:20Z</time>
      </trkpt>
      <trkpt lat="45.33228" lon="4.50364">
        <ele>1229.66</ele>
        <time>2021-03-23T13:04:26Z</time>
      </trkpt>
      <trkpt lat="45.33225" lon="4.50358">
        <ele>1230.14</ele>
        <time>2021-03-23T13:04:27Z</time>
      </trkpt>
      <trkpt lat="45.33222" lon="4.50353">
        <ele>1230.62</ele>
        <time>2021-03-23T13:04:28Z</time>
      </trkpt>
      <trkpt lat="45.33217" lon="4.50351">
        <ele>1230.62</ele>
        <time>2021-03-23T13:04:29Z</time>
      </trkpt>
      <trkpt lat="45.33213" lon="4.5035">
        <ele>1230.14</ele>
        <time>2021-03-23T13:04:30Z</time>
      </trkpt>
      <trkpt lat="45.33208" lon="4.50351">
        <ele>1230.14</ele>
        <time>2021-03-23T13:04:31Z</time>
      </trkpt>
      <trkpt lat="45.33202" lon="4.50353">
        <ele>1229.66</ele>
        <time>2021-03-23T13:04:32Z</time>
      </trkpt>
      <trkpt lat="45.33153" lon="4.50368">
        <ele>1227.26</ele>
        <time>2021-03-23T13:04:41Z</time>
      </trkpt>
      <trkpt lat="45.33095" lon="4.5037">
        <ele>1224.38</ele>
        <time>2021-03-23T13:04:52Z</time>
      </trkpt>
      <trkpt lat="45.33078" lon="4.50371">
        <ele>1223.42</ele>
        <time>2021-03-23T13:04:56Z</time>
      </trkpt>
      <trkpt lat="45.33066" lon="4.50372">
        <ele>1221.97</ele>
        <time>2021-03-23T13:04:59Z</time>
      </trkpt>
      <trkpt lat="45.33039" lon="4.50372">
        <ele>1220.05</ele>
        <time>2021-03-23T13:05:07Z</time>
      </trkpt>
      <trkpt lat="45.33032" lon="4.50352">
        <ele>1220.53</ele>
        <time>2021-03-23T13:05:15Z</time>
      </trkpt>
      <trkpt lat="45.33048" lon="4.50267">
        <ele>1217.17</ele>
        <time>2021-03-23T13:05:40Z</time>
      </trkpt>
      <trkpt lat="45.33038" lon="4.50213">
        <ele>1217.17</ele>
        <time>2021-03-23T13:05:48Z</time>
      </trkpt>
      <trkpt lat="45.33019" lon="4.50148">
        <ele>1215.72</ele>
        <time>2021-03-23T13:05:56Z</time>
      </trkpt>
      <trkpt lat="45.3299" lon="4.50077">
        <ele>1212.84</ele>
        <time>2021-03-23T13:06:05Z</time>
      </trkpt>
      <trkpt lat="45.32982" lon="4.50062">
        <ele>1211.88</ele>
        <time>2021-03-23T13:06:07Z</time>
      </trkpt>
      <trkpt lat="45.32966" lon="4.50034">
        <ele>1214.28</ele>
        <time>2021-03-23T13:06:11Z</time>
      </trkpt>
      <trkpt lat="45.32913" lon="4.49943">
        <ele>1210.92</ele>
        <time>2021-03-23T13:06:24Z</time>
      </trkpt>
      <trkpt lat="45.32887" lon="4.49887">
        <ele>1210.92</ele>
        <time>2021-03-23T13:06:32Z</time>
      </trkpt>
      <trkpt lat="45.32869" lon="4.49846">
        <ele>1212.36</ele>
        <time>2021-03-23T13:06:39Z</time>
      </trkpt>
      <trkpt lat="45.32858" lon="4.49823">
        <ele>1212.36</ele>
        <time>2021-03-23T13:06:43Z</time>
      </trkpt>
      <trkpt lat="45.32831" lon="4.49768">
        <ele>1210.44</ele>
        <time>2021-03-23T13:06:52Z</time>
      </trkpt>
      <trkpt lat="45.32829" lon="4.49762">
        <ele>1209.96</ele>
        <time>2021-03-23T13:06:53Z</time>
      </trkpt>
      <trkpt lat="45.32826" lon="4.49749">
        <ele>1210.44</ele>
        <time>2021-03-23T13:06:55Z</time>
      </trkpt>
      <trkpt lat="45.32828" lon="4.4972">
        <ele>1209.48</ele>
        <time>2021-03-23T13:06:59Z</time>
      </trkpt>
      <trkpt lat="45.32832" lon="4.49713">
        <ele>1210.44</ele>
        <time>2021-03-23T13:07:00Z</time>
      </trkpt>
      <trkpt lat="45.32867" lon="4.49634">
        <ele>1209</ele>
        <time>2021-03-23T13:07:10Z</time>
      </trkpt>
      <trkpt lat="45.32889" lon="4.49591">
        <ele>1206.59</ele>
        <time>2021-03-23T13:07:15Z</time>
      </trkpt>
      <trkpt lat="45.32929" lon="4.49513">
        <ele>1210.92</ele>
        <time>2021-03-23T13:07:22Z</time>
      </trkpt>
      <trkpt lat="45.32953" lon="4.49455">
        <ele>1209.96</ele>
        <time>2021-03-23T13:07:28Z</time>
      </trkpt>
      <trkpt lat="45.32975" lon="4.4939">
        <ele>1211.88</ele>
        <time>2021-03-23T13:07:36Z</time>
      </trkpt>
      <trkpt lat="45.32995" lon="4.49353">
        <ele>1211.4</ele>
        <time>2021-03-23T13:07:44Z</time>
      </trkpt>
      <trkpt lat="45.32957" lon="4.49348">
        <ele>1210.44</ele>
        <time>2021-03-23T13:08:09Z</time>
      </trkpt>
      <trkpt lat="45.32945" lon="4.49344">
        <ele>1209.48</ele>
        <time>2021-03-23T13:08:12Z</time>
      </trkpt>
      <trkpt lat="45.32945" lon="4.49342">
        <ele>1208.03</ele>
        <time>2021-03-23T13:08:13Z</time>
      </trkpt>
      <trkpt lat="45.32944" lon="4.49338">
        <ele>1208.51</ele>
        <time>2021-03-23T13:08:14Z</time>
      </trkpt>
      <trkpt lat="45.32941" lon="4.49327">
        <ele>1206.11</ele>
        <time>2021-03-23T13:08:16Z</time>
      </trkpt>
      <trkpt lat="45.32935" lon="4.4929">
        <ele>1202.27</ele>
        <time>2021-03-23T13:08:21Z</time>
      </trkpt>
      <trkpt lat="45.32933" lon="4.49283">
        <ele>1201.3</ele>
        <time>2021-03-23T13:08:22Z</time>
      </trkpt>
      <trkpt lat="45.32931" lon="4.49275">
        <ele>1200.82</ele>
        <time>2021-03-23T13:08:23Z</time>
      </trkpt>
      <trkpt lat="45.32929" lon="4.49268">
        <ele>1200.82</ele>
        <time>2021-03-23T13:08:24Z</time>
      </trkpt>
      <trkpt lat="45.32928" lon="4.49261">
        <ele>1200.82</ele>
        <time>2021-03-23T13:08:25Z</time>
      </trkpt>
      <trkpt lat="45.32927" lon="4.49253">
        <ele>1201.3</ele>
        <time>2021-03-23T13:08:26Z</time>
      </trkpt>
      <trkpt lat="45.32927" lon="4.49204">
        <ele>1197.94</ele>
        <time>2021-03-23T13:08:32Z</time>
      </trkpt>
      <trkpt lat="45.32927" lon="4.49195">
        <ele>1197.46</ele>
        <time>2021-03-23T13:08:33Z</time>
      </trkpt>
      <trkpt lat="45.32927" lon="4.49177">
        <ele>1196.5</ele>
        <time>2021-03-23T13:08:35Z</time>
      </trkpt>
      <trkpt lat="45.32927" lon="4.49168">
        <ele>1196.02</ele>
        <time>2021-03-23T13:08:36Z</time>
      </trkpt>
      <trkpt lat="45.32924" lon="4.4914">
        <ele>1194.09</ele>
        <time>2021-03-23T13:08:39Z</time>
      </trkpt>
      <trkpt lat="45.32922" lon="4.49122">
        <ele>1193.61</ele>
        <time>2021-03-23T13:08:41Z</time>
      </trkpt>
      <trkpt lat="45.32922" lon="4.49113">
        <ele>1194.09</ele>
        <time>2021-03-23T13:08:42Z</time>
      </trkpt>
      <trkpt lat="45.32923" lon="4.49087">
        <ele>1192.65</ele>
        <time>2021-03-23T13:08:45Z</time>
      </trkpt>
      <trkpt lat="45.32924" lon="4.4903">
        <ele>1190.73</ele>
        <time>2021-03-23T13:08:52Z</time>
      </trkpt>
      <trkpt lat="45.32922" lon="4.49023">
        <ele>1190.73</ele>
        <time>2021-03-23T13:08:53Z</time>
      </trkpt>
      <trkpt lat="45.32919" lon="4.49017">
        <ele>1189.77</ele>
        <time>2021-03-23T13:08:54Z</time>
      </trkpt>
      <trkpt lat="45.3291" lon="4.48998">
        <ele>1188.81</ele>
        <time>2021-03-23T13:08:57Z</time>
      </trkpt>
      <trkpt lat="45.32907" lon="4.48989">
        <ele>1188.33</ele>
        <time>2021-03-23T13:08:58Z</time>
      </trkpt>
      <trkpt lat="45.32903" lon="4.48981">
        <ele>1186.88</ele>
        <time>2021-03-23T13:08:59Z</time>
      </trkpt>
      <trkpt lat="45.329" lon="4.48974">
        <ele>1186.88</ele>
        <time>2021-03-23T13:09:00Z</time>
      </trkpt>
      <trkpt lat="45.32886" lon="4.48941">
        <ele>1184.48</ele>
        <time>2021-03-23T13:09:05Z</time>
      </trkpt>
      <trkpt lat="45.32882" lon="4.48936">
        <ele>1184.48</ele>
        <time>2021-03-23T13:09:06Z</time>
      </trkpt>
      <trkpt lat="45.32859" lon="4.48908">
        <ele>1183.04</ele>
        <time>2021-03-23T13:09:12Z</time>
      </trkpt>
      <trkpt lat="45.3284" lon="4.48883">
        <ele>1181.12</ele>
        <time>2021-03-23T13:09:18Z</time>
      </trkpt>
      <trkpt lat="45.32835" lon="4.48878">
        <ele>1182.56</ele>
        <time>2021-03-23T13:09:21Z</time>
      </trkpt>
      <trkpt lat="45.32834" lon="4.48876">
        <ele>1183.04</ele>
        <time>2021-03-23T13:09:22Z</time>
      </trkpt>
      <trkpt lat="45.32831" lon="4.48869">
        <ele>1182.08</ele>
        <time>2021-03-23T13:09:24Z</time>
      </trkpt>
      <trkpt lat="45.32814" lon="4.48842">
        <ele>1180.64</ele>
        <time>2021-03-23T13:09:30Z</time>
      </trkpt>
      <trkpt lat="45.32811" lon="4.48837">
        <ele>1179.19</ele>
        <time>2021-03-23T13:09:31Z</time>
      </trkpt>
      <trkpt lat="45.32807" lon="4.4883">
        <ele>1179.67</ele>
        <time>2021-03-23T13:09:32Z</time>
      </trkpt>
      <trkpt lat="45.3279" lon="4.48784">
        <ele>1178.23</ele>
        <time>2021-03-23T13:09:39Z</time>
      </trkpt>
      <trkpt lat="45.32786" lon="4.48762">
        <ele>1177.27</ele>
        <time>2021-03-23T13:09:42Z</time>
      </trkpt>
      <trkpt lat="45.32785" lon="4.48753">
        <ele>1177.27</ele>
        <time>2021-03-23T13:09:43Z</time>
      </trkpt>
      <trkpt lat="45.32777" lon="4.48711">
        <ele>1173.43</ele>
        <time>2021-03-23T13:09:48Z</time>
      </trkpt>
      <trkpt lat="45.32775" lon="4.48703">
        <ele>1173.43</ele>
        <time>2021-03-23T13:09:49Z</time>
      </trkpt>
      <trkpt lat="45.32764" lon="4.48657">
        <ele>1171.5</ele>
        <time>2021-03-23T13:09:55Z</time>
      </trkpt>
      <trkpt lat="45.32761" lon="4.4864">
        <ele>1169.1</ele>
        <time>2021-03-23T13:09:57Z</time>
      </trkpt>
      <trkpt lat="45.32758" lon="4.48633">
        <ele>1168.62</ele>
        <time>2021-03-23T13:09:58Z</time>
      </trkpt>
      <trkpt lat="45.3275" lon="4.48612">
        <ele>1165.74</ele>
        <time>2021-03-23T13:10:01Z</time>
      </trkpt>
      <trkpt lat="45.32748" lon="4.48606">
        <ele>1165.74</ele>
        <time>2021-03-23T13:10:02Z</time>
      </trkpt>
      <trkpt lat="45.32746" lon="4.48598">
        <ele>1165.26</ele>
        <time>2021-03-23T13:10:03Z</time>
      </trkpt>
      <trkpt lat="45.32742" lon="4.48574">
        <ele>1162.37</ele>
        <time>2021-03-23T13:10:06Z</time>
      </trkpt>
      <trkpt lat="45.32744" lon="4.48538">
        <ele>1160.45</ele>
        <time>2021-03-23T13:10:10Z</time>
      </trkpt>
      <trkpt lat="45.32747" lon="4.48504">
        <ele>1156.6</ele>
        <time>2021-03-23T13:10:14Z</time>
      </trkpt>
      <trkpt lat="45.32748" lon="4.48495">
        <ele>1156.12</ele>
        <time>2021-03-23T13:10:15Z</time>
      </trkpt>
      <trkpt lat="45.3275" lon="4.4846">
        <ele>1152.28</ele>
        <time>2021-03-23T13:10:19Z</time>
      </trkpt>
      <trkpt lat="45.3275" lon="4.48451">
        <ele>1152.28</ele>
        <time>2021-03-23T13:10:20Z</time>
      </trkpt>
      <trkpt lat="45.32751" lon="4.48422">
        <ele>1149.87</ele>
        <time>2021-03-23T13:10:23Z</time>
      </trkpt>
      <trkpt lat="45.32761" lon="4.48367">
        <ele>1148.43</ele>
        <time>2021-03-23T13:10:29Z</time>
      </trkpt>
      <trkpt lat="45.32762" lon="4.48357">
        <ele>1147.95</ele>
        <time>2021-03-23T13:10:30Z</time>
      </trkpt>
      <trkpt lat="45.32762" lon="4.48347">
        <ele>1147.95</ele>
        <time>2021-03-23T13:10:31Z</time>
      </trkpt>
      <trkpt lat="45.32758" lon="4.48276">
        <ele>1146.03</ele>
        <time>2021-03-23T13:10:39Z</time>
      </trkpt>
      <trkpt lat="45.32755" lon="4.48248">
        <ele>1143.63</ele>
        <time>2021-03-23T13:10:42Z</time>
      </trkpt>
      <trkpt lat="45.32753" lon="4.48239">
        <ele>1142.18</ele>
        <time>2021-03-23T13:10:43Z</time>
      </trkpt>
      <trkpt lat="45.32748" lon="4.48223">
        <ele>1139.78</ele>
        <time>2021-03-23T13:10:45Z</time>
      </trkpt>
      <trkpt lat="45.32745" lon="4.48216">
        <ele>1139.3</ele>
        <time>2021-03-23T13:10:46Z</time>
      </trkpt>
      <trkpt lat="45.32741" lon="4.48211">
        <ele>1138.82</ele>
        <time>2021-03-23T13:10:47Z</time>
      </trkpt>
      <trkpt lat="45.32729" lon="4.48191">
        <ele>1136.9</ele>
        <time>2021-03-23T13:10:51Z</time>
      </trkpt>
      <trkpt lat="45.32717" lon="4.48172">
        <ele>1134.49</ele>
        <time>2021-03-23T13:10:55Z</time>
      </trkpt>
      <trkpt lat="45.32705" lon="4.48149">
        <ele>1132.09</ele>
        <time>2021-03-23T13:11:01Z</time>
      </trkpt>
      <trkpt lat="45.32701" lon="4.48145">
        <ele>1131.13</ele>
        <time>2021-03-23T13:11:03Z</time>
      </trkpt>
      <trkpt lat="45.32679" lon="4.48129">
        <ele>1130.17</ele>
        <time>2021-03-23T13:11:12Z</time>
      </trkpt>
      <trkpt lat="45.32607" lon="4.48145">
        <ele>1132.04296875</ele>
      </trkpt>
      <trkpt lat="45.32592" lon="4.48151">
        <ele>1132.328125</ele>
      </trkpt>
      <trkpt lat="45.32579" lon="4.48156">
        <ele>1132.4296875</ele>
      </trkpt>
      <trkpt lat="45.32576" lon="4.48159">
        <ele>1132.41015625</ele>
      </trkpt>
      <trkpt lat="45.32557" lon="4.48168">
        <ele>1132.94140625</ele>
      </trkpt>
      <trkpt lat="45.32547" lon="4.48164">
        <ele>1133.6640625</ele>
      </trkpt>
      <trkpt lat="45.3253" lon="4.48157">
        <ele>1134.953125</ele>
      </trkpt>
      <trkpt lat="45.32518" lon="4.48153">
        <ele>1135.87109375</ele>
      </trkpt>
      <trkpt lat="45.32493" lon="4.48149">
        <ele>1138.359375</ele>
      </trkpt>
      <trkpt lat="45.32486" lon="4.48146">
        <ele>1139.3359375</ele>
      </trkpt>
      <trkpt lat="45.3246" lon="4.48117">
        <ele>1145</ele>
      </trkpt>
      <trkpt lat="45.32458" lon="4.48113">
        <ele>1145.56640625</ele>
      </trkpt>
      <trkpt lat="45.32446" lon="4.48079">
        <ele>1149.5078125</ele>
      </trkpt>
      <trkpt lat="45.3243" lon="4.48016">
        <ele>1154.2265625</ele>
      </trkpt>
      <trkpt lat="45.32423" lon="4.47994">
        <ele>1155.359375</ele>
      </trkpt>
      <trkpt lat="45.32399" lon="4.47925">
        <ele>1156.94921875</ele>
      </trkpt>
      <trkpt lat="45.32388" lon="4.47912">
        <ele>1157.875</ele>
      </trkpt>
      <trkpt lat="45.32373" lon="4.47892">
        <ele>1158.984375</ele>
      </trkpt>
      <trkpt lat="45.32367" lon="4.47883">
        <ele>1159.5</ele>
      </trkpt>
      <trkpt lat="45.32338" lon="4.47844">
        <ele>1161.9140625</ele>
      </trkpt>
      <trkpt lat="45.32332" lon="4.4784">
        <ele>1162.53125</ele>
      </trkpt>
      <trkpt lat="45.32309" lon="4.47817">
        <ele>1165.12109375</ele>
      </trkpt>
      <trkpt lat="45.32291" lon="4.47797">
        <ele>1167.03125</ele>
      </trkpt>
      <trkpt lat="45.32282" lon="4.47791">
        <ele>1168.05078125</ele>
      </trkpt>
      <trkpt lat="45.32249" lon="4.47768">
        <ele>1171.734375</ele>
      </trkpt>
      <trkpt lat="45.32239" lon="4.47762">
        <ele>1172.85546875</ele>
      </trkpt>
      <trkpt lat="45.32193" lon="4.47733">
        <ele>1177.1171875</ele>
      </trkpt>
      <trkpt lat="45.32178" lon="4.4772">
        <ele>1178.1015625</ele>
      </trkpt>
      <trkpt lat="45.32111" lon="4.47668">
        <ele>1181.84375</ele>
      </trkpt>
      <trkpt lat="45.32093" lon="4.47654">
        <ele>1181.90234375</ele>
      </trkpt>
      <trkpt lat="45.32088" lon="4.47648">
        <ele>1181.7109375</ele>
      </trkpt>
      <trkpt lat="45.32079" lon="4.47632">
        <ele>1180.87890625</ele>
      </trkpt>
      <trkpt lat="45.32076" lon="4.47601">
        <ele>1178.890625</ele>
      </trkpt>
      <trkpt lat="45.32073" lon="4.47586">
        <ele>1178.296875</ele>
      </trkpt>
      <trkpt lat="45.3207" lon="4.47571">
        <ele>1177.640625</ele>
      </trkpt>
      <trkpt lat="45.32059" lon="4.47539">
        <ele>1176.328125</ele>
      </trkpt>
      <trkpt lat="45.32037" lon="4.4749">
        <ele>1174.1640625</ele>
      </trkpt>
      <trkpt lat="45.32029" lon="4.47475">
        <ele>1173.390625</ele>
      </trkpt>
      <trkpt lat="45.32015" lon="4.47456">
        <ele>1172.50390625</ele>
      </trkpt>
      <trkpt lat="45.31995" lon="4.47434">
        <ele>1171.91015625</ele>
      </trkpt>
      <trkpt lat="45.31984" lon="4.47417">
        <ele>1171.53125</ele>
      </trkpt>
      <trkpt lat="45.3197" lon="4.47372">
        <ele>1170.109375</ele>
      </trkpt>
      <trkpt lat="45.31961" lon="4.47314">
        <ele>1168.09375</ele>
      </trkpt>
      <trkpt lat="45.31957" lon="4.47291">
        <ele>1167.6328125</ele>
      </trkpt>
      <trkpt lat="45.31951" lon="4.47271">
        <ele>1167.55859375</ele>
      </trkpt>
      <trkpt lat="45.31939" lon="4.47242">
        <ele>1167.83203125</ele>
      </trkpt>
      <trkpt lat="45.31928" lon="4.47225">
        <ele>1168.453125</ele>
      </trkpt>
      <trkpt lat="45.31923" lon="4.47213">
        <ele>1168.45703125</ele>
      </trkpt>
      <trkpt lat="45.31884" lon="4.47159">
        <ele>1169.2578125</ele>
      </trkpt>
      <trkpt lat="45.31869" lon="4.47134">
        <ele>1168.74609375</ele>
      </trkpt>
      <trkpt lat="45.31851" lon="4.47114">
        <ele>1168.71484375</ele>
      </trkpt>
      <trkpt lat="45.31842" lon="4.47109">
        <ele>1169.30078125</ele>
      </trkpt>
      <trkpt lat="45.31836" lon="4.47105">
        <ele>1169.65234375</ele>
      </trkpt>
      <trkpt lat="45.31802" lon="4.47076">
        <ele>1170.58984375</ele>
      </trkpt>
      <trkpt lat="45.31794" lon="4.47064">
        <ele>1170.34765625</ele>
      </trkpt>
      <trkpt lat="45.31779" lon="4.47043">
        <ele>1170.0390625</ele>
      </trkpt>
      <trkpt lat="45.31753" lon="4.46977">
        <ele>1167.43359375</ele>
      </trkpt>
      <trkpt lat="45.31735" lon="4.46938">
        <ele>1166.234375</ele>
      </trkpt>
      <trkpt lat="45.31734" lon="4.46924">
        <ele>1165.10546875</ele>
      </trkpt>
      <trkpt lat="45.31732" lon="4.46902">
        <ele>1163.2421875</ele>
      </trkpt>
      <trkpt lat="45.31735" lon="4.46864">
        <ele>1158.91796875</ele>
      </trkpt>
      <trkpt lat="45.31734" lon="4.46859">
        <ele>1158.51171875</ele>
      </trkpt>
      <trkpt lat="45.31732" lon="4.46853">
        <ele>1157.9296875</ele>
      </trkpt>
      <trkpt lat="45.31725" lon="4.4684">
        <ele>1156.859375</ele>
      </trkpt>
      <trkpt lat="45.31717" lon="4.46831">
        <ele>1156.66015625</ele>
      </trkpt>
      <trkpt lat="45.31709" lon="4.46823">
        <ele>1156.44921875</ele>
      </trkpt>
      <trkpt lat="45.31703" lon="4.46815">
        <ele>1156.2578125</ele>
      </trkpt>
      <trkpt lat="45.31695" lon="4.46807">
        <ele>1156.04296875</ele>
      </trkpt>
      <trkpt lat="45.31691" lon="4.46799">
        <ele>1155.734375</ele>
      </trkpt>
      <trkpt lat="45.31688" lon="4.46792">
        <ele>1155.3671875</ele>
      </trkpt>
      <trkpt lat="45.31684" lon="4.46783">
        <ele>1154.921875</ele>
      </trkpt>
      <trkpt lat="45.31681" lon="4.4677">
        <ele>1154.12890625</ele>
      </trkpt>
      <trkpt lat="45.31678" lon="4.46756">
        <ele>1153.2421875</ele>
      </trkpt>
      <trkpt lat="45.31672" lon="4.46719">
        <ele>1150.8046875</ele>
      </trkpt>
      <trkpt lat="45.31671" lon="4.46714">
        <ele>1150.5546875</ele>
      </trkpt>
      <trkpt lat="45.31659" lon="4.46665">
        <ele>1148.14453125</ele>
      </trkpt>
      <trkpt lat="45.31652" lon="4.46633">
        <ele>1147.57421875</ele>
      </trkpt>
      <trkpt lat="45.31648" lon="4.46607">
        <ele>1147.1015625</ele>
      </trkpt>
      <trkpt lat="45.31644" lon="4.46589">
        <ele>1146.92578125</ele>
      </trkpt>
      <trkpt lat="45.3164" lon="4.46574">
        <ele>1146.7734375</ele>
      </trkpt>
      <trkpt lat="45.31636" lon="4.46563">
        <ele>1146.734375</ele>
      </trkpt>
      <trkpt lat="45.31633" lon="4.46557">
        <ele>1146.9140625</ele>
      </trkpt>
      <trkpt lat="45.31629" lon="4.46552">
        <ele>1147.13671875</ele>
      </trkpt>
      <trkpt lat="45.31619" lon="4.46542">
        <ele>1147.296875</ele>
      </trkpt>
      <trkpt lat="45.31677" lon="4.46528">
        <ele>1146.875</ele>
      </trkpt>
      <trkpt lat="45.31691" lon="4.46528">
        <ele>1146.67578125</ele>
      </trkpt>
      <trkpt lat="45.31725" lon="4.46528">
        <ele>1146.05859375</ele>
      </trkpt>
      <trkpt lat="45.31735" lon="4.46527">
        <ele>1145.94140625</ele>
      </trkpt>
      <trkpt lat="45.31743" lon="4.46526">
        <ele>1145.62109375</ele>
      </trkpt>
      <trkpt lat="45.31766" lon="4.46522">
        <ele>1144.34375</ele>
      </trkpt>
      <trkpt lat="45.31802" lon="4.46517">
        <ele>1142.375</ele>
      </trkpt>
      <trkpt lat="45.3183" lon="4.46515">
        <ele>1140.484375</ele>
      </trkpt>
      <trkpt lat="45.31844" lon="4.46513">
        <ele>1139.6640625</ele>
      </trkpt>
      <trkpt lat="45.31865" lon="4.4651">
        <ele>1139.3125</ele>
      </trkpt>
      <trkpt lat="45.31873" lon="4.46508">
        <ele>1139.26953125</ele>
      </trkpt>
      <trkpt lat="45.31881" lon="4.46506">
        <ele>1139.3828125</ele>
      </trkpt>
      <trkpt lat="45.31888" lon="4.46505">
        <ele>1139.39453125</ele>
      </trkpt>
      <trkpt lat="45.31897" lon="4.46503">
        <ele>1139.58984375</ele>
      </trkpt>
      <trkpt lat="45.31905" lon="4.465">
        <ele>1139.95703125</ele>
      </trkpt>
      <trkpt lat="45.31913" lon="4.46497">
        <ele>1140.05078125</ele>
      </trkpt>
      <trkpt lat="45.31943" lon="4.46482">
        <ele>1140.58984375</ele>
      </trkpt>
      <trkpt lat="45.31946" lon="4.46479">
        <ele>1140.7109375</ele>
      </trkpt>
      <trkpt lat="45.31955" lon="4.46473">
        <ele>1141.11328125</ele>
      </trkpt>
      <trkpt lat="45.31961" lon="4.46467">
        <ele>1141.60546875</ele>
      </trkpt>
      <trkpt lat="45.31971" lon="4.46456">
        <ele>1141.79296875</ele>
      </trkpt>
      <trkpt lat="45.31989" lon="4.46431">
        <ele>1141.99609375</ele>
      </trkpt>
      <trkpt lat="45.32017" lon="4.46388">
        <ele>1141.4921875</ele>
      </trkpt>
      <trkpt lat="45.32037" lon="4.46359">
        <ele>1140.55859375</ele>
      </trkpt>
      <trkpt lat="45.32055" lon="4.46338">
        <ele>1139.25390625</ele>
      </trkpt>
      <trkpt lat="45.32064" lon="4.46334">
        <ele>1137.89453125</ele>
      </trkpt>
      <trkpt lat="45.32146" lon="4.46298">
        <ele>1127.73828125</ele>
      </trkpt>
      <trkpt lat="45.32163" lon="4.46287">
        <ele>1125.921875</ele>
      </trkpt>
      <trkpt lat="45.32189" lon="4.46271">
        <ele>1123.5234375</ele>
      </trkpt>
      <trkpt lat="45.32232" lon="4.46258">
        <ele>1118.73046875</ele>
      </trkpt>
      <trkpt lat="45.32309" lon="4.46222">
        <ele>1110.0078125</ele>
      </trkpt>
      <trkpt lat="45.32323" lon="4.46215">
        <ele>1108.26171875</ele>
      </trkpt>
      <trkpt lat="45.32328" lon="4.46212">
        <ele>1107.57421875</ele>
      </trkpt>
      <trkpt lat="45.32368" lon="4.46198">
        <ele>1102.71875</ele>
      </trkpt>
      <trkpt lat="45.32422" lon="4.4614">
        <ele>1100.3203125</ele>
      </trkpt>
      <trkpt lat="45.32448" lon="4.46113">
        <ele>1098.36328125</ele>
      </trkpt>
      <trkpt lat="45.32475" lon="4.46091">
        <ele>1095.7890625</ele>
      </trkpt>
      <trkpt lat="45.3253" lon="4.46062">
        <ele>1088.99609375</ele>
      </trkpt>
      <trkpt lat="45.32557" lon="4.46045">
        <ele>1085.01953125</ele>
      </trkpt>
      <trkpt lat="45.32596" lon="4.46019">
        <ele>1081.23828125</ele>
      </trkpt>
      <trkpt lat="45.32615" lon="4.46006">
        <ele>1080.0078125</ele>
      </trkpt>
      <trkpt lat="45.32631" lon="4.45999">
        <ele>1078.2265625</ele>
      </trkpt>
      <trkpt lat="45.32634" lon="4.45995">
        <ele>1078.18359375</ele>
      </trkpt>
      <trkpt lat="45.32646" lon="4.45983">
        <ele>1077.66015625</ele>
      </trkpt>
      <trkpt lat="45.32723" lon="4.45873">
        <ele>1073.87109375</ele>
      </trkpt>
      <trkpt lat="45.32729" lon="4.45842">
        <ele>1073.38671875</ele>
      </trkpt>
      <trkpt lat="45.32739" lon="4.45805">
        <ele>1070.0078125</ele>
      </trkpt>
      <trkpt lat="45.32748" lon="4.45771">
        <ele>1067.32421875</ele>
      </trkpt>
      <trkpt lat="45.3275" lon="4.45759">
        <ele>1066.53125</ele>
      </trkpt>
      <trkpt lat="45.32751" lon="4.45747">
        <ele>1065.9140625</ele>
      </trkpt>
      <trkpt lat="45.32754" lon="4.45728">
        <ele>1064.71875</ele>
      </trkpt>
      <trkpt lat="45.32758" lon="4.45718">
        <ele>1063.64453125</ele>
      </trkpt>
      <trkpt lat="45.32769" lon="4.45698">
        <ele>1061.171875</ele>
      </trkpt>
      <trkpt lat="45.32773" lon="4.45689">
        <ele>1060.0546875</ele>
      </trkpt>
      <trkpt lat="45.32778" lon="4.45679">
        <ele>1058.91015625</ele>
      </trkpt>
      <trkpt lat="45.32781" lon="4.45669">
        <ele>1057.92578125</ele>
      </trkpt>
      <trkpt lat="45.32783" lon="4.45661">
        <ele>1057.171875</ele>
      </trkpt>
      <trkpt lat="45.32786" lon="4.45644">
        <ele>1055.78125</ele>
      </trkpt>
      <trkpt lat="45.32788" lon="4.45633">
        <ele>1054.84765625</ele>
      </trkpt>
      <trkpt lat="45.32787" lon="4.45627">
        <ele>1054.73046875</ele>
      </trkpt>
      <trkpt lat="45.32787" lon="4.45617">
        <ele>1054.2734375</ele>
      </trkpt>
      <trkpt lat="45.32787" lon="4.45607">
        <ele>1054.25390625</ele>
      </trkpt>
      <trkpt lat="45.3279" lon="4.45597">
        <ele>1053.8203125</ele>
      </trkpt>
      <trkpt lat="45.32793" lon="4.45586">
        <ele>1053.203125</ele>
      </trkpt>
      <trkpt lat="45.32795" lon="4.45576">
        <ele>1052.87890625</ele>
      </trkpt>
      <trkpt lat="45.32798" lon="4.45566">
        <ele>1052.53125</ele>
      </trkpt>
      <trkpt lat="45.328" lon="4.45557">
        <ele>1052.31640625</ele>
      </trkpt>
      <trkpt lat="45.32805" lon="4.45535">
        <ele>1051.93359375</ele>
      </trkpt>
      <trkpt lat="45.32807" lon="4.45521">
        <ele>1051.77734375</ele>
      </trkpt>
      <trkpt lat="45.32807" lon="4.45511">
        <ele>1051.82421875</ele>
      </trkpt>
      <trkpt lat="45.32808" lon="4.45498">
        <ele>1051.47265625</ele>
      </trkpt>
      <trkpt lat="45.32808" lon="4.45486">
        <ele>1051.1015625</ele>
      </trkpt>
      <trkpt lat="45.32813" lon="4.45475">
        <ele>1050.3359375</ele>
      </trkpt>
      <trkpt lat="45.32824" lon="4.45489">
        <ele>1049.80859375</ele>
      </trkpt>
      <trkpt lat="45.32834" lon="4.455">
        <ele>1049.27734375</ele>
      </trkpt>
      <trkpt lat="45.3286" lon="4.45534">
        <ele>1046.5078125</ele>
      </trkpt>
      <trkpt lat="45.32877" lon="4.45559">
        <ele>1044.515625</ele>
      </trkpt>
      <trkpt lat="45.32888" lon="4.45575">
        <ele>1043.42578125</ele>
      </trkpt>
      <trkpt lat="45.32893" lon="4.45579">
        <ele>1043.04296875</ele>
      </trkpt>
      <trkpt lat="45.32898" lon="4.45581">
        <ele>1042.58203125</ele>
      </trkpt>
      <trkpt lat="45.32937" lon="4.45592">
        <ele>1038.578125</ele>
      </trkpt>
      <trkpt lat="45.32941" lon="4.45602">
        <ele>1038.1171875</ele>
      </trkpt>
      <trkpt lat="45.32955" lon="4.45631">
        <ele>1037.52734375</ele>
      </trkpt>
      <trkpt lat="45.32972" lon="4.45668">
        <ele>1038.21875</ele>
      </trkpt>
      <trkpt lat="45.32988" lon="4.45703">
        <ele>1038.125</ele>
      </trkpt>
      <trkpt lat="45.33001" lon="4.45734">
        <ele>1037.91796875</ele>
      </trkpt>
      <trkpt lat="45.33007" lon="4.45753">
        <ele>1037.15234375</ele>
      </trkpt>
      <trkpt lat="45.33012" lon="4.45767">
        <ele>1036.59375</ele>
      </trkpt>
      <trkpt lat="45.33013" lon="4.45775">
        <ele>1036.453125</ele>
      </trkpt>
      <trkpt lat="45.33014" lon="4.45783">
        <ele>1036.30859375</ele>
      </trkpt>
      <trkpt lat="45.33014" lon="4.45795">
        <ele>1035.546875</ele>
      </trkpt>
      <trkpt lat="45.33011" lon="4.45816">
        <ele>1034.66015625</ele>
      </trkpt>
      <trkpt lat="45.33009" lon="4.45831">
        <ele>1033.90234375</ele>
      </trkpt>
      <trkpt lat="45.33008" lon="4.45846">
        <ele>1033.26171875</ele>
      </trkpt>
      <trkpt lat="45.33008" lon="4.45873">
        <ele>1031.87890625</ele>
      </trkpt>
      <trkpt lat="45.33008" lon="4.45893">
        <ele>1030.8828125</ele>
      </trkpt>
      <trkpt lat="45.33009" lon="4.45914">
        <ele>1028.79296875</ele>
      </trkpt>
      <trkpt lat="45.33011" lon="4.45938">
        <ele>1026.4140625</ele>
      </trkpt>
      <trkpt lat="45.33013" lon="4.45961">
        <ele>1023.5703125</ele>
      </trkpt>
      <trkpt lat="45.33013" lon="4.45969">
        <ele>1022.5703125</ele>
      </trkpt>
      <trkpt lat="45.33014" lon="4.45976">
        <ele>1021.68359375</ele>
      </trkpt>
      <trkpt lat="45.33014" lon="4.45987">
        <ele>1020.5078125</ele>
      </trkpt>
      <trkpt lat="45.33013" lon="4.45998">
        <ele>1019.5546875</ele>
      </trkpt>
      <trkpt lat="45.33011" lon="4.46014">
        <ele>1018.1796875</ele>
      </trkpt>
      <trkpt lat="45.33007" lon="4.46034">
        <ele>1016.421875</ele>
      </trkpt>
      <trkpt lat="45.33003" lon="4.46052">
        <ele>1014.953125</ele>
      </trkpt>
      <trkpt lat="45.32999" lon="4.46072">
        <ele>1014.7421875</ele>
      </trkpt>
      <trkpt lat="45.32999" lon="4.46098">
        <ele>1015.4140625</ele>
      </trkpt>
      <trkpt lat="45.33002" lon="4.46103">
        <ele>1015.30859375</ele>
      </trkpt>
      <trkpt lat="45.33008" lon="4.46108">
        <ele>1015.03515625</ele>
      </trkpt>
      <trkpt lat="45.3302" lon="4.46114">
        <ele>1014.87890625</ele>
      </trkpt>
      <trkpt lat="45.3303" lon="4.46116">
        <ele>1015.16796875</ele>
      </trkpt>
      <trkpt lat="45.3307" lon="4.46107">
        <ele>1015.0859375</ele>
      </trkpt>
      <trkpt lat="45.33088" lon="4.46106">
        <ele>1015.89453125</ele>
      </trkpt>
      <trkpt lat="45.33095" lon="4.46104">
        <ele>1016.10546875</ele>
      </trkpt>
      <trkpt lat="45.33099" lon="4.46104">
        <ele>1016.28125</ele>
      </trkpt>
      <trkpt lat="45.33107" lon="4.46099">
        <ele>1016.26171875</ele>
      </trkpt>
      <trkpt lat="45.33115" lon="4.46093">
        <ele>1016.18359375</ele>
      </trkpt>
      <trkpt lat="45.33121" lon="4.46084">
        <ele>1015.66015625</ele>
      </trkpt>
      <trkpt lat="45.33127" lon="4.46073">
        <ele>1015.046875</ele>
      </trkpt>
      <trkpt lat="45.33134" lon="4.46058">
        <ele>1014.0390625</ele>
      </trkpt>
      <trkpt lat="45.33141" lon="4.46036">
        <ele>1012.51171875</ele>
      </trkpt>
      <trkpt lat="45.33149" lon="4.46021">
        <ele>1011.56640625</ele>
      </trkpt>
      <trkpt lat="45.33151" lon="4.46008">
        <ele>1010.5234375</ele>
      </trkpt>
      <trkpt lat="45.33155" lon="4.46001">
        <ele>1010.02734375</ele>
      </trkpt>
      <trkpt lat="45.33161" lon="4.45996">
        <ele>1009.7265625</ele>
      </trkpt>
      <trkpt lat="45.33166" lon="4.4599">
        <ele>1009.37109375</ele>
      </trkpt>
      <trkpt lat="45.33171" lon="4.4599">
        <ele>1009.578125</ele>
      </trkpt>
      <trkpt lat="45.33181" lon="4.45986">
        <ele>1009.41796875</ele>
      </trkpt>
      <trkpt lat="45.33193" lon="4.45959">
        <ele>1006.40234375</ele>
      </trkpt>
      <trkpt lat="45.332" lon="4.45952">
        <ele>1005.76953125</ele>
      </trkpt>
      <trkpt lat="45.33208" lon="4.45946">
        <ele>1005.53125</ele>
      </trkpt>
      <trkpt lat="45.33217" lon="4.45941">
        <ele>1005.359375</ele>
      </trkpt>
      <trkpt lat="45.33228" lon="4.45936">
        <ele>1005.30078125</ele>
      </trkpt>
      <trkpt lat="45.33235" lon="4.45929">
        <ele>1004.953125</ele>
      </trkpt>
      <trkpt lat="45.3324" lon="4.45923">
        <ele>1004.46875</ele>
      </trkpt>
      <trkpt lat="45.33243" lon="4.45915">
        <ele>1003.77734375</ele>
      </trkpt>
      <trkpt lat="45.33244" lon="4.45911">
        <ele>1003.390625</ele>
      </trkpt>
      <trkpt lat="45.33247" lon="4.45898">
        <ele>1002.2578125</ele>
      </trkpt>
      <trkpt lat="45.33247" lon="4.45874">
        <ele>1000.5703125</ele>
      </trkpt>
      <trkpt lat="45.33249" lon="4.45864">
        <ele>999.84765625</ele>
      </trkpt>
      <trkpt lat="45.33252" lon="4.45852">
        <ele>999.0859375</ele>
      </trkpt>
      <trkpt lat="45.33257" lon="4.45843">
        <ele>998.59375</ele>
      </trkpt>
      <trkpt lat="45.3327" lon="4.45831">
        <ele>998.12109375</ele>
      </trkpt>
      <trkpt lat="45.33291" lon="4.4582">
        <ele>997.5546875</ele>
      </trkpt>
      <trkpt lat="45.3333" lon="4.45796">
        <ele>994.02734375</ele>
      </trkpt>
      <trkpt lat="45.33339" lon="4.45792">
        <ele>993.2265625</ele>
      </trkpt>
      <trkpt lat="45.33348" lon="4.45782">
        <ele>991.9609375</ele>
      </trkpt>
      <trkpt lat="45.33355" lon="4.45771">
        <ele>991.85546875</ele>
      </trkpt>
      <trkpt lat="45.33359" lon="4.45761">
        <ele>991.8359375</ele>
      </trkpt>
      <trkpt lat="45.3336" lon="4.45749">
        <ele>991.65234375</ele>
      </trkpt>
      <trkpt lat="45.3336" lon="4.45737">
        <ele>991.40234375</ele>
      </trkpt>
      <trkpt lat="45.33359" lon="4.45723">
        <ele>991.171875</ele>
      </trkpt>
      <trkpt lat="45.33358" lon="4.45706">
        <ele>991.25390625</ele>
      </trkpt>
      <trkpt lat="45.33357" lon="4.4569">
        <ele>991.2734375</ele>
      </trkpt>
      <trkpt lat="45.33357" lon="4.45674">
        <ele>991.44140625</ele>
      </trkpt>
      <trkpt lat="45.33355" lon="4.45658">
        <ele>991.12109375</ele>
      </trkpt>
      <trkpt lat="45.33353" lon="4.45643">
        <ele>990.75</ele>
      </trkpt>
      <trkpt lat="45.33348" lon="4.45627">
        <ele>989.9921875</ele>
      </trkpt>
      <trkpt lat="45.33344" lon="4.45613">
        <ele>989.96875</ele>
      </trkpt>
      <trkpt lat="45.33343" lon="4.45597">
        <ele>990.109375</ele>
      </trkpt>
      <trkpt lat="45.33345" lon="4.4558">
        <ele>990.41796875</ele>
      </trkpt>
      <trkpt lat="45.33351" lon="4.4557">
        <ele>991.15625</ele>
      </trkpt>
      <trkpt lat="45.33352" lon="4.4556">
        <ele>991.4765625</ele>
      </trkpt>
      <trkpt lat="45.33358" lon="4.4554">
        <ele>992.3125</ele>
      </trkpt>
      <trkpt lat="45.33368" lon="4.45515">
        <ele>992.953125</ele>
      </trkpt>
      <trkpt lat="45.33375" lon="4.45494">
        <ele>992.81640625</ele>
      </trkpt>
      <trkpt lat="45.33384" lon="4.45466">
        <ele>991.8359375</ele>
      </trkpt>
      <trkpt lat="45.33394" lon="4.45439">
        <ele>990.0859375</ele>
      </trkpt>
      <trkpt lat="45.33401" lon="4.45421">
        <ele>988.40625</ele>
      </trkpt>
      <trkpt lat="45.3341" lon="4.45409">
        <ele>987.0703125</ele>
      </trkpt>
      <trkpt lat="45.33416" lon="4.45396">
        <ele>985.63671875</ele>
      </trkpt>
      <trkpt lat="45.33423" lon="4.4538">
        <ele>984.32421875</ele>
      </trkpt>
      <trkpt lat="45.33427" lon="4.45356">
        <ele>982.66015625</ele>
      </trkpt>
      <trkpt lat="45.33428" lon="4.45345">
        <ele>981.94140625</ele>
      </trkpt>
      <trkpt lat="45.33428" lon="4.45333">
        <ele>981.3515625</ele>
      </trkpt>
      <trkpt lat="45.33429" lon="4.45321">
        <ele>980.984375</ele>
      </trkpt>
      <trkpt lat="45.33428" lon="4.45306">
        <ele>980.51171875</ele>
      </trkpt>
      <trkpt lat="45.33428" lon="4.453">
        <ele>980.33203125</ele>
      </trkpt>
      <trkpt lat="45.33427" lon="4.45283">
        <ele>979.796875</ele>
      </trkpt>
      <trkpt lat="45.33427" lon="4.4526">
        <ele>979.71484375</ele>
      </trkpt>
      <trkpt lat="45.33429" lon="4.45232">
        <ele>979.765625</ele>
      </trkpt>
      <trkpt lat="45.33431" lon="4.45204">
        <ele>980.578125</ele>
      </trkpt>
      <trkpt lat="45.33431" lon="4.45178">
        <ele>981.26171875</ele>
      </trkpt>
      <trkpt lat="45.33429" lon="4.45157">
        <ele>981.96484375</ele>
      </trkpt>
      <trkpt lat="45.33424" lon="4.45141">
        <ele>982.28125</ele>
      </trkpt>
      <trkpt lat="45.33415" lon="4.45126">
        <ele>982.359375</ele>
      </trkpt>
      <trkpt lat="45.33406" lon="4.45106">
        <ele>982.97265625</ele>
      </trkpt>
      <trkpt lat="45.334" lon="4.45089">
        <ele>983.32421875</ele>
      </trkpt>
      <trkpt lat="45.33397" lon="4.45075">
        <ele>983.73828125</ele>
      </trkpt>
      <trkpt lat="45.33398" lon="4.45059">
        <ele>984.8359375</ele>
      </trkpt>
      <trkpt lat="45.33401" lon="4.45035">
        <ele>985.79296875</ele>
      </trkpt>
      <trkpt lat="45.33406" lon="4.45009">
        <ele>987.13671875</ele>
      </trkpt>
      <trkpt lat="45.33414" lon="4.44977">
        <ele>988.28125</ele>
      </trkpt>
      <trkpt lat="45.33421" lon="4.4495">
        <ele>989.1953125</ele>
      </trkpt>
      <trkpt lat="45.3343" lon="4.44923">
        <ele>989.55859375</ele>
      </trkpt>
      <trkpt lat="45.33441" lon="4.44893">
        <ele>990.171875</ele>
      </trkpt>
      <trkpt lat="45.33451" lon="4.44864">
        <ele>990.47265625</ele>
      </trkpt>
      <trkpt lat="45.33461" lon="4.44835">
        <ele>991</ele>
      </trkpt>
      <trkpt lat="45.33471" lon="4.44826">
        <ele>991.71484375</ele>
      </trkpt>
      <trkpt lat="45.33477" lon="4.44819">
        <ele>992.16015625</ele>
      </trkpt>
      <trkpt lat="45.33486" lon="4.44808">
        <ele>992.73828125</ele>
      </trkpt>
      <trkpt lat="45.33492" lon="4.44796">
        <ele>993.10546875</ele>
      </trkpt>
      <trkpt lat="45.33498" lon="4.44789">
        <ele>993.453125</ele>
      </trkpt>
      <trkpt lat="45.33502" lon="4.44786">
        <ele>993.80078125</ele>
      </trkpt>
      <trkpt lat="45.33499" lon="4.44773">
        <ele>992.91015625</ele>
      </trkpt>
      <trkpt lat="45.33492" lon="4.44731">
        <ele>990.140625</ele>
      </trkpt>
      <trkpt lat="45.33489" lon="4.44717">
        <ele>988.87890625</ele>
      </trkpt>
      <trkpt lat="45.33487" lon="4.44694">
        <ele>987.171875</ele>
      </trkpt>
      <trkpt lat="45.33487" lon="4.44657">
        <ele>984.8046875</ele>
      </trkpt>
      <trkpt lat="45.33487" lon="4.44615">
        <ele>982.1484375</ele>
      </trkpt>
      <trkpt lat="45.33488" lon="4.44576">
        <ele>979.50390625</ele>
      </trkpt>
      <trkpt lat="45.33487" lon="4.4454">
        <ele>977.57421875</ele>
      </trkpt>
      <trkpt lat="45.33485" lon="4.44514">
        <ele>976.4609375</ele>
      </trkpt>
      <trkpt lat="45.33484" lon="4.44485">
        <ele>975.7890625</ele>
      </trkpt>
      <trkpt lat="45.33485" lon="4.44457">
        <ele>975.421875</ele>
      </trkpt>
      <trkpt lat="45.33486" lon="4.44431">
        <ele>975.0546875</ele>
      </trkpt>
      <trkpt lat="45.33488" lon="4.44396">
        <ele>974.50390625</ele>
      </trkpt>
      <trkpt lat="45.3349" lon="4.44359">
        <ele>973.52734375</ele>
      </trkpt>
      <trkpt lat="45.33489" lon="4.44337">
        <ele>972.80859375</ele>
      </trkpt>
      <trkpt lat="45.33487" lon="4.44311">
        <ele>971.4375</ele>
      </trkpt>
      <trkpt lat="45.33483" lon="4.44285">
        <ele>970.21484375</ele>
      </trkpt>
      <trkpt lat="45.33476" lon="4.44256">
        <ele>969.03125</ele>
      </trkpt>
      <trkpt lat="45.33468" lon="4.44225">
        <ele>967.75</ele>
      </trkpt>
      <trkpt lat="45.33459" lon="4.44193">
        <ele>966.625</ele>
      </trkpt>
      <trkpt lat="45.33453" lon="4.44167">
        <ele>965.39453125</ele>
      </trkpt>
      <trkpt lat="45.33444" lon="4.44135">
        <ele>964.03515625</ele>
      </trkpt>
      <trkpt lat="45.33435" lon="4.44108">
        <ele>961.90625</ele>
      </trkpt>
      <trkpt lat="45.33426" lon="4.44088">
        <ele>959.4140625</ele>
      </trkpt>
      <trkpt lat="45.33427" lon="4.44082">
        <ele>959.22265625</ele>
      </trkpt>
      <trkpt lat="45.33428" lon="4.44075">
        <ele>959.02734375</ele>
      </trkpt>
      <trkpt lat="45.33429" lon="4.44049">
        <ele>957.65625</ele>
      </trkpt>
      <trkpt lat="45.3343" lon="4.44023">
        <ele>956.10546875</ele>
      </trkpt>
      <trkpt lat="45.33432" lon="4.44">
        <ele>955.0859375</ele>
      </trkpt>
      <trkpt lat="45.33435" lon="4.43981">
        <ele>954.51171875</ele>
      </trkpt>
      <trkpt lat="45.3344" lon="4.43965">
        <ele>954.1875</ele>
      </trkpt>
      <trkpt lat="45.33451" lon="4.43934">
        <ele>953.375</ele>
      </trkpt>
      <trkpt lat="45.33455" lon="4.43921">
        <ele>952.62890625</ele>
      </trkpt>
      <trkpt lat="45.33456" lon="4.43912">
        <ele>951.99609375</ele>
      </trkpt>
      <trkpt lat="45.33457" lon="4.43902">
        <ele>951.25390625</ele>
      </trkpt>
      <trkpt lat="45.33457" lon="4.43875">
        <ele>949.16796875</ele>
      </trkpt>
      <trkpt lat="45.33456" lon="4.43846">
        <ele>947.03125</ele>
      </trkpt>
      <trkpt lat="45.33455" lon="4.43831">
        <ele>945.8984375</ele>
      </trkpt>
      <trkpt lat="45.33454" lon="4.43818">
        <ele>944.921875</ele>
      </trkpt>
      <trkpt lat="45.33447" lon="4.43817">
        <ele>944.43359375</ele>
      </trkpt>
      <trkpt lat="45.33428" lon="4.43808">
        <ele>942.6640625</ele>
      </trkpt>
      <trkpt lat="45.33412" lon="4.438">
        <ele>941.25390625</ele>
      </trkpt>
      <trkpt lat="45.33401" lon="4.43798">
        <ele>940.6640625</ele>
      </trkpt>
      <trkpt lat="45.3339" lon="4.43795">
        <ele>940.3984375</ele>
      </trkpt>
      <trkpt lat="45.33377" lon="4.4379">
        <ele>940.125</ele>
      </trkpt>
      <trkpt lat="45.33365" lon="4.43787">
        <ele>940.01953125</ele>
      </trkpt>
      <trkpt lat="45.33355" lon="4.43788">
        <ele>940.015625</ele>
      </trkpt>
      <trkpt lat="45.33346" lon="4.4379">
        <ele>940.046875</ele>
      </trkpt>
      <trkpt lat="45.33336" lon="4.43792">
        <ele>940.2421875</ele>
      </trkpt>
      <trkpt lat="45.33331" lon="4.43794">
        <ele>940.3203125</ele>
      </trkpt>
      <trkpt lat="45.33326" lon="4.43797">
        <ele>940.4140625</ele>
      </trkpt>
      <trkpt lat="45.33327" lon="4.43792">
        <ele>940.39453125</ele>
      </trkpt>
      <trkpt lat="45.33328" lon="4.43784">
        <ele>940.35546875</ele>
      </trkpt>
      <trkpt lat="45.3333" lon="4.43779">
        <ele>940.19140625</ele>
      </trkpt>
      <trkpt lat="45.33332" lon="4.43772">
        <ele>939.98046875</ele>
      </trkpt>
      <trkpt lat="45.33335" lon="4.43765">
        <ele>939.8046875</ele>
      </trkpt>
      <trkpt lat="45.33335" lon="4.43758">
        <ele>939.6328125</ele>
      </trkpt>
      <trkpt lat="45.33332" lon="4.43752">
        <ele>939.52734375</ele>
      </trkpt>
      <trkpt lat="45.3333" lon="4.43748">
        <ele>939.44140625</ele>
      </trkpt>
      <trkpt lat="45.33326" lon="4.43741">
        <ele>939.30078125</ele>
      </trkpt>
      <trkpt lat="45.33318" lon="4.43734">
        <ele>939.12109375</ele>
      </trkpt>
      <trkpt lat="45.33302" lon="4.43716">
        <ele>939</ele>
      </trkpt>
      <trkpt lat="45.33294" lon="4.43707">
        <ele>939</ele>
      </trkpt>
      <trkpt lat="45.33291" lon="4.43704">
        <ele>939.20703125</ele>
      </trkpt>
      <trkpt lat="45.33286" lon="4.43699">
        <ele>939.5390625</ele>
      </trkpt>
      <trkpt lat="45.33279" lon="4.43687">
        <ele>940.20703125</ele>
      </trkpt>
      <trkpt lat="45.33278" lon="4.43682">
        <ele>940.33984375</ele>
      </trkpt>
      <trkpt lat="45.33277" lon="4.43676">
        <ele>940.5</ele>
      </trkpt>
      <trkpt lat="45.33277" lon="4.4367">
        <ele>940.546875</ele>
      </trkpt>
      <trkpt lat="45.33277" lon="4.43663">
        <ele>940.58203125</ele>
      </trkpt>
      <trkpt lat="45.33277" lon="4.43657">
        <ele>940.6171875</ele>
      </trkpt>
      <trkpt lat="45.33277" lon="4.4365">
        <ele>940.65234375</ele>
      </trkpt>
      <trkpt lat="45.33276" lon="4.43643">
        <ele>940.80078125</ele>
      </trkpt>
      <trkpt lat="45.33273" lon="4.43637">
        <ele>941.05078125</ele>
      </trkpt>
      <trkpt lat="45.33266" lon="4.43627">
        <ele>941.9140625</ele>
      </trkpt>
      <trkpt lat="45.33263" lon="4.4362">
        <ele>942.31640625</ele>
      </trkpt>
      <trkpt lat="45.33261" lon="4.43614">
        <ele>942.4765625</ele>
      </trkpt>
      <trkpt lat="45.33259" lon="4.43607">
        <ele>942.4765625</ele>
      </trkpt>
      <trkpt lat="45.33258" lon="4.43598">
        <ele>942.421875</ele>
      </trkpt>
      <trkpt lat="45.33258" lon="4.43587">
        <ele>942.2265625</ele>
      </trkpt>
      <trkpt lat="45.33257" lon="4.43573">
        <ele>942.08984375</ele>
      </trkpt>
      <trkpt lat="45.33257" lon="4.43559">
        <ele>941.890625</ele>
      </trkpt>
      <trkpt lat="45.33257" lon="4.43553">
        <ele>941.85546875</ele>
      </trkpt>
      <trkpt lat="45.33256" lon="4.43547">
        <ele>941.9296875</ele>
      </trkpt>
      <trkpt lat="45.33254" lon="4.4354">
        <ele>942.0859375</ele>
      </trkpt>
      <trkpt lat="45.3325" lon="4.43532">
        <ele>942.40625</ele>
      </trkpt>
      <trkpt lat="45.33247" lon="4.43524">
        <ele>942.58203125</ele>
      </trkpt>
      <trkpt lat="45.33242" lon="4.43514">
        <ele>942.7890625</ele>
      </trkpt>
      <trkpt lat="45.33238" lon="4.43507">
        <ele>943.01953125</ele>
      </trkpt>
      <trkpt lat="45.33234" lon="4.43498">
        <ele>943.63671875</ele>
      </trkpt>
      <trkpt lat="45.33228" lon="4.43489">
        <ele>944.37109375</ele>
      </trkpt>
      <trkpt lat="45.33223" lon="4.43481">
        <ele>945.10546875</ele>
      </trkpt>
      <trkpt lat="45.33218" lon="4.43473">
        <ele>945.8203125</ele>
      </trkpt>
      <trkpt lat="45.33213" lon="4.43467">
        <ele>946.40234375</ele>
      </trkpt>
      <trkpt lat="45.33206" lon="4.43453">
        <ele>947.46484375</ele>
      </trkpt>
      <trkpt lat="45.33202" lon="4.43446">
        <ele>947.7734375</ele>
      </trkpt>
      <trkpt lat="45.33197" lon="4.43441">
        <ele>948.0625</ele>
      </trkpt>
      <trkpt lat="45.33193" lon="4.43436">
        <ele>948.3359375</ele>
      </trkpt>
      <trkpt lat="45.33188" lon="4.4343">
        <ele>948.703125</ele>
      </trkpt>
      <trkpt lat="45.33175" lon="4.4342">
        <ele>949.47265625</ele>
      </trkpt>
      <trkpt lat="45.33168" lon="4.43415">
        <ele>949.87109375</ele>
      </trkpt>
      <trkpt lat="45.33162" lon="4.43412">
        <ele>950.31640625</ele>
      </trkpt>
      <trkpt lat="45.33154" lon="4.4341">
        <ele>950.8984375</ele>
      </trkpt>
      <trkpt lat="45.33147" lon="4.43406">
        <ele>951.43359375</ele>
      </trkpt>
      <trkpt lat="45.33139" lon="4.43401">
        <ele>951.99609375</ele>
      </trkpt>
      <trkpt lat="45.33131" lon="4.43398">
        <ele>952.69140625</ele>
      </trkpt>
      <trkpt lat="45.33123" lon="4.43395">
        <ele>953.2421875</ele>
      </trkpt>
      <trkpt lat="45.33116" lon="4.43393">
        <ele>953.7578125</ele>
      </trkpt>
      <trkpt lat="45.33104" lon="4.43387">
        <ele>954.56640625</ele>
      </trkpt>
      <trkpt lat="45.33092" lon="4.43381">
        <ele>955.40625</ele>
      </trkpt>
      <trkpt lat="45.33087" lon="4.4338">
        <ele>955.81640625</ele>
      </trkpt>
      <trkpt lat="45.3308" lon="4.43379">
        <ele>956.3125</ele>
      </trkpt>
      <trkpt lat="45.33074" lon="4.43378">
        <ele>956.8125</ele>
      </trkpt>
      <trkpt lat="45.33067" lon="4.43379">
        <ele>957.3125</ele>
      </trkpt>
      <trkpt lat="45.33061" lon="4.4338">
        <ele>957.80859375</ele>
      </trkpt>
      <trkpt lat="45.33055" lon="4.43381">
        <ele>958.30078125</ele>
      </trkpt>
      <trkpt lat="45.33048" lon="4.43381">
        <ele>958.80078125</ele>
      </trkpt>
      <trkpt lat="45.33042" lon="4.43381">
        <ele>959.296875</ele>
      </trkpt>
      <trkpt lat="45.33036" lon="4.4338">
        <ele>959.72265625</ele>
      </trkpt>
      <trkpt lat="45.33031" lon="4.43379">
        <ele>960.15234375</ele>
      </trkpt>
      <trkpt lat="45.33026" lon="4.43377">
        <ele>960.6015625</ele>
      </trkpt>
      <trkpt lat="45.33021" lon="4.43372">
        <ele>961.0078125</ele>
      </trkpt>
      <trkpt lat="45.33018" lon="4.43367">
        <ele>961.35546875</ele>
      </trkpt>
      <trkpt lat="45.33016" lon="4.43361">
        <ele>961.6484375</ele>
      </trkpt>
      <trkpt lat="45.33015" lon="4.43353">
        <ele>961.9453125</ele>
      </trkpt>
      <trkpt lat="45.33014" lon="4.43345">
        <ele>962.27734375</ele>
      </trkpt>
      <trkpt lat="45.33013" lon="4.43336">
        <ele>962.96875</ele>
      </trkpt>
      <trkpt lat="45.33013" lon="4.43326">
        <ele>963.8203125</ele>
      </trkpt>
      <trkpt lat="45.33011" lon="4.43288">
        <ele>967.4921875</ele>
      </trkpt>
      <trkpt lat="45.33011" lon="4.43282">
        <ele>967.890625</ele>
      </trkpt>
      <trkpt lat="45.33008" lon="4.43276">
        <ele>968.5703125</ele>
      </trkpt>
      <trkpt lat="45.33006" lon="4.43269">
        <ele>969.2265625</ele>
      </trkpt>
      <trkpt lat="45.33001" lon="4.43253">
        <ele>970.7421875</ele>
      </trkpt>
      <trkpt lat="45.32998" lon="4.43245">
        <ele>971.51171875</ele>
      </trkpt>
      <trkpt lat="45.32994" lon="4.43236">
        <ele>972.23046875</ele>
      </trkpt>
      <trkpt lat="45.32992" lon="4.4323">
        <ele>972.69921875</ele>
      </trkpt>
      <trkpt lat="45.32989" lon="4.43222">
        <ele>972.9375</ele>
      </trkpt>
      <trkpt lat="45.32987" lon="4.43215">
        <ele>973.07421875</ele>
      </trkpt>
      <trkpt lat="45.3298" lon="4.43198">
        <ele>973.390625</ele>
      </trkpt>
      <trkpt lat="45.32978" lon="4.43188">
        <ele>973.4375</ele>
      </trkpt>
      <trkpt lat="45.32976" lon="4.4318">
        <ele>973.4765625</ele>
      </trkpt>
      <trkpt lat="45.32973" lon="4.43174">
        <ele>973.546875</ele>
      </trkpt>
      <trkpt lat="45.32971" lon="4.43165">
        <ele>973.625</ele>
      </trkpt>
      <trkpt lat="45.32969" lon="4.43158">
        <ele>973.69921875</ele>
      </trkpt>
      <trkpt lat="45.32965" lon="4.4315">
        <ele>973.81640625</ele>
      </trkpt>
      <trkpt lat="45.32963" lon="4.43143">
        <ele>973.89453125</ele>
      </trkpt>
      <trkpt lat="45.32959" lon="4.43135">
        <ele>974.0390625</ele>
      </trkpt>
      <trkpt lat="45.32956" lon="4.43128">
        <ele>974.109375</ele>
      </trkpt>
      <trkpt lat="45.32953" lon="4.43122">
        <ele>974.15625</ele>
      </trkpt>
      <trkpt lat="45.32948" lon="4.43116">
        <ele>974.15234375</ele>
      </trkpt>
      <trkpt lat="45.32944" lon="4.43107">
        <ele>974.02734375</ele>
      </trkpt>
      <trkpt lat="45.3294" lon="4.43101">
        <ele>973.9296875</ele>
      </trkpt>
      <trkpt lat="45.32934" lon="4.43093">
        <ele>973.79296875</ele>
      </trkpt>
      <trkpt lat="45.32929" lon="4.43087">
        <ele>973.6640625</ele>
      </trkpt>
      <trkpt lat="45.32924" lon="4.43078">
        <ele>973.44921875</ele>
      </trkpt>
      <trkpt lat="45.32918" lon="4.43071">
        <ele>973.23828125</ele>
      </trkpt>
      <trkpt lat="45.3291" lon="4.43059">
        <ele>972.9296875</ele>
      </trkpt>
      <trkpt lat="45.32904" lon="4.43053">
        <ele>972.8203125</ele>
      </trkpt>
      <trkpt lat="45.32897" lon="4.43041">
        <ele>972.70703125</ele>
      </trkpt>
      <trkpt lat="45.32893" lon="4.43037">
        <ele>972.640625</ele>
      </trkpt>
      <trkpt lat="45.32884" lon="4.43027">
        <ele>972.35546875</ele>
      </trkpt>
      <trkpt lat="45.3288" lon="4.43023">
        <ele>972.171875</ele>
      </trkpt>
      <trkpt lat="45.32876" lon="4.43018">
        <ele>971.96484375</ele>
      </trkpt>
      <trkpt lat="45.32873" lon="4.43016">
        <ele>971.8359375</ele>
      </trkpt>
      <trkpt lat="45.3287" lon="4.43015">
        <ele>971.75</ele>
      </trkpt>
      <trkpt lat="45.32866" lon="4.43014">
        <ele>971.640625</ele>
      </trkpt>
      <trkpt lat="45.32854" lon="4.43012">
        <ele>971.35546875</ele>
      </trkpt>
      <trkpt lat="45.32846" lon="4.4301">
        <ele>971.29296875</ele>
      </trkpt>
      <trkpt lat="45.32831" lon="4.43005">
        <ele>971.85546875</ele>
      </trkpt>
      <trkpt lat="45.32825" lon="4.43002">
        <ele>972.05859375</ele>
      </trkpt>
      <trkpt lat="45.3282" lon="4.42999">
        <ele>972.21484375</ele>
      </trkpt>
      <trkpt lat="45.32814" lon="4.42995">
        <ele>972.33984375</ele>
      </trkpt>
      <trkpt lat="45.32809" lon="4.4299">
        <ele>972.4765625</ele>
      </trkpt>
      <trkpt lat="45.32802" lon="4.42986">
        <ele>972.69140625</ele>
      </trkpt>
      <trkpt lat="45.32797" lon="4.42981">
        <ele>972.8203125</ele>
      </trkpt>
      <trkpt lat="45.32791" lon="4.42978">
        <ele>973.16796875</ele>
      </trkpt>
      <trkpt lat="45.32785" lon="4.42972">
        <ele>973.38671875</ele>
      </trkpt>
      <trkpt lat="45.3278" lon="4.42968">
        <ele>973.63671875</ele>
      </trkpt>
      <trkpt lat="45.32774" lon="4.42964">
        <ele>973.8671875</ele>
      </trkpt>
      <trkpt lat="45.32769" lon="4.42958">
        <ele>974.0390625</ele>
      </trkpt>
      <trkpt lat="45.32765" lon="4.42953">
        <ele>974.109375</ele>
      </trkpt>
      <trkpt lat="45.32761" lon="4.42949">
        <ele>974.35546875</ele>
      </trkpt>
      <trkpt lat="45.32755" lon="4.42942">
        <ele>974.65625</ele>
      </trkpt>
      <trkpt lat="45.32751" lon="4.42936">
        <ele>974.859375</ele>
      </trkpt>
      <trkpt lat="45.32747" lon="4.4293">
        <ele>975.0625</ele>
      </trkpt>
      <trkpt lat="45.32742" lon="4.42924">
        <ele>975.234375</ele>
      </trkpt>
      <trkpt lat="45.32737" lon="4.42918">
        <ele>975.40625</ele>
      </trkpt>
      <trkpt lat="45.32732" lon="4.4291">
        <ele>975.3515625</ele>
      </trkpt>
      <trkpt lat="45.32727" lon="4.42905">
        <ele>975.25</ele>
      </trkpt>
      <trkpt lat="45.3272" lon="4.42906">
        <ele>975.37109375</ele>
      </trkpt>
      <trkpt lat="45.32715" lon="4.42911">
        <ele>975.67578125</ele>
      </trkpt>
      <trkpt lat="45.32708" lon="4.42916">
        <ele>976.12109375</ele>
      </trkpt>
      <trkpt lat="45.32704" lon="4.42922">
        <ele>976.5703125</ele>
      </trkpt>
      <trkpt lat="45.32698" lon="4.42926">
        <ele>977.04296875</ele>
      </trkpt>
      <trkpt lat="45.3269" lon="4.42937">
        <ele>978.23828125</ele>
      </trkpt>
      <trkpt lat="45.32685" lon="4.42942">
        <ele>978.92578125</ele>
      </trkpt>
      <trkpt lat="45.32683" lon="4.42949">
        <ele>979.625</ele>
      </trkpt>
      <trkpt lat="45.3268" lon="4.42954">
        <ele>980.26171875</ele>
      </trkpt>
      <trkpt lat="45.32677" lon="4.42962">
        <ele>981.01171875</ele>
      </trkpt>
      <trkpt lat="45.32672" lon="4.42962">
        <ele>981.33203125</ele>
      </trkpt>
      <trkpt lat="45.32666" lon="4.42965">
        <ele>981.921875</ele>
      </trkpt>
      <trkpt lat="45.32661" lon="4.42967">
        <ele>982.4375</ele>
      </trkpt>
      <trkpt lat="45.32655" lon="4.42969">
        <ele>982.97265625</ele>
      </trkpt>
      <trkpt lat="45.32645" lon="4.42973">
        <ele>984.08203125</ele>
      </trkpt>
      <trkpt lat="45.32638" lon="4.42975">
        <ele>984.734375</ele>
      </trkpt>
      <trkpt lat="45.32619" lon="4.42983">
        <ele>986.15625</ele>
      </trkpt>
      <trkpt lat="45.32614" lon="4.42985">
        <ele>986.328125</ele>
      </trkpt>
      <trkpt lat="45.32619" lon="4.42983">
        <ele>986.15625</ele>
      </trkpt>
      <trkpt lat="45.32612" lon="4.42986">
        <ele>986.38671875</ele>
      </trkpt>
      <trkpt lat="45.32601" lon="4.42994">
        <ele>986.984375</ele>
      </trkpt>
      <trkpt lat="45.32595" lon="4.42998">
        <ele>987.3515625</ele>
      </trkpt>
      <trkpt lat="45.32588" lon="4.43002">
        <ele>987.6796875</ele>
      </trkpt>
      <trkpt lat="45.32581" lon="4.43008">
        <ele>988.14453125</ele>
      </trkpt>
      <trkpt lat="45.32576" lon="4.43013">
        <ele>988.62109375</ele>
      </trkpt>
      <trkpt lat="45.32569" lon="4.43018">
        <ele>988.65625</ele>
      </trkpt>
      <trkpt lat="45.32562" lon="4.43024">
        <ele>988.26953125</ele>
      </trkpt>
      <trkpt lat="45.32556" lon="4.43029">
        <ele>987.859375</ele>
      </trkpt>
      <trkpt lat="45.3255" lon="4.43034">
        <ele>987.59375</ele>
      </trkpt>
      <trkpt lat="45.32544" lon="4.4304">
        <ele>987.140625</ele>
      </trkpt>
      <trkpt lat="45.32532" lon="4.43053">
        <ele>986.54296875</ele>
      </trkpt>
      <trkpt lat="45.32521" lon="4.43066">
        <ele>986.09375</ele>
      </trkpt>
      <trkpt lat="45.32517" lon="4.43072">
        <ele>986.2109375</ele>
      </trkpt>
      <trkpt lat="45.32514" lon="4.43078">
        <ele>986.40234375</ele>
      </trkpt>
      <trkpt lat="45.32511" lon="4.43085">
        <ele>986.55078125</ele>
      </trkpt>
      <trkpt lat="45.32506" lon="4.43099">
        <ele>987.3828125</ele>
      </trkpt>
      <trkpt lat="45.32504" lon="4.43106">
        <ele>987.8515625</ele>
      </trkpt>
      <trkpt lat="45.32502" lon="4.43115">
        <ele>988.4375</ele>
      </trkpt>
      <trkpt lat="45.32499" lon="4.43124">
        <ele>988.77734375</ele>
      </trkpt>
      <trkpt lat="45.32496" lon="4.43131">
        <ele>989.00390625</ele>
      </trkpt>
      <trkpt lat="45.32491" lon="4.43139">
        <ele>989.04296875</ele>
      </trkpt>
      <trkpt lat="45.32487" lon="4.43147">
        <ele>989.2578125</ele>
      </trkpt>
      <trkpt lat="45.32476" lon="4.43164">
        <ele>989.4375</ele>
      </trkpt>
      <trkpt lat="45.32472" lon="4.4317">
        <ele>989.3671875</ele>
      </trkpt>
      <trkpt lat="45.32468" lon="4.43177">
        <ele>989.59375</ele>
      </trkpt>
      <trkpt lat="45.32462" lon="4.43185">
        <ele>989.57421875</ele>
      </trkpt>
      <trkpt lat="45.32459" lon="4.4319">
        <ele>989.9921875</ele>
      </trkpt>
      <trkpt lat="45.3245" lon="4.43199">
        <ele>991.2265625</ele>
      </trkpt>
      <trkpt lat="45.32445" lon="4.43204">
        <ele>992</ele>
      </trkpt>
      <trkpt lat="45.32441" lon="4.43209">
        <ele>992.75390625</ele>
      </trkpt>
      <trkpt lat="45.32437" lon="4.43213">
        <ele>993.23828125</ele>
      </trkpt>
      <trkpt lat="45.32431" lon="4.43214">
        <ele>993.46875</ele>
      </trkpt>
      <trkpt lat="45.32426" lon="4.43215">
        <ele>993.69921875</ele>
      </trkpt>
      <trkpt lat="45.32419" lon="4.43215">
        <ele>993.81640625</ele>
      </trkpt>
      <trkpt lat="45.3241" lon="4.43214">
        <ele>993.85546875</ele>
      </trkpt>
      <trkpt lat="45.32405" lon="4.4321">
        <ele>993.52734375</ele>
      </trkpt>
      <trkpt lat="45.32404" lon="4.43209">
        <ele>993.41796875</ele>
      </trkpt>
      <trkpt lat="45.32398" lon="4.43205">
        <ele>993.71484375</ele>
      </trkpt>
      <trkpt lat="45.32367" lon="4.43163">
        <ele>992.45703125</ele>
      </trkpt>
      <trkpt lat="45.32349" lon="4.43141">
        <ele>992.55078125</ele>
      </trkpt>
      <trkpt lat="45.32336" lon="4.43148">
        <ele>995.30078125</ele>
      </trkpt>
      <trkpt lat="45.32327" lon="4.43159">
        <ele>998.1953125</ele>
      </trkpt>
      <trkpt lat="45.32337" lon="4.43177">
        <ele>998.6484375</ele>
      </trkpt>
      <trkpt lat="45.32329" lon="4.43201">
        <ele>1002.88671875</ele>
      </trkpt>
      <trkpt lat="45.32322" lon="4.43213">
        <ele>1005.48828125</ele>
      </trkpt>
      <trkpt lat="45.32277" lon="4.43222">
        <ele>1013.859375</ele>
      </trkpt>
      <trkpt lat="45.32254" lon="4.43235">
        <ele>1018.87109375</ele>
      </trkpt>
      <trkpt lat="45.32241" lon="4.43224">
        <ele>1019.9140625</ele>
      </trkpt>
      <trkpt lat="45.32232" lon="4.43209">
        <ele>1019.23046875</ele>
      </trkpt>
      <trkpt lat="45.32218" lon="4.43201">
        <ele>1020.046875</ele>
      </trkpt>
      <trkpt lat="45.322" lon="4.43206">
        <ele>1023.18359375</ele>
      </trkpt>
      <trkpt lat="45.32182" lon="4.43224">
        <ele>1028.24609375</ele>
      </trkpt>
      <trkpt lat="45.32166" lon="4.43242">
        <ele>1032.81640625</ele>
      </trkpt>
      <trkpt lat="45.32101" lon="4.43249">
        <ele>1042.28515625</ele>
      </trkpt>
      <trkpt lat="45.32046" lon="4.43246">
        <ele>1047.703125</ele>
      </trkpt>
      <trkpt lat="45.31995" lon="4.43248">
        <ele>1051.98046875</ele>
      </trkpt>
      <trkpt lat="45.31965" lon="4.43248">
        <ele>1053.94921875</ele>
      </trkpt>
      <trkpt lat="45.31954" lon="4.43246">
        <ele>1054.34765625</ele>
      </trkpt>
      <trkpt lat="45.31946" lon="4.4324">
        <ele>1054.06640625</ele>
      </trkpt>
      <trkpt lat="45.31939" lon="4.43233">
        <ele>1053.5546875</ele>
      </trkpt>
      <trkpt lat="45.31917" lon="4.43213">
        <ele>1052.09765625</ele>
      </trkpt>
      <trkpt lat="45.31899" lon="4.43196">
        <ele>1051.12109375</ele>
      </trkpt>
      <trkpt lat="45.31893" lon="4.4319">
        <ele>1050.65625</ele>
      </trkpt>
      <trkpt lat="45.31889" lon="4.43183">
        <ele>1049.8828125</ele>
      </trkpt>
      <trkpt lat="45.31878" lon="4.43166">
        <ele>1048.7109375</ele>
      </trkpt>
      <trkpt lat="45.31866" lon="4.4315">
        <ele>1047.84765625</ele>
      </trkpt>
      <trkpt lat="45.31837" lon="4.43122">
        <ele>1046.7890625</ele>
      </trkpt>
      <trkpt lat="45.31808" lon="4.43098">
        <ele>1045.8984375</ele>
      </trkpt>
      <trkpt lat="45.31793" lon="4.4309">
        <ele>1045.93359375</ele>
      </trkpt>
      <trkpt lat="45.31769" lon="4.43074">
        <ele>1044.7734375</ele>
      </trkpt>
      <trkpt lat="45.31765" lon="4.4307">
        <ele>1044.46484375</ele>
      </trkpt>
      <trkpt lat="45.31763" lon="4.43067">
        <ele>1044.23046875</ele>
      </trkpt>
      <trkpt lat="45.3176" lon="4.4306">
        <ele>1043.86328125</ele>
      </trkpt>
      <trkpt lat="45.31756" lon="4.43052">
        <ele>1043.5078125</ele>
      </trkpt>
      <trkpt lat="45.31751" lon="4.43042">
        <ele>1043.14453125</ele>
      </trkpt>
      <trkpt lat="45.31742" lon="4.43028">
        <ele>1042.68359375</ele>
      </trkpt>
      <trkpt lat="45.31738" lon="4.43017">
        <ele>1042.3125</ele>
      </trkpt>
      <trkpt lat="45.31732" lon="4.43005">
        <ele>1041.69140625</ele>
      </trkpt>
      <trkpt lat="45.31724" lon="4.42994">
        <ele>1041.14453125</ele>
      </trkpt>
      <trkpt lat="45.31703" lon="4.42963">
        <ele>1039.34765625</ele>
      </trkpt>
      <trkpt lat="45.31694" lon="4.42957">
        <ele>1038.73828125</ele>
      </trkpt>
      <trkpt lat="45.31686" lon="4.42946">
        <ele>1038.00390625</ele>
      </trkpt>
      <trkpt lat="45.31679" lon="4.42937">
        <ele>1037.41015625</ele>
      </trkpt>
      <trkpt lat="45.31669" lon="4.42923">
        <ele>1036.46484375</ele>
      </trkpt>
      <trkpt lat="45.31654" lon="4.42906">
        <ele>1035.07421875</ele>
      </trkpt>
      <trkpt lat="45.31645" lon="4.42891">
        <ele>1034.07421875</ele>
      </trkpt>
      <trkpt lat="45.31643" lon="4.42885">
        <ele>1033.80078125</ele>
      </trkpt>
      <trkpt lat="45.31634" lon="4.42868">
        <ele>1032.87109375</ele>
      </trkpt>
      <trkpt lat="45.31631" lon="4.42862">
        <ele>1032.546875</ele>
      </trkpt>
      <trkpt lat="45.31618" lon="4.42843">
        <ele>1031.48828125</ele>
      </trkpt>
      <trkpt lat="45.31614" lon="4.42838">
        <ele>1031.23046875</ele>
      </trkpt>
      <trkpt lat="45.31609" lon="4.42832">
        <ele>1031</ele>
      </trkpt>
      <trkpt lat="45.31604" lon="4.42825">
        <ele>1030.7109375</ele>
      </trkpt>
      <trkpt lat="45.31599" lon="4.42819">
        <ele>1030.421875</ele>
      </trkpt>
      <trkpt lat="45.31594" lon="4.42813">
        <ele>1030.1875</ele>
      </trkpt>
      <trkpt lat="45.31589" lon="4.42807">
        <ele>1029.8984375</ele>
      </trkpt>
      <trkpt lat="45.31585" lon="4.42801">
        <ele>1029.66796875</ele>
      </trkpt>
      <trkpt lat="45.3158" lon="4.42794">
        <ele>1029.43359375</ele>
      </trkpt>
      <trkpt lat="45.31575" lon="4.42788">
        <ele>1029.14453125</ele>
      </trkpt>
      <trkpt lat="45.31572" lon="4.42781">
        <ele>1028.78515625</ele>
      </trkpt>
      <trkpt lat="45.31569" lon="4.42774">
        <ele>1028.2109375</ele>
      </trkpt>
      <trkpt lat="45.3156" lon="4.42762">
        <ele>1026.93359375</ele>
      </trkpt>
      <trkpt lat="45.31558" lon="4.42757">
        <ele>1026.50390625</ele>
      </trkpt>
      <trkpt lat="45.31552" lon="4.42745">
        <ele>1025.46875</ele>
      </trkpt>
      <trkpt lat="45.31548" lon="4.42736">
        <ele>1024.6484375</ele>
      </trkpt>
      <trkpt lat="45.31545" lon="4.42733">
        <ele>1024.1640625</ele>
      </trkpt>
      <trkpt lat="45.31542" lon="4.42729">
        <ele>1023.58203125</ele>
      </trkpt>
      <trkpt lat="45.31532" lon="4.42718">
        <ele>1021.86328125</ele>
      </trkpt>
      <trkpt lat="45.31529" lon="4.42714">
        <ele>1021.27734375</ele>
      </trkpt>
      <trkpt lat="45.31524" lon="4.4271">
        <ele>1020.56640625</ele>
      </trkpt>
      <trkpt lat="45.31505" lon="4.42701">
        <ele>1018.0625</ele>
      </trkpt>
      <trkpt lat="45.31499" lon="4.42698">
        <ele>1017.15625</ele>
      </trkpt>
      <trkpt lat="45.31491" lon="4.42694">
        <ele>1016.140625</ele>
      </trkpt>
      <trkpt lat="45.31482" lon="4.42691">
        <ele>1014.90234375</ele>
      </trkpt>
      <trkpt lat="45.31474" lon="4.42689">
        <ele>1013.9609375</ele>
      </trkpt>
      <trkpt lat="45.31455" lon="4.42684">
        <ele>1011.5859375</ele>
      </trkpt>
      <trkpt lat="45.31436" lon="4.42681">
        <ele>1009.34765625</ele>
      </trkpt>
      <trkpt lat="45.31425" lon="4.4268">
        <ele>1008.12890625</ele>
      </trkpt>
      <trkpt lat="45.31413" lon="4.42679">
        <ele>1006.8046875</ele>
      </trkpt>
      <trkpt lat="45.31408" lon="4.42679">
        <ele>1006.20703125</ele>
      </trkpt>
      <trkpt lat="45.31395" lon="4.4268">
        <ele>1004.79296875</ele>
      </trkpt>
      <trkpt lat="45.31387" lon="4.4268">
        <ele>1003.96484375</ele>
      </trkpt>
      <trkpt lat="45.31369" lon="4.42678">
        <ele>1001.98828125</ele>
      </trkpt>
      <trkpt lat="45.31346" lon="4.42675">
        <ele>999.65625</ele>
      </trkpt>
      <trkpt lat="45.31339" lon="4.42674">
        <ele>999.00390625</ele>
      </trkpt>
      <trkpt lat="45.31325" lon="4.42672">
        <ele>997.80859375</ele>
      </trkpt>
      <trkpt lat="45.31301" lon="4.42668">
        <ele>995.84765625</ele>
      </trkpt>
      <trkpt lat="45.3127" lon="4.42738">
        <ele>993.953125</ele>
      </trkpt>
      <trkpt lat="45.31255" lon="4.42765">
        <ele>994.390625</ele>
      </trkpt>
      <trkpt lat="45.31252" lon="4.42768">
        <ele>994.43359375</ele>
      </trkpt>
      <trkpt lat="45.31248" lon="4.42774">
        <ele>994.5703125</ele>
      </trkpt>
      <trkpt lat="45.31241" lon="4.4278">
        <ele>994.7421875</ele>
      </trkpt>
      <trkpt lat="45.31227" lon="4.42792">
        <ele>996.453125</ele>
      </trkpt>
      <trkpt lat="45.31212" lon="4.42801">
        <ele>998.515625</ele>
      </trkpt>
      <trkpt lat="45.31206" lon="4.42803">
        <ele>999.28125</ele>
      </trkpt>
      <trkpt lat="45.31196" lon="4.42805">
        <ele>1000.3359375</ele>
      </trkpt>
      <trkpt lat="45.31188" lon="4.42807">
        <ele>1001.328125</ele>
      </trkpt>
      <trkpt lat="45.31188" lon="4.42826">
        <ele>1003.7109375</ele>
      </trkpt>
      <trkpt lat="45.31201" lon="4.42827">
        <ele>1002.56640625</ele>
      </trkpt>
      <trkpt lat="45.31188" lon="4.42826">
        <ele>1003.7109375</ele>
      </trkpt>
      <trkpt lat="45.31184" lon="4.42828">
        <ele>1004.296875</ele>
      </trkpt>
      <trkpt lat="45.31177" lon="4.4283">
        <ele>1005.08984375</ele>
      </trkpt>
      <trkpt lat="45.31117" lon="4.42808">
        <ele>1006.8984375</ele>
      </trkpt>
      <trkpt lat="45.3108" lon="4.42807">
        <ele>1008.9609375</ele>
      </trkpt>
      <trkpt lat="45.31068" lon="4.42809">
        <ele>1010.38671875</ele>
      </trkpt>
      <trkpt lat="45.31059" lon="4.42813">
        <ele>1012.08203125</ele>
      </trkpt>
      <trkpt lat="45.31041" lon="4.4282">
        <ele>1015.19140625</ele>
      </trkpt>
      <trkpt lat="45.31029" lon="4.42821">
        <ele>1016.7109375</ele>
      </trkpt>
      <trkpt lat="45.31018" lon="4.42815">
        <ele>1017.01171875</ele>
      </trkpt>
      <trkpt lat="45.31012" lon="4.42807">
        <ele>1016.82421875</ele>
      </trkpt>
      <trkpt lat="45.30992" lon="4.42812">
        <ele>1020.3828125</ele>
      </trkpt>
      <trkpt lat="45.30983" lon="4.42809">
        <ele>1021.30859375</ele>
      </trkpt>
      <trkpt lat="45.30973" lon="4.42806">
        <ele>1022.23828125</ele>
      </trkpt>
      <trkpt lat="45.30966" lon="4.42807">
        <ele>1023.47265625</ele>
      </trkpt>
      <trkpt lat="45.30948" lon="4.42809">
        <ele>1026.828125</ele>
      </trkpt>
      <trkpt lat="45.30936" lon="4.42812">
        <ele>1029.734375</ele>
      </trkpt>
      <trkpt lat="45.30924" lon="4.42816">
        <ele>1032.46484375</ele>
      </trkpt>
      <trkpt lat="45.30906" lon="4.42813">
        <ele>1035.546875</ele>
      </trkpt>
      <trkpt lat="45.30893" lon="4.42812">
        <ele>1037.00390625</ele>
      </trkpt>
      <trkpt lat="45.30885" lon="4.4281">
        <ele>1037.640625</ele>
      </trkpt>
      <trkpt lat="45.30882" lon="4.42809">
        <ele>1037.89453125</ele>
      </trkpt>
      <trkpt lat="45.30869" lon="4.42802">
        <ele>1038.51953125</ele>
      </trkpt>
      <trkpt lat="45.30852" lon="4.42791">
        <ele>1039.453125</ele>
      </trkpt>
      <trkpt lat="45.30845" lon="4.42786">
        <ele>1039.609375</ele>
      </trkpt>
      <trkpt lat="45.30837" lon="4.42781">
        <ele>1040.16796875</ele>
      </trkpt>
      <trkpt lat="45.3083" lon="4.42779">
        <ele>1040.734375</ele>
      </trkpt>
      <trkpt lat="45.30818" lon="4.42773">
        <ele>1041.64453125</ele>
      </trkpt>
      <trkpt lat="45.30811" lon="4.42771">
        <ele>1042.23828125</ele>
      </trkpt>
      <trkpt lat="45.30804" lon="4.42772">
        <ele>1043.34375</ele>
      </trkpt>
      <trkpt lat="45.30797" lon="4.42781">
        <ele>1045.234375</ele>
      </trkpt>
      <trkpt lat="45.30792" lon="4.4279">
        <ele>1046.77734375</ele>
      </trkpt>
      <trkpt lat="45.30784" lon="4.42805">
        <ele>1049.15234375</ele>
      </trkpt>
      <trkpt lat="45.30777" lon="4.42816">
        <ele>1051.01171875</ele>
      </trkpt>
      <trkpt lat="45.30772" lon="4.42822">
        <ele>1052.08203125</ele>
      </trkpt>
      <trkpt lat="45.30762" lon="4.4284">
        <ele>1054.890625</ele>
      </trkpt>
      <trkpt lat="45.30754" lon="4.42854">
        <ele>1057.29296875</ele>
      </trkpt>
      <trkpt lat="45.30747" lon="4.42869">
        <ele>1059.86328125</ele>
      </trkpt>
      <trkpt lat="45.30744" lon="4.42881">
        <ele>1061.640625</ele>
      </trkpt>
      <trkpt lat="45.30738" lon="4.42886">
        <ele>1062.77734375</ele>
      </trkpt>
      <trkpt lat="45.3073" lon="4.42889">
        <ele>1063.66796875</ele>
      </trkpt>
      <trkpt lat="45.30721" lon="4.42883">
        <ele>1063.609375</ele>
      </trkpt>
      <trkpt lat="45.30713" lon="4.42879">
        <ele>1063.609375</ele>
      </trkpt>
      <trkpt lat="45.30707" lon="4.42871">
        <ele>1063.125</ele>
      </trkpt>
      <trkpt lat="45.307" lon="4.42857">
        <ele>1061.90625</ele>
      </trkpt>
      <trkpt lat="45.30694" lon="4.42849">
        <ele>1061.2109375</ele>
      </trkpt>
      <trkpt lat="45.30688" lon="4.42842">
        <ele>1060.86328125</ele>
      </trkpt>
      <trkpt lat="45.30681" lon="4.42838">
        <ele>1060.6953125</ele>
      </trkpt>
      <trkpt lat="45.30674" lon="4.42836">
        <ele>1060.5703125</ele>
      </trkpt>
      <trkpt lat="45.30657" lon="4.42837">
        <ele>1060.953125</ele>
      </trkpt>
      <trkpt lat="45.30644" lon="4.42837">
        <ele>1061.1484375</ele>
      </trkpt>
      <trkpt lat="45.30638" lon="4.42837">
        <ele>1061.23046875</ele>
      </trkpt>
      <trkpt lat="45.30632" lon="4.42838">
        <ele>1061.4609375</ele>
      </trkpt>
      <trkpt lat="45.30622" lon="4.42839">
        <ele>1061.46484375</ele>
      </trkpt>
      <trkpt lat="45.30614" lon="4.42841">
        <ele>1061.46875</ele>
      </trkpt>
      <trkpt lat="45.30604" lon="4.42845">
        <ele>1061.578125</ele>
      </trkpt>
      <trkpt lat="45.30584" lon="4.42854">
        <ele>1062.3828125</ele>
      </trkpt>
      <trkpt lat="45.30572" lon="4.4286">
        <ele>1062.859375</ele>
      </trkpt>
      <trkpt lat="45.30562" lon="4.42865">
        <ele>1062.859375</ele>
      </trkpt>
      <trkpt lat="45.3053" lon="4.42877">
        <ele>1061.875</ele>
      </trkpt>
      <trkpt lat="45.30523" lon="4.4288">
        <ele>1061.71875</ele>
      </trkpt>
      <trkpt lat="45.30513" lon="4.42886">
        <ele>1061.91015625</ele>
      </trkpt>
      <trkpt lat="45.30506" lon="4.42893">
        <ele>1062.37109375</ele>
      </trkpt>
      <trkpt lat="45.30495" lon="4.42902">
        <ele>1062.81640625</ele>
      </trkpt>
      <trkpt lat="45.30482" lon="4.42921">
        <ele>1064.37890625</ele>
      </trkpt>
      <trkpt lat="45.30476" lon="4.42935">
        <ele>1065.9296875</ele>
      </trkpt>
      <trkpt lat="45.30466" lon="4.42956">
        <ele>1067.8125</ele>
      </trkpt>
      <trkpt lat="45.3046" lon="4.42964">
        <ele>1068.078125</ele>
      </trkpt>
      <trkpt lat="45.30454" lon="4.42971">
        <ele>1068.3515625</ele>
      </trkpt>
      <trkpt lat="45.30446" lon="4.42979">
        <ele>1068.5703125</ele>
      </trkpt>
      <trkpt lat="45.30437" lon="4.42982">
        <ele>1068.16015625</ele>
      </trkpt>
      <trkpt lat="45.30429" lon="4.42982">
        <ele>1067.5546875</ele>
      </trkpt>
      <trkpt lat="45.30424" lon="4.42981">
        <ele>1066.9921875</ele>
      </trkpt>
      <trkpt lat="45.3042" lon="4.42978">
        <ele>1066.25390625</ele>
      </trkpt>
      <trkpt lat="45.30414" lon="4.42974">
        <ele>1065.41796875</ele>
      </trkpt>
      <trkpt lat="45.3041" lon="4.42973">
        <ele>1064.9296875</ele>
      </trkpt>
      <trkpt lat="45.30406" lon="4.42971">
        <ele>1064.2890625</ele>
      </trkpt>
      <trkpt lat="45.30401" lon="4.4297">
        <ele>1063.7421875</ele>
      </trkpt>
      <trkpt lat="45.30389" lon="4.42966">
        <ele>1062.09375</ele>
      </trkpt>
      <trkpt lat="45.30385" lon="4.42962">
        <ele>1061.1796875</ele>
      </trkpt>
      <trkpt lat="45.30377" lon="4.42972">
        <ele>1061.62890625</ele>
      </trkpt>
      <trkpt lat="45.30369" lon="4.42986">
        <ele>1062.49609375</ele>
      </trkpt>
      <trkpt lat="45.30349" lon="4.43026">
        <ele>1064.953125</ele>
      </trkpt>
      <trkpt lat="45.30337" lon="4.43053">
        <ele>1068.04296875</ele>
      </trkpt>
      <trkpt lat="45.30329" lon="4.43069">
        <ele>1069.9296875</ele>
      </trkpt>
      <trkpt lat="45.30323" lon="4.43081">
        <ele>1071.203125</ele>
      </trkpt>
      <trkpt lat="45.30317" lon="4.43089">
        <ele>1072.11328125</ele>
      </trkpt>
      <trkpt lat="45.30313" lon="4.43091">
        <ele>1072.3515625</ele>
      </trkpt>
      <trkpt lat="45.30309" lon="4.43096">
        <ele>1072.796875</ele>
      </trkpt>
      <trkpt lat="45.30299" lon="4.43104">
        <ele>1073.65234375</ele>
      </trkpt>
      <trkpt lat="45.30233" lon="4.43145">
        <ele>1078.953125</ele>
      </trkpt>
      <trkpt lat="45.30217" lon="4.43156">
        <ele>1080.38671875</ele>
      </trkpt>
      <trkpt lat="45.30178" lon="4.43181">
        <ele>1084.21484375</ele>
      </trkpt>
      <trkpt lat="45.3016" lon="4.43193">
        <ele>1086.7890625</ele>
      </trkpt>
      <trkpt lat="45.30139" lon="4.43202">
        <ele>1089.18359375</ele>
      </trkpt>
      <trkpt lat="45.3013" lon="4.43203">
        <ele>1089.99609375</ele>
      </trkpt>
      <trkpt lat="45.30118" lon="4.43201">
        <ele>1091.01171875</ele>
      </trkpt>
      <trkpt lat="45.30105" lon="4.43194">
        <ele>1091.81640625</ele>
      </trkpt>
      <trkpt lat="45.30096" lon="4.43187">
        <ele>1092.26171875</ele>
      </trkpt>
      <trkpt lat="45.30078" lon="4.43169">
        <ele>1092.921875</ele>
      </trkpt>
      <trkpt lat="45.30068" lon="4.43154">
        <ele>1093.14453125</ele>
      </trkpt>
      <trkpt lat="45.30036" lon="4.43111">
        <ele>1094.1328125</ele>
      </trkpt>
      <trkpt lat="45.30015" lon="4.43077">
        <ele>1095.078125</ele>
      </trkpt>
      <trkpt lat="45.30003" lon="4.43054">
        <ele>1095.65234375</ele>
      </trkpt>
      <trkpt lat="45.29996" lon="4.43039">
        <ele>1096.328125</ele>
      </trkpt>
      <trkpt lat="45.29967" lon="4.4296">
        <ele>1099.49609375</ele>
      </trkpt>
      <trkpt lat="45.2995" lon="4.42915">
        <ele>1100.2421875</ele>
      </trkpt>
      <trkpt lat="45.29952" lon="4.42911">
        <ele>1100.0078125</ele>
      </trkpt>
      <trkpt lat="45.29954" lon="4.42902">
        <ele>1099.69921875</ele>
      </trkpt>
      <trkpt lat="45.29955" lon="4.42898">
        <ele>1099.546875</ele>
      </trkpt>
      <trkpt lat="45.29957" lon="4.42894">
        <ele>1099.40625</ele>
      </trkpt>
      <trkpt lat="45.2996" lon="4.4289">
        <ele>1099.25390625</ele>
      </trkpt>
      <trkpt lat="45.29965" lon="4.42886">
        <ele>1099.0234375</ele>
      </trkpt>
      <trkpt lat="45.29966" lon="4.42885">
        <ele>1098.953125</ele>
      </trkpt>
    </trkseg>
  </trk>
</gpx>